Date StartTime U_cm/s V_cm/s W_cm/s Ustd_cm/s Vstd_cm/s Wstd_cm/s Uvar_(cm/s)^2 Vvar_(cm/s)^2 Wvar_(cm/s)^2 KE_(m/s)^2 TurbulentKE_(m/s)^2 HorizWindSpeed_cm/s FrictionSpeec_cm/s DragCoef SpeedOfSound_m/s SonicTemperature_C Pressure_mb 
02/28/2014  00:00:00      -82.140      -62.040       10.314       51.146       39.608       34.054     2615.898     1568.768     1159.649        0.802        0.267      102.937       27.980        0.074      334.219        4.047      851.728
02/28/2014  00:01:00      -62.509      -74.515        1.777       64.028       41.138       33.406     4099.596     1692.296     1115.984        0.818        0.345       97.261       24.332        0.063      334.242        4.084      851.730
02/28/2014  00:02:00     -104.475      -91.719      -11.097       60.738       32.710       34.328     3689.158     1069.966     1178.427        1.269        0.297      139.023       32.233        0.054      334.193        4.004      851.756
02/28/2014  00:03:00      -87.778      -74.400        0.120       50.170       30.550       28.661     2517.003      933.282      821.464        0.876        0.214      115.067       26.584        0.053      334.223        4.054      851.764
02/28/2014  00:04:00      -79.613      -65.984       -0.605       46.946       45.116       21.285     2203.916     2035.454      453.044        0.769        0.235      103.402       14.720        0.020      334.215        4.041      851.761
02/28/2014  00:05:00      -67.821     -102.586       -2.214       63.848       25.126       28.479     4076.514      631.331      811.073        1.032        0.276      122.977       27.030        0.048      334.223        4.055      851.744
02/28/2014  00:06:00      -65.504     -110.102       -5.870       37.331       46.802       25.264     1393.590     2190.452      638.263        1.033        0.211      128.114       16.734        0.017      334.210        4.032      851.739
02/28/2014  00:07:00      -87.432      -58.221        4.972       62.382       34.957       27.241     3891.567     1221.979      742.064        0.846        0.293      105.043       28.713        0.075      334.220        4.049      851.734
02/28/2014  00:08:00      -84.580      -85.977        0.470       46.152       56.967       25.739     2130.045     3245.187      662.496        1.029        0.302      120.606       24.666        0.042      334.249        4.098      851.730
02/28/2014  00:09:00     -127.214     -118.353       -7.659       61.245       51.764       26.056     3750.930     2679.516      678.920        1.868        0.355      173.755       31.183        0.032      334.199        4.012      851.715
02/28/2014  00:10:00     -127.469     -101.534       -6.901       52.597       45.574       29.110     2766.413     2076.987      847.377        1.615        0.285      162.965       24.831        0.023      334.161        3.952      851.695
02/28/2014  00:11:00     -110.241     -105.960      -14.829       36.066       52.986       20.342     1300.723     2807.473      413.806        1.406        0.226      152.907       14.579        0.009      334.169        3.964      851.654
02/28/2014  00:12:00      -93.769      -90.310       -7.808       23.823       39.131       20.507      567.517     1531.225      420.552        0.976        0.126      130.187       13.390        0.011      334.219        4.048      851.611
02/28/2014  00:13:00      -47.227      -54.306        3.580       39.071       28.392       21.726     1526.509      806.119      472.025        0.400        0.140       71.970       21.764        0.091      334.266        4.125      851.589
02/28/2014  00:14:00      -45.988      -12.234        7.719       24.020       12.023       13.880      576.954      144.555      192.642        0.162        0.046       47.587       15.593        0.107      334.333        4.238      851.599
02/28/2014  00:15:00      -21.360      -23.986        0.971       33.225       18.878       16.027     1103.930      356.391      256.872        0.137        0.086       32.119       15.698        0.239      334.387        4.326      851.625
02/28/2014  00:16:00      -31.362       -5.564      -15.468       18.901       13.203       12.973      357.265      174.310      168.304        0.098        0.035       31.852        9.466        0.088      334.307        4.195      851.647
02/28/2014  00:17:00      -39.456       -0.328        7.849       15.510       14.480       11.341      240.558      209.676      128.624        0.110        0.029       39.457        9.015        0.052      334.337        4.244      851.662
02/28/2014  00:18:00      -32.929      -14.915        5.686       15.621       17.459       11.254      244.020      304.802      126.649        0.101        0.034       36.149        9.482        0.069      334.334        4.238      851.665
02/28/2014  00:19:00      -32.763      -10.045       -5.618       13.390       14.419       10.184      179.302      207.897      103.721        0.085        0.025       34.268        5.951        0.030      334.286        4.158      851.670
02/28/2014  00:20:00      -42.514      -42.620       -0.097       19.915       41.510       12.738      396.590     1723.114      162.264        0.295        0.114       60.199        5.877        0.010      334.338        4.246      851.677
02/28/2014  00:21:00      -61.496      -28.987      -10.583       35.859       29.600       18.142     1285.848      876.175      329.139        0.361        0.125       67.986       10.346        0.023      334.325        4.226      851.657
02/28/2014  00:22:00      -73.284      -22.101        0.796       24.914       32.427       19.594      620.692     1051.489      383.937        0.396        0.103       76.544       13.066        0.029      334.387        4.327      851.633
02/28/2014  00:23:00       -3.843      -21.814       16.469       28.994       21.986       15.823      840.631      483.370      250.376        0.117        0.079       22.150       14.699        0.440      334.473        4.469      851.626
02/28/2014  00:24:00      -13.891       -1.273       18.275       22.612       13.730       14.579      511.317      188.500      212.538        0.072        0.046       13.949       12.498        0.803      334.512        4.534      851.641
02/28/2014  00:25:00        5.823      -26.580       14.273       26.018       21.910       20.212      676.918      480.068      408.532        0.125        0.078       27.210       12.419        0.208      334.511        4.533      851.655
02/28/2014  00:26:00      -50.460      -34.563        2.188       18.204       19.118       11.152      331.391      365.512      124.358        0.228        0.041       61.162        9.590        0.025      334.395        4.340      851.657
02/28/2014  00:27:00      -47.656      -18.886       -4.463       13.126       12.674       10.093      172.301      160.625      101.866        0.154        0.022       51.262        7.591        0.022      334.413        4.371      851.649
02/28/2014  00:28:00      -17.682      -17.621       -4.860       17.143       11.769       13.427      293.888      138.502      180.288        0.063        0.031       24.963        9.741        0.152      334.483        4.485      851.640
02/28/2014  00:29:00        6.951       12.585       16.798       12.887        8.599        6.080      166.067       73.939       36.972        0.038        0.014       14.377        4.796        0.111      334.457        4.444      851.627
02/28/2014  00:30:00        1.901       21.974        9.949       15.360       13.609       16.229      235.922      185.192      263.385        0.063        0.034       22.056        9.729        0.195      334.376        4.310      851.627
02/28/2014  00:31:00       12.161       10.105        4.636        7.421        7.513        6.493       55.072       56.447       42.158        0.021        0.008       15.811        3.151        0.040      334.397        4.344      851.636
02/28/2014  00:32:00      -35.776       -8.033        2.627       27.763       22.540       13.790      770.812      508.068      190.159        0.141        0.073       36.667       13.125        0.128      334.482        4.486      851.653
02/28/2014  00:33:00      -36.381      -23.586        8.088       26.230       21.145       18.594      688.034      447.102      345.747        0.171        0.074       43.357       17.551        0.164      334.553        4.600      851.671
02/28/2014  00:34:00      -52.969      -36.287        5.798       38.399       28.540       21.776     1474.519      814.509      474.176        0.346        0.138       64.206       19.365        0.091      334.497        4.508      851.672
02/28/2014  00:35:00      -86.624      -68.922      -10.664       27.344       33.065       15.729      747.672     1093.309      247.404        0.723        0.104      110.697       13.807        0.016      334.510        4.530      851.654
02/28/2014  00:36:00      -78.782      -28.571       -2.009       32.686       28.066       18.772     1068.365      787.711      352.371        0.462        0.110       83.803       11.814        0.020      334.477        4.475      851.612
02/28/2014  00:37:00      -57.748      -29.702        0.080       33.278       25.308       21.198     1107.421      640.519      449.342        0.321        0.110       64.939       18.753        0.083      334.481        4.483      851.571
02/28/2014  00:38:00      -96.920      -66.046       -2.471       28.982       36.662       21.141      839.963     1344.071      446.951        0.820        0.132      117.284       15.778        0.018      334.432        4.401      851.556
02/28/2014  00:39:00      -75.580      -55.930       -5.235       45.471       30.891       19.365     2067.598      954.262      375.007        0.613        0.170       94.024       23.103        0.060      334.491        4.499      851.545
02/28/2014  00:40:00      -38.652      -46.863        3.035       32.123       31.582       14.221     1031.910      997.401      202.245        0.296        0.112       60.746       15.843        0.068      334.529        4.564      851.521
02/28/2014  00:41:00      -16.851        0.002        5.914       24.562       12.432       12.002      603.305      154.551      144.051        0.061        0.045       16.851       13.097        0.604      334.537        4.575      851.486
02/28/2014  00:42:00      -42.022      -30.214       -2.615       19.460       18.890       15.368      378.674      356.833      236.182        0.183        0.049       51.757        7.204        0.019      334.535        4.571      851.449
02/28/2014  00:43:00      -61.066        5.336       -3.288       24.866       17.357       13.661      618.319      301.266      186.610        0.244        0.055       61.298        8.824        0.021      334.477        4.476      851.412
02/28/2014  00:44:00      -43.857       13.618       -3.526       22.261       19.035        9.275      495.533      362.327       86.028        0.153        0.047       45.923       10.950        0.057      334.419        4.380      851.391
02/28/2014  00:45:00      -28.597       27.763        3.814       14.727       20.021        9.717      216.882      400.858       94.423        0.116        0.036       39.856       11.595        0.085      334.434        4.406      851.404
02/28/2014  00:46:00       12.720        8.607       15.012       15.466       10.341        8.842      239.186      106.943       78.187        0.044        0.021       15.359        7.823        0.259      334.462        4.452      851.420
02/28/2014  00:47:00       44.034       41.312      -12.981       19.535       15.872       15.355      381.625      251.932      235.767        0.234        0.043       60.379        9.044        0.022      334.390        4.332      851.417
02/28/2014  00:48:00       34.575       20.365       11.669       32.162       27.069       22.200     1034.406      732.705      492.855        0.200        0.113       40.127       17.562        0.192      334.315        4.207      851.401
02/28/2014  00:49:00       81.681       47.656       -1.403       30.185       19.842       20.133      911.159      393.694      405.351        0.533        0.086       94.567       12.251        0.017      334.015        3.709      851.374
02/28/2014  00:50:00       49.793       38.851       -1.854       29.373       17.395       14.836      862.752      302.574      220.101        0.269        0.069       63.157        7.879        0.016      334.018        3.714      851.356
02/28/2014  00:51:00       14.024       38.442       -7.696       13.939       16.583        8.572      194.307      274.994       73.483        0.114        0.027       40.920        7.822        0.037      334.048        3.765      851.359
02/28/2014  00:52:00       -3.648       28.710       -8.396        6.275        7.234        4.188       39.373       52.331       17.539        0.051        0.005       28.941        3.458        0.014      334.103        3.854      851.365
02/28/2014  00:53:00       -6.755       23.042       -4.688        3.900        5.425        2.881       15.212       29.431        8.302        0.033        0.003       24.012        1.447        0.004      334.178        3.980      851.363
02/28/2014  00:54:00        9.223       11.528        8.259        8.204        7.354        6.219       67.301       54.080       38.680        0.022        0.008       14.764        3.744        0.064      334.267        4.130      851.325
02/28/2014  00:55:00       15.869       21.688        4.642       12.397        6.708       10.497      153.692       45.001      110.181        0.053        0.015       26.874        4.493        0.028      334.259        4.117      851.265
02/28/2014  00:56:00       26.664       34.692       -4.547       10.787       11.855        7.839      116.359      140.532       61.457        0.113        0.016       43.755        5.620        0.016      334.239        4.081      851.194
02/28/2014  00:57:00       21.939       32.241       -0.477        9.055       15.129        8.899       81.984      228.880       79.187        0.096        0.020       38.997        6.728        0.030      334.225        4.057      851.147
02/28/2014  00:58:00       25.681       32.402       -3.903       25.614       19.239       16.342      656.087      370.128      267.052        0.151        0.065       41.345       10.675        0.067      334.197        4.010      851.134
02/28/2014  00:59:00       28.520       70.237      -10.247       13.651       17.338       11.293      186.361      300.608      127.537        0.323        0.031       75.807        9.961        0.017      334.155        3.938      851.143
02/28/2014  01:00:00       22.340       46.939      -10.795       12.248       23.326       11.774      150.010      544.098      138.631        0.183        0.042       51.984       10.561        0.041      334.159        3.946      851.164
02/28/2014  01:01:00        8.316       27.586        1.970       11.139       20.986       11.774      124.075      440.417      138.617        0.077        0.035       28.812       13.983        0.236      334.226        4.059      851.179
02/28/2014  01:02:00       22.574       51.610       -4.973       13.830       17.919       11.954      191.265      321.076      142.906        0.193        0.033       56.331       12.253        0.047      334.189        3.996      851.180
02/28/2014  01:03:00       20.583       38.908       -2.060       13.697       18.259        9.783      187.613      333.404       95.701        0.128        0.031       44.017        9.258        0.044      334.189        3.997      851.173
02/28/2014  01:04:00       15.547        8.522        1.676       10.227       11.329        7.497      104.591      128.337       56.199        0.030        0.014       17.730        3.105        0.031      334.200        4.018      851.188
02/28/2014  01:05:00       28.845       19.882       -0.264       10.772       14.886        9.532      116.045      221.601       90.853        0.083        0.021       35.033        7.194        0.042      334.196        4.009      851.192
02/28/2014  01:06:00       23.189       14.163       -2.319       10.090        8.039        5.745      101.809       64.620       33.002        0.047        0.010       27.172        3.056        0.013      334.243        4.088      851.190
02/28/2014  01:07:00       16.965       25.464        0.515       11.037        6.017        7.873      121.810       36.209       61.979        0.058        0.011       30.597        4.750        0.024      334.248        4.096      851.181
02/28/2014  01:08:00        5.972       23.579       -3.829        7.280        4.950        4.024       52.997       24.504       16.190        0.035        0.005       24.323        3.449        0.020      334.284        4.160      851.182
02/28/2014  01:09:00      -14.750        6.162       -2.031        7.332        7.630        4.782       53.761       58.224       22.865        0.020        0.007       15.986        3.122        0.038      334.311        4.201      851.177
02/28/2014  01:10:00      -63.472       -4.470       -0.733       13.637       10.514       10.629      185.979      110.541      112.985        0.223        0.020       63.629        7.204        0.013      334.268        4.130      851.159
02/28/2014  01:11:00      -56.904      -18.643       -3.357       12.058       13.587        8.703      145.385      184.600       75.749        0.200        0.020       59.880        5.544        0.009      334.389        4.329      851.136
02/28/2014  01:12:00      -47.166       -9.541       -1.966       13.704       13.881        7.682      187.801      192.682       59.007        0.138        0.022       48.121        4.915        0.010      334.406        4.359      851.131
02/28/2014  01:13:00      -60.325        5.513       -2.277       11.249       14.468        7.997      126.538      209.325       63.945        0.204        0.020       60.577        3.700        0.004      334.376        4.308      851.144
02/28/2014  01:14:00      -51.517        6.305       -0.752       11.501        9.099        7.663      132.283       82.786       58.719        0.148        0.014       51.902        6.776        0.017      334.429        4.396      851.142
02/28/2014  01:15:00      -38.376        9.915       -0.640       11.101       11.384        9.955      123.227      129.585       99.111        0.096        0.018       39.636        6.532        0.027      334.433        4.402      851.144
02/28/2014  01:16:00       -4.655        4.908       11.595        7.346        5.797        8.412       53.959       33.603       70.756        0.017        0.008        6.764        4.748        0.493      334.500        4.515      851.159
02/28/2014  01:17:00        0.284        6.779        5.941       12.378        9.218        9.582      153.226       84.966       91.815        0.021        0.017        6.785        8.458        1.554      334.363        4.287      851.159
02/28/2014  01:18:00       20.288       24.013        0.393       16.320       18.621       12.964      266.331      346.727      168.070        0.088        0.039       31.436        5.620        0.032      334.357        4.277      851.147
02/28/2014  01:19:00       13.931       14.867        1.888       14.894       11.104       10.655      221.825      123.300      113.524        0.044        0.023       20.374        8.590        0.178      334.385        4.324      851.122
02/28/2014  01:20:00       23.548       43.157       -3.392       10.794       25.438       14.395      116.516      647.081      207.208        0.170        0.049       49.164       16.604        0.114      334.364        4.287      851.101
02/28/2014  01:21:00       12.101       44.107      -10.724       12.066       22.811        6.859      145.591      520.359       47.042        0.146        0.036       45.737        3.659        0.006      334.300        4.184      851.088
02/28/2014  01:22:00        8.273       37.586       -7.964        8.695       10.147        6.076       75.595      102.968       36.913        0.088        0.011       38.486        3.392        0.008      334.301        4.184      851.079
02/28/2014  01:23:00        8.298       36.284       -7.245        8.285        8.883       11.158       68.639       78.902      124.499        0.085        0.014       37.221        6.317        0.029      334.284        4.156      851.070
02/28/2014  01:24:00        8.582       10.825        4.624       10.183        8.777       12.761      103.687       77.039      162.854        0.028        0.017       13.815        5.918        0.183      334.342        4.253      851.064
02/28/2014  01:25:00       28.009       40.888       -5.258       13.548       14.778        9.119      183.551      218.403       83.159        0.148        0.024       49.561        9.180        0.034      334.292        4.168      851.066
02/28/2014  01:26:00       52.557       49.414        0.959       16.609       14.705       12.343      275.847      216.230      152.360        0.292        0.032       72.139        9.127        0.016      334.308        4.196      851.060
02/28/2014  01:27:00       48.954       59.202       17.026       35.142       22.640       23.308     1234.959      512.581      543.255        0.424        0.115       76.821       19.617        0.065      334.379        4.314      851.047
02/28/2014  01:28:00       62.491       48.414       27.721       32.992       19.897       20.282     1088.465      395.883      411.361        0.446        0.095       79.051        3.486        0.002      334.352        4.269      851.025
02/28/2014  01:29:00       73.588       58.587       26.891       25.173       17.709       30.608      633.695      313.620      936.828        0.573        0.094       94.061       14.445        0.024      334.244        4.089      850.992
02/28/2014  01:30:00       69.024       58.564       24.867       22.850       17.585       20.520      522.136      309.216      421.073        0.503        0.063       90.521       14.648        0.026      334.211        4.033      850.954
02/28/2014  01:31:00       75.834       46.576       23.350       40.072       20.548       22.780     1605.792      422.232      518.913        0.551        0.127       88.995       23.470        0.070      334.214        4.041      850.920
02/28/2014  01:32:00       98.545       50.975       -5.371       31.111       29.385       19.968      967.904      863.488      398.705        0.728        0.112      110.949        7.766        0.005      334.158        3.946      850.889
02/28/2014  01:33:00       78.839       43.717        9.583       27.336       19.593       23.031      747.236      383.899      530.406        0.494        0.083       90.149       15.766        0.031      334.149        3.931      850.870
02/28/2014  01:34:00       83.231       38.737        0.905       21.667       18.038       15.931      469.480      325.355      253.797        0.474        0.052       91.804       12.755        0.019      334.171        3.969      850.845
02/28/2014  01:35:00       58.459       36.704       20.438       29.919       19.986       23.665      895.142      399.424      560.025        0.352        0.093       69.026       20.141        0.085      334.280        4.149      850.819
02/28/2014  01:36:00       25.786       22.165       21.242       20.264       18.815       16.113      410.618      353.994      259.642        0.132        0.051       34.003       14.652        0.186      334.259        4.114      850.815
02/28/2014  01:37:00        2.762       25.230       34.946        9.960       18.281       10.003       99.196      334.181      100.055        0.120        0.027       25.381        6.635        0.068      334.360        4.281      850.810
02/28/2014  01:38:00       22.929       23.847       34.614       19.348       16.781       14.549      374.352      281.587      211.678        0.158        0.043       33.082       11.668        0.124      334.325        4.224      850.810
02/28/2014  01:39:00       45.827       40.024       29.635       13.423       13.607       18.990      180.174      185.153      360.632        0.265        0.036       60.844       11.044        0.033      334.275        4.140      850.801
02/28/2014  01:40:00       52.717       29.944       16.494       18.281       13.445       18.515      334.213      180.772      342.797        0.240        0.043       60.628       11.236        0.034      334.244        4.089      850.775
02/28/2014  01:41:00       54.511       20.565        0.848       22.502       22.577       15.157      506.342      509.730      229.747        0.232        0.062       58.262       12.730        0.048      334.239        4.083      850.755
02/28/2014  01:42:00       12.301       31.258       39.600       19.169       28.580       14.191      367.440      816.788      201.374        0.204        0.069       33.591        6.294        0.035      334.373        4.304      850.734
02/28/2014  01:43:00       52.505       44.466       30.649       13.467       12.657       25.433      181.356      160.194      646.853        0.333        0.049       68.804       10.681        0.024      334.258        4.111      850.727
02/28/2014  01:44:00       35.588       37.453       29.881        9.204       11.434       11.917       84.709      130.735      142.018        0.196        0.018       51.665        6.199        0.014      334.232        4.069      850.719
02/28/2014  01:45:00       37.183       20.587       31.952       19.257       18.730       15.896      370.821      350.828      252.674        0.190        0.049       42.502        7.142        0.028      334.344        4.255      850.720
02/28/2014  01:46:00       36.763       43.943       24.247       21.524       10.262       14.402      463.287      105.312      207.408        0.232        0.039       57.293       12.699        0.049      334.353        4.272      850.707
02/28/2014  01:47:00       -0.555       19.982       30.037        7.313       14.855       15.201       53.487      220.668      231.062        0.090        0.025       19.990        6.279        0.099      334.429        4.396      850.680
02/28/2014  01:48:00       10.931       26.822       27.669       24.774        9.860       14.728      613.759       97.214      216.925        0.127        0.046       28.964       14.103        0.237      334.408        4.365      850.650
02/28/2014  01:49:00       52.614       33.936        5.965       20.534       16.782       16.293      421.638      281.628      265.472        0.246        0.048       62.609        8.990        0.021      334.357        4.277      850.607
02/28/2014  01:50:00       58.892       42.632        1.955       11.834       11.313        8.938      140.048      127.986       79.883        0.282        0.017       72.703        7.295        0.010      334.283        4.157      850.573
02/28/2014  01:51:00       44.545       19.032        0.157       12.790        9.775       10.482      163.592       95.541      109.879        0.136        0.018       48.440        6.794        0.020      334.321        4.217      850.566
02/28/2014  01:52:00       25.826       28.500        7.529       20.860       14.538       12.658      435.129      211.347      160.214        0.117        0.040       38.461        5.516        0.021      334.328        4.231      850.584
02/28/2014  01:53:00       22.551       24.301       20.245       17.431       10.188       13.596      303.848      103.800      184.848        0.105        0.030       33.152        5.742        0.030      334.350        4.267      850.605
02/28/2014  01:54:00       23.313       24.486       30.180       18.377       15.624       11.058      337.730      244.108      122.276        0.138        0.035       33.809        8.355        0.061      334.436        4.409      850.632
02/28/2014  01:55:00       26.901       29.737       25.973       15.214       11.684       12.128      231.466      136.512      147.095        0.140        0.026       40.100        7.307        0.033      334.398        4.345      850.665
02/28/2014  01:56:00       -1.908       14.538       33.988        9.336       13.293        8.109       87.170      176.703       65.757        0.085        0.016       14.663        7.352        0.251      334.519        4.545      850.676
02/28/2014  01:57:00        6.729       20.804       19.276       10.384       13.446       11.377      107.830      180.808      129.440        0.063        0.021       21.865        4.980        0.052      334.463        4.452      850.669
02/28/2014  01:58:00        5.504       17.214       -1.201       11.310        7.700        7.728      127.914       59.284       59.718        0.029        0.012       18.073        5.777        0.102      334.414        4.372      850.662
02/28/2014  01:59:00      -28.762        9.915        0.188       15.258       14.632       16.201      232.802      214.088      262.480        0.082        0.035       30.423       11.370        0.140      334.506        4.524      850.665
02/28/2014  02:00:00      -45.777      -19.062       -2.635       24.762       35.878       18.968      613.151     1287.229      359.774        0.236        0.113       49.587       10.390        0.044      334.520        4.547      850.675
02/28/2014  02:01:00      -33.854      -37.788        9.381       42.787       33.787       20.602     1830.714     1141.585      424.439        0.303        0.170       50.735       21.626        0.182      334.548        4.593      850.691
02/28/2014  02:02:00      -57.115      -68.990        6.782       47.727       34.906       30.663     2277.847     1218.438      940.197        0.625        0.222       89.565       32.488        0.132      334.496        4.507      850.720
02/28/2014  02:03:00      -99.686      -74.192       -0.858       51.770       41.656       24.254     2680.110     1735.216      588.262        1.022        0.250      124.265       30.693        0.061      334.459        4.448      850.755
02/28/2014  02:04:00      -83.539      -83.349       -1.464       42.971       40.694       23.914     1846.544     1656.020      571.891        0.900        0.204      118.007       23.351        0.039      334.512        4.533      850.785
02/28/2014  02:05:00      -65.360      -86.450       -9.129       33.252       38.254       24.102     1105.673     1463.334      580.895        0.749        0.157      108.377       15.398        0.020      334.445        4.422      850.798
02/28/2014  02:06:00      -94.886      -88.971       -0.829       47.717       43.295       22.597     2276.900     1874.489      510.610        1.079        0.233      130.074       23.205        0.032      334.410        4.364      850.791
02/28/2014  02:07:00      -57.159      -30.485        8.317       39.874       30.710       24.127     1589.914      943.129      582.128        0.369        0.156       64.780       12.631        0.038      334.418        4.376      850.743
02/28/2014  02:08:00      -90.878      -48.001       -4.596       51.127       39.424       21.419     2613.982     1554.285      458.783        0.760        0.231      102.776       11.985        0.014      334.383        4.319      850.639
02/28/2014  02:09:00      -24.178       -4.942        9.289       37.718       23.503       16.579     1422.611      552.394      274.875        0.147        0.112       24.678       18.567        0.566      334.437        4.410      850.531
02/28/2014  02:10:00      -38.014      -27.512        7.097       39.067       27.530       19.980     1526.254      757.884      399.196        0.247        0.134       46.925       18.275        0.152      334.418        4.377      850.439
02/28/2014  02:11:00      -71.593      -53.955        5.882       44.069       28.073       20.417     1942.089      788.100      416.846        0.561        0.157       89.647       20.054        0.050      334.435        4.407      850.395
02/28/2014  02:12:00      -35.063      -35.306        9.719       51.727       30.983       21.697     2675.699      959.922      470.775        0.334        0.205       49.759       20.891        0.176      334.492        4.501      850.387
02/28/2014  02:13:00      -47.415      -45.717        9.879       46.293       34.637       24.855     2143.073     1199.704      617.782        0.420        0.198       65.865       23.395        0.126      334.451        4.432      850.380
02/28/2014  02:14:00      -72.556      -67.980       -3.245       63.078       45.694       23.106     3978.836     2087.955      533.880        0.825        0.330       99.426       25.657        0.067      334.399        4.347      850.374
02/28/2014  02:15:00      -80.293      -84.023       -4.312       41.989       31.015       21.284     1763.057      961.938      453.009        0.835        0.159      116.219       25.121        0.047      334.368        4.296      850.359
02/28/2014  02:16:00      -91.760      -63.866       -7.799       26.039       23.296       14.474      678.013      542.702      209.483        0.699        0.072      111.798       11.194        0.010      334.332        4.236      850.311
02/28/2014  02:17:00      -71.264      -74.179       -6.949       16.184       14.113       10.270      261.937      199.166      105.483        0.560        0.028      102.864        7.544        0.005      334.283        4.154      850.237
02/28/2014  02:18:00      -72.454      -56.519       -9.252       18.673       15.454       13.045      348.679      238.835      170.172        0.464        0.038       91.891        4.300        0.002      334.353        4.271      850.174
02/28/2014  02:19:00      -42.731      -34.263        5.804       40.516       29.745       18.555     1641.538      884.778      344.296        0.295        0.144       54.771       21.050        0.148      334.496        4.507      850.135
02/28/2014  02:20:00      -26.367      -35.080        3.873       26.991       28.703       13.910      728.526      823.835      193.482        0.184        0.087       43.884        7.447        0.029      334.474        4.471      850.121
02/28/2014  02:21:00      -64.870      -50.096       -1.852       29.347       22.184       16.821      861.248      492.147      282.958        0.418        0.082       81.962       16.407        0.040      334.347        4.261      850.082
02/28/2014  02:22:00      -63.466      -26.333       -0.007       22.277       25.628       14.872      496.265      656.812      221.164        0.305        0.069       68.712       12.449        0.033      334.401        4.350      850.009
02/28/2014  02:23:00      -82.960       18.213       -2.949       21.262       17.031       13.021      452.076      290.066      169.555        0.407        0.046       84.936       11.986        0.020      334.354        4.273      849.915
02/28/2014  02:24:00      -77.737       30.841      -10.960       16.559       25.632       11.310      274.202      657.018      127.914        0.409        0.053       83.631        7.523        0.008      334.297        4.177      849.822
02/28/2014  02:25:00      -84.839       89.641      -30.667       17.179       19.382       12.430      295.116      375.667      154.502        0.850        0.041      123.423       10.416        0.007      334.258        4.114      849.762
02/28/2014  02:26:00      -78.520       56.023      -18.475       23.024       34.145       16.380      530.097     1165.848      268.295        0.580        0.098       96.457       18.961        0.039      334.251        4.101      849.766
02/28/2014  02:27:00      -66.402       22.412      -14.513       22.175       43.426       13.502      491.749     1885.775      182.303        0.384        0.128       70.083       11.732        0.028      334.300        4.182      849.804
02/28/2014  02:28:00     -109.614      -48.938       -9.435       18.185       17.463       13.589      330.690      304.960      184.648        0.766        0.041      120.042       10.603        0.008      334.204        4.023      849.841
02/28/2014  02:29:00      -66.705      -35.456       -9.033       18.067       12.666       10.928      326.408      160.426      119.432        0.320        0.030       75.543       10.862        0.021      334.208        4.026      849.850
02/28/2014  02:30:00      -49.963       -8.322       -3.820       14.385       10.832        8.726      206.919      117.331       76.141        0.149        0.020       50.652        5.759        0.013      334.215        4.037      849.811
02/28/2014  02:31:00      -14.362        9.675        4.928        8.450       11.687        9.291       71.399      136.576       86.329        0.031        0.015       17.316        4.582        0.070      334.251        4.098      849.749
02/28/2014  02:32:00      -22.819       21.114        8.388       14.163       15.204       14.688      200.601      231.150      215.745        0.084        0.032       31.089        9.756        0.098      334.338        4.245      849.692
02/28/2014  02:33:00      -32.086      -24.140       -2.020       24.816       15.504       11.578      615.851      240.370      134.059        0.130        0.050       40.153        8.300        0.043      334.325        4.224      849.665
02/28/2014  02:34:00       -9.520      -16.270        4.501       21.110       16.287        9.478      445.633      265.278       89.839        0.059        0.040       18.851        8.118        0.185      334.382        4.319      849.678
02/28/2014  02:35:00      -16.028      -25.670        8.407       28.432       19.123       14.039      808.376      365.689      197.096        0.118        0.069       30.263       11.250        0.138      334.443        4.419      849.711
02/28/2014  02:36:00      -49.447      -30.864       -9.107       16.914       16.705        9.802      286.072      279.065       96.075        0.207        0.033       58.289        9.412        0.026      334.284        4.155      849.730
02/28/2014  02:37:00      -37.371       11.960       -4.292       13.785       14.239       10.423      190.036      202.756      108.641        0.103        0.025       39.238        9.092        0.054      334.253        4.105      849.717
02/28/2014  02:38:00      -36.944        7.458        4.576       21.692       14.417        9.087      470.551      207.842       82.570        0.110        0.038       37.690       11.080        0.086      334.273        4.137      849.672
02/28/2014  02:39:00       -2.708       10.901       -0.213       14.852       13.027       11.177      220.586      169.696      124.924        0.032        0.026       11.233        9.937        0.783      334.249        4.098      849.628
02/28/2014  02:40:00       49.092       29.740       17.166       21.129       13.901       16.811      446.448      193.229      282.605        0.226        0.046       57.398        9.297        0.026      334.274        4.140      849.584
02/28/2014  02:41:00       31.510       32.867       30.509       21.903       19.170       16.808      479.756      367.480      282.505        0.207        0.056       45.532        9.732        0.046      334.286        4.159      849.563
02/28/2014  02:42:00       36.561       27.165       21.530       18.426       20.714       15.993      339.500      429.072      255.778        0.178        0.051       45.548       12.085        0.070      334.249        4.097      849.541
02/28/2014  02:43:00       46.510       42.742       10.462       11.890       14.654       11.943      141.370      214.742      142.646        0.230        0.025       63.167        6.751        0.011      334.212        4.037      849.524
02/28/2014  02:44:00       57.498       36.445        9.346        6.861        8.115        7.501       47.072       65.855       56.271        0.245        0.008       68.076        4.561        0.004      334.144        3.926      849.511
02/28/2014  02:45:00       27.782       33.532       17.273       25.776       15.912       19.959      664.400      253.192      398.375        0.176        0.066       43.546       16.983        0.152      334.256        4.109      849.499
02/28/2014  02:46:00       43.333       33.814       17.253       15.333       11.250       16.810      235.096      126.559      282.578        0.198        0.032       54.965        6.871        0.016      334.257        4.112      849.471
02/28/2014  02:47:00       59.836       45.091       16.366       14.790       12.514       18.226      218.739      156.594      332.175        0.329        0.035       74.923       12.271        0.027      334.221        4.049      849.426
02/28/2014  02:48:00       69.999       37.305        7.641       18.678       16.209       15.980      348.854      262.732      255.356        0.361        0.043       79.319       10.317        0.017      334.259        4.115      849.374
02/28/2014  02:49:00       62.189       41.813        1.675       18.031       10.863       11.881      325.126      118.013      141.154        0.310        0.029       74.939       10.818        0.021      334.207        4.027      849.332
02/28/2014  02:50:00       53.465       29.233       -0.337       16.294       14.616       13.783      265.503      213.633      189.970        0.219        0.033       60.935        9.011        0.022      334.244        4.089      849.330
02/28/2014  02:51:00       35.345       24.997        8.553       14.765       14.239       14.367      218.018      202.737      206.397        0.129        0.031       43.292        7.814        0.033      334.281        4.151      849.336
02/28/2014  02:52:00       29.900       38.939       32.769       19.928       14.486       13.083      397.108      209.848      171.167        0.213        0.039       49.094       10.040        0.042      334.274        4.137      849.340
02/28/2014  02:53:00       25.543       40.961       34.703       18.733       13.902       10.473      350.931      193.268      109.688        0.209        0.033       48.272       10.071        0.044      334.287        4.161      849.327
02/28/2014  02:54:00       38.916       32.046       17.213       11.704       11.354       12.976      136.980      128.908      168.381        0.164        0.022       50.412        4.024        0.006      334.257        4.111      849.308
02/28/2014  02:55:00       47.868       31.428       14.934       15.634       10.539       17.757      244.434      111.076      315.322        0.209        0.034       57.263        9.914        0.030      334.229        4.064      849.292
02/28/2014  02:56:00       33.984       30.640        0.350       11.721       14.885       10.561      137.373      221.575      111.535        0.128        0.024       45.758        7.594        0.028      334.229        4.065      849.277
02/28/2014  02:57:00       21.796       26.991        3.528       11.611        6.690       11.186      134.823       44.750      125.119        0.076        0.015       34.693        8.450        0.059      334.236        4.076      849.277
02/28/2014  02:58:00        5.061       37.061        3.664       15.184       13.889       15.170      230.567      192.903      230.141        0.103        0.033       37.406        8.759        0.055      334.253        4.102      849.285
02/28/2014  02:59:00       15.801       26.423       19.276       13.587       13.977        9.664      184.619      195.363       93.391        0.090        0.024       30.787        8.348        0.074      334.300        4.183      849.285
02/28/2014  03:00:00        1.913       17.337       -3.129        7.247        8.915        7.299       52.523       79.479       53.277        0.025        0.009       17.442        4.096        0.055      334.268        4.130      849.277
02/28/2014  03:01:00        2.943       -5.132       -4.531        9.434        7.138        5.783       88.992       50.957       33.448        0.011        0.009        5.916        4.365        0.544      334.333        4.236      849.246
02/28/2014  03:02:00      -10.833       -2.649        8.004       14.746        5.775        7.453      217.437       33.351       55.544        0.025        0.015       11.152        8.142        0.533      334.364        4.290      849.224
02/28/2014  03:03:00      -28.333        0.017        2.004       11.195       14.644        8.435      125.326      214.435       71.142        0.061        0.021       28.333        6.135        0.047      334.388        4.330      849.223
02/28/2014  03:04:00      -29.246        6.058        0.363       19.905       10.175       15.004      396.217      103.540      225.112        0.081        0.036       29.867       14.961        0.251      334.378        4.312      849.217
02/28/2014  03:05:00        1.357        6.234        5.625       10.656        8.781       11.817      113.558       77.105      139.632        0.020        0.017        6.380        5.838        0.837      334.372        4.302      849.211
02/28/2014  03:06:00       10.847       13.777        7.557       16.349       10.549        9.968      267.296      111.279       99.353        0.042        0.024       17.534        4.799        0.075      334.357        4.278      849.206
02/28/2014  03:07:00      -10.366        8.233       11.908       16.637       12.512        9.838      276.777      156.552       96.793        0.042        0.027       13.238        9.156        0.478      334.299        4.182      849.200
02/28/2014  03:08:00       -2.620       -1.600       17.455        7.146        4.939        7.918       51.071       24.398       62.689        0.023        0.007        3.070        6.197        4.074      334.461        4.450      849.195
02/28/2014  03:09:00       27.356       28.747        5.723       10.773       12.278       14.854      116.064      150.744      220.636        0.105        0.024       39.683       12.422        0.098      334.274        4.138      849.203
02/28/2014  03:10:00       13.184       33.755       -0.657       23.285       20.109       17.681      542.183      404.360      312.621        0.129        0.063       36.238       13.845        0.146      334.320        4.217      849.203
02/28/2014  03:11:00       35.769       37.260       -8.646        8.694       11.335       12.040       75.592      128.475      144.951        0.155        0.017       51.650        4.116        0.006      334.305        4.190      849.206
02/28/2014  03:12:00       40.325       31.433       15.944       26.338       16.085       15.661      693.713      258.735      245.254        0.203        0.060       51.129       10.220        0.040      334.389        4.330      849.198
02/28/2014  03:13:00       44.128       31.061        8.612       18.910       12.101       14.754      357.591      146.446      217.695        0.185        0.036       53.963       11.081        0.042      334.319        4.216      849.164
02/28/2014  03:14:00       54.414       32.891       -1.376       15.723       12.740       19.193      247.204      162.313      368.363        0.241        0.039       63.582        6.387        0.010      334.332        4.237      849.139
02/28/2014  03:15:00       41.315       31.735       11.669       19.895       24.191       18.694      395.795      585.224      349.462        0.209        0.067       52.096       14.872        0.081      334.373        4.303      849.109
02/28/2014  03:16:00       18.015       29.120       32.190       16.006       17.556        9.610      256.188      308.224       92.349        0.143        0.033       34.242        3.722        0.012      334.365        4.290      849.090
02/28/2014  03:17:00       14.061       11.663       32.077       12.431       11.010        8.440      154.532      121.225       71.240        0.085        0.017       18.269        8.324        0.208      334.368        4.295      849.081
02/28/2014  03:18:00        3.126        4.974       12.043        8.648        8.248       11.867       74.794       68.022      140.818        0.023        0.014        5.874        6.058        1.064      334.398        4.346      849.062
02/28/2014  03:19:00        2.857        9.325       20.366       16.509       10.272       10.591      272.532      105.521      112.168        0.050        0.025        9.753        2.668        0.075      334.469        4.464      849.045
02/28/2014  03:20:00        1.373       18.800       -5.102       10.434        8.449        9.927      108.866       71.387       98.550        0.033        0.014       18.850        4.588        0.059      334.403        4.354      849.020
02/28/2014  03:21:00       -5.894       -4.199        6.883       10.825        9.408        8.850      117.179       88.506       78.320        0.019        0.014        7.236        6.397        0.781      334.472        4.468      849.001
02/28/2014  03:22:00      -58.478        4.373        0.432       21.309       14.846       11.852      454.062      220.411      140.476        0.213        0.041       58.641       11.575        0.039      334.412        4.366      848.984
02/28/2014  03:23:00      -66.555       -9.986      -12.652       16.534        8.896        9.363      273.382       79.146       87.658        0.256        0.022       67.300        4.039        0.004      334.380        4.314      848.965
02/28/2014  03:24:00      -33.345        8.782       -3.102       12.448       12.912        9.681      154.965      166.727       93.727        0.081        0.021       34.482        3.120        0.008      334.353        4.272      848.941
02/28/2014  03:25:00      -39.235       12.508       -5.974       13.009       11.605       11.435      169.243      134.674      130.761        0.108        0.022       41.180        6.167        0.022      334.338        4.247      848.917
02/28/2014  03:26:00      -17.261        5.487        4.668       14.782       10.714       11.691      218.508      114.797      136.682        0.041        0.023       18.113       11.673        0.415      334.420        4.381      848.890
02/28/2014  03:27:00       13.206       30.822       -1.661       22.023       21.341       15.827      485.030      455.436      250.492        0.116        0.060       33.532       14.129        0.178      334.393        4.337      848.861
02/28/2014  03:28:00       30.416       45.455       -1.031       17.482       22.847       16.504      305.626      521.997      272.391        0.205        0.055       54.693       15.360        0.079      334.341        4.250      848.831
02/28/2014  03:29:00       30.936       66.532      -14.297        9.909       13.610        7.997       98.195      185.243       63.944        0.297        0.017       73.373        5.683        0.006      334.300        4.184      848.811
02/28/2014  03:30:00       32.217       57.908      -10.146       16.154       21.740       14.108      260.956      472.611      199.039        0.271        0.047       66.267       12.725        0.037      334.308        4.194      848.782
02/28/2014  03:31:00       29.720       56.609       -1.372       18.530       22.506       14.515      343.352      506.514      210.694        0.257        0.053       63.936       13.726        0.046      334.274        4.139      848.744
02/28/2014  03:32:00       22.844       36.595       -5.218       18.061       26.330       14.920      326.216      693.270      222.612        0.156        0.062       43.140       14.433        0.112      334.240        4.083      848.708
02/28/2014  03:33:00       17.381       32.313        3.642       17.880       20.456       17.818      319.694      418.465      317.484        0.121        0.053       36.691       16.299        0.197      334.231        4.068      848.691
02/28/2014  03:34:00       19.982       19.050       -5.838       11.253       11.333       11.779      126.626      128.443      138.746        0.059        0.020       27.608        9.020        0.107      334.276        4.143      848.684
02/28/2014  03:35:00       26.175       19.102       -2.287       12.462        7.111        7.927      155.298       50.560       62.835        0.066        0.013       32.404        3.313        0.010      334.285        4.159      848.691
02/28/2014  03:36:00       31.012       37.669       17.151       14.006       14.848       15.652      196.167      220.476      244.970        0.167        0.033       48.792        7.357        0.023      334.338        4.247      848.699
02/28/2014  03:37:00       43.919       42.910       25.369       14.667       15.581       18.983      215.109      242.773      360.367        0.262        0.041       61.402        8.091        0.017      334.342        4.253      848.696
02/28/2014  03:38:00       73.281       55.604       24.394       27.824       14.563       22.989      774.172      212.069      528.479        0.529        0.076       91.989       13.099        0.020      334.314        4.206      848.698
02/28/2014  03:39:00       63.265       64.456       22.196       24.121       15.571       19.982      581.811      242.451      399.274        0.494        0.061       90.316       11.547        0.016      334.284        4.155      848.700
02/28/2014  03:40:00       72.011       50.377       30.072       33.211       22.215       29.187     1102.982      493.521      851.894        0.554        0.122       87.883       24.056        0.075      334.295        4.174      848.707
02/28/2014  03:41:00       49.136       53.280       41.997       27.757       21.290       20.016      770.469      453.255      400.652        0.432        0.081       72.478       12.144        0.028      334.320        4.215      848.715
02/28/2014  03:42:00       32.965       35.738       35.592       29.484       22.609       20.304      869.317      511.144      412.269        0.271        0.090       48.620        5.998        0.015      334.375        4.307      848.727
02/28/2014  03:43:00       22.435       40.140       48.592       18.514       30.667       13.478      342.784      940.446      181.663        0.297        0.073       45.984        7.699        0.028      334.351        4.268      848.736
02/28/2014  03:44:00       11.952       30.449       39.793       22.238       17.208       14.662      494.517      296.106      214.975        0.183        0.050       32.711       10.007        0.094      334.336        4.243      848.755
02/28/2014  03:45:00       45.967       60.800       57.966       37.683       28.609       20.860     1419.991      818.485      435.129        0.592        0.134       76.221       16.718        0.048      334.345        4.258      848.779
02/28/2014  03:46:00       56.504       52.587       47.755       26.019       20.346       12.167      676.993      413.950      148.038        0.474        0.062       77.188        6.075        0.006      334.268        4.131      848.804
02/28/2014  03:47:00       23.853       -2.485       15.959       23.251       29.717       25.698      540.621      883.084      660.379        0.146        0.104       23.982       17.709        0.545      334.407        4.358      848.829
02/28/2014  03:48:00       32.586      -42.839       13.714       32.616       29.876       23.779     1063.815      892.564      565.444        0.280        0.126       53.824       23.801        0.196      334.464        4.452      848.876
02/28/2014  03:49:00       70.339      -83.589      -15.511       31.329       38.426       22.688      981.513     1476.587      514.733        0.757        0.149      109.246       13.530        0.015      334.473        4.468      848.940
02/28/2014  03:50:00       27.521      -19.360       26.291       29.388       45.601       30.545      863.646     2079.460      933.000        0.285        0.194       33.648       33.180        0.972      334.554        4.604      849.004
02/28/2014  03:51:00       23.749      -11.130       36.018       30.123       39.355       29.984      907.366     1548.804      899.053        0.267        0.168       26.228       21.966        0.701      334.518        4.543      849.066
02/28/2014  03:52:00       42.397      -54.165        4.679       48.276       54.629       48.880     2330.578     2984.375     2389.243        0.623        0.385       68.785       36.543        0.282      334.524        4.552      849.116
02/28/2014  03:53:00       62.905      -60.603      -12.399       50.290       50.075       40.663     2529.096     2507.535     1653.442        0.724        0.335       87.348       36.191        0.172      334.479        4.479      849.169
02/28/2014  03:54:00       71.346      -79.294      -17.966       47.792       45.646       32.565     2284.067     2083.528     1060.471        0.856        0.271      106.666       27.322        0.066      334.538        4.576      849.197
02/28/2014  03:55:00       57.793      -36.053       10.757       53.611       75.347       53.214     2874.175     5677.203     2831.758        0.807        0.569       68.116       57.958        0.724      334.542        4.582      849.218
02/28/2014  03:56:00        0.485       59.802       82.873       28.843       41.185       37.263      831.935     1696.170     1388.540        0.718        0.196       59.804       26.308        0.194      334.483        4.486      849.231
02/28/2014  03:57:00       -2.193       -2.779       49.377       18.689       24.916       22.539      349.295      620.790      508.022        0.196        0.074        3.540       12.997       13.480      334.619        4.711      849.235
02/28/2014  03:58:00       25.778      -25.887       16.775       31.715       44.982       29.252     1005.827     2023.338      855.708        0.275        0.194       36.533       28.236        0.597      334.668        4.793      849.227
02/28/2014  03:59:00      -22.798        8.385       42.984       29.637       41.489       28.457      878.363     1721.312      809.809        0.292        0.170       24.291       30.150        1.541      334.564        4.618      849.212
02/28/2014  04:00:00       -4.185       17.027       36.166       18.746       35.967       23.645      351.424     1293.615      559.106        0.191        0.110       17.534       24.193        1.904      334.558        4.610      849.212
02/28/2014  04:01:00       -5.784       13.258       32.817       16.382       27.311       21.126      268.375      745.908      446.327        0.137        0.073       14.465       14.065        0.946      334.609        4.694      849.186
02/28/2014  04:02:00      -31.078       18.599       22.730       39.123       42.504       33.436     1530.629     1806.572     1117.960        0.314        0.223       36.218       31.024        0.734      334.572        4.632      849.149
02/28/2014  04:03:00      -10.323       13.945       15.558       16.184       22.600       17.467      261.936      510.762      305.087        0.081        0.054       17.350        6.825        0.155      334.616        4.705      849.106
02/28/2014  04:04:00        3.958       26.722        3.278       25.233       30.001       21.357      636.699      900.074      456.123        0.137        0.100       27.013       23.555        0.760      334.573        4.636      849.062
02/28/2014  04:05:00        8.873       58.340      -13.233       17.457       23.169       13.273      304.749      536.800      176.184        0.234        0.051       59.010       11.051        0.035      334.486        4.489      849.044
02/28/2014  04:06:00       10.359       28.873       29.751       24.102       33.676       26.084      580.913     1134.042      680.396        0.211        0.120       30.675       17.390        0.321      334.604        4.686      849.053
02/28/2014  04:07:00       -9.399       10.278       42.243       13.904       27.371       21.906      193.332      749.178      479.872        0.170        0.071       13.927       22.131        2.525      334.672        4.798      849.055
02/28/2014  04:08:00      -37.580      -25.540        0.743       31.078       28.548       16.208      965.812      815.010      262.686        0.205        0.102       45.437        9.177        0.041      334.654        4.770      849.020
02/28/2014  04:09:00      -24.056       26.227       -5.073       21.037       25.670       14.785      442.575      658.956      218.586        0.131        0.066       35.588        8.996        0.064      334.538        4.575      848.935
02/28/2014  04:10:00      -37.132       19.262        1.138       31.030       33.866       15.477      962.855     1146.901      239.524        0.205        0.117       41.831        9.996        0.057      334.585        4.655      848.832
02/28/2014  04:11:00      -78.720       44.059       -3.749       30.551       30.638       21.825      933.336      938.689      476.350        0.525        0.117       90.210       19.929        0.049      334.502        4.517      848.718
02/28/2014  04:12:00      -91.116       92.661      -20.021       32.545       40.459       22.965     1059.206     1636.930      527.374        1.026        0.161      129.955       23.671        0.033      334.403        4.352      848.607
02/28/2014  04:13:00      -76.785      106.496      -14.636       36.567       34.145       20.924     1337.113     1165.870      437.802        1.020        0.147      131.291       17.288        0.017      334.516        4.540      848.537
02/28/2014  04:14:00      -43.766      100.001       -6.609       34.892       51.639       24.096     1217.469     2666.567      580.633        0.821        0.223      109.159       26.162        0.057      334.511        4.533      848.546
02/28/2014  04:15:00       33.812       37.476        8.227       29.967       20.484       16.128      898.045      419.614      260.117        0.210        0.079       50.474       11.335        0.050      334.479        4.480      848.613
02/28/2014  04:16:00       32.665       38.782        9.870       25.800       16.245       17.501      665.634      263.912      306.288        0.195        0.062       50.705       11.661        0.053      334.458        4.445      848.654
02/28/2014  04:17:00       26.268       26.331       -5.924       22.475       14.908       12.288      505.130      222.251      151.002        0.115        0.044       37.193        5.826        0.025      334.376        4.308      848.581
02/28/2014  04:18:00       13.830       27.238       -4.835       28.653       18.906       10.656      821.021      357.450      113.549        0.112        0.065       30.548        7.868        0.066      334.375        4.308      848.538
02/28/2014  04:19:00       66.288       54.526       -4.067       26.187       26.599       23.823      685.777      707.512      567.525        0.467        0.098       85.832       16.218        0.036      334.359        4.280      848.586
02/28/2014  04:20:00       91.058       46.846        4.882       24.896       21.940       23.248      619.801      481.381      540.484        0.608        0.082      102.401       12.407        0.015      334.350        4.266      848.625
02/28/2014  04:21:00       74.574       60.248        0.114       22.785       18.394       18.754      519.134      338.344      351.726        0.520        0.060       95.871       10.833        0.013      334.295        4.174      848.631
02/28/2014  04:22:00       75.877       50.965        0.667       28.183       23.744       29.547      794.307      563.796      873.012        0.529        0.112       91.405       11.759        0.017      334.295        4.174      848.669
02/28/2014  04:23:00       96.139       78.830       43.403       40.929       23.793       34.964     1675.185      566.120     1222.461        1.040        0.173      124.325       24.055        0.037      334.313        4.203      848.717
02/28/2014  04:24:00       61.076       73.077       59.969       60.518       32.335       41.843     3662.401     1045.564     1750.875        0.956        0.323       95.239       43.283        0.207      334.339        4.246      848.750
02/28/2014  04:25:00       56.034       68.297       59.749       41.421       27.633       27.883     1715.722      763.593      777.453        0.731        0.163       88.342       22.557        0.065      334.315        4.208      848.771
02/28/2014  04:26:00       62.214       49.632       53.123       57.838       37.344       46.530     3345.263     1394.600     2165.008        0.803        0.345       79.586       42.198        0.281      334.307        4.194      848.767
02/28/2014  04:27:00      124.208       85.256       24.753       26.121       25.661       20.337      682.297      658.509      413.606        1.253        0.088      150.653       12.875        0.007      334.258        4.112      848.736
02/28/2014  04:28:00      102.852       38.480        6.609       36.698       34.369       26.717     1346.749     1181.214      713.824        0.767        0.162      109.815       14.647        0.018      334.281        4.152      848.694
02/28/2014  04:29:00      111.065       45.327       16.210       38.839       27.505       30.703     1508.444      756.548      942.649        0.893        0.160      119.959       22.525        0.035      334.289        4.166      848.690
02/28/2014  04:30:00       88.107       64.426       13.520       39.678       27.330       21.619     1574.355      746.953      467.362        0.744        0.139      109.150       14.478        0.018      334.229        4.065      848.705
02/28/2014  04:31:00       42.117       46.575        1.674       31.075       22.726       21.641      965.681      516.458      468.338        0.295        0.098       62.794       14.854        0.056      334.194        4.004      848.678
02/28/2014  04:32:00       19.743       36.172       -2.908       13.646       23.493       16.206      186.225      551.937      262.623        0.135        0.050       41.210       14.953        0.132      334.184        3.988      848.614
02/28/2014  04:33:00       18.525       30.688       19.113       15.360       32.975       23.349      235.921     1087.322      545.188        0.176        0.093       35.846       19.380        0.292      334.281        4.151      848.625
02/28/2014  04:34:00        6.334       57.789       66.907       24.674       28.862       12.834      608.804      833.005      164.719        0.473        0.080       58.135       12.046        0.043      334.353        4.270      848.692
02/28/2014  04:35:00       18.018       42.650       51.807       37.186       28.302       33.882     1382.825      801.003     1147.966        0.408        0.167       46.300       32.695        0.499      334.287        4.159      848.646
02/28/2014  04:36:00       42.972       20.639       -3.482       10.724       18.338       18.236      115.006      336.283      332.552        0.153        0.039       47.672       14.324        0.090      334.183        3.987      848.563
02/28/2014  04:37:00       11.236       39.333       41.040       26.724       39.249       45.484      714.162     1540.485     2068.822        0.384        0.216       40.906       28.795        0.496      334.343        4.252      848.657
02/28/2014  04:38:00       56.830      -47.373       34.677       57.964      110.392       63.794     3359.842    12186.356     4069.734        1.314        0.981       73.985       63.536        0.737      334.412        4.366      848.789
02/28/2014  04:39:00       16.218       49.494       84.720       42.065       43.659       38.969     1769.459     1906.078     1518.599        0.754        0.260       52.083       30.948        0.353      334.361        4.283      848.796
02/28/2014  04:40:00       38.256       18.897       31.149       30.390       28.013       38.459      923.540      784.725     1479.086        0.299        0.159       42.669       28.373        0.442      334.290        4.166      848.721
02/28/2014  04:41:00       57.930       42.614       -1.688       30.164       26.010       21.204      909.875      676.511      449.622        0.360        0.102       71.916       13.471        0.035      334.199        4.015      848.655
02/28/2014  04:42:00       59.589       51.253       -0.341       22.587       26.914       19.978      510.163      724.362      399.132        0.391        0.082       78.599       17.260        0.048      334.198        4.011      848.631
02/28/2014  04:43:00       71.256       69.414       42.708       32.793       27.946       44.999     1075.413      781.004     2024.934        0.780        0.194       99.478       31.388        0.100      334.266        4.127      848.684
02/28/2014  04:44:00       33.615       91.930      106.727       35.019       62.091       25.175     1226.300     3855.328      633.775        1.334        0.286       97.883       30.470        0.097      334.277        4.143      848.818
02/28/2014  04:45:00       31.573       39.330       79.234       50.176       68.547       44.915     2517.621     4698.656     2017.377        0.903        0.462       50.435       42.958        0.725      334.377        4.308      848.867
02/28/2014  04:46:00       68.340        8.755       34.599       29.971       45.781       43.050      898.231     2095.933     1853.302        0.539        0.242       68.898       30.787        0.200      334.316        4.209      848.825
02/28/2014  04:47:00       71.250       38.945       15.348       35.363       31.621       29.715     1250.565      999.858      883.007        0.498        0.157       81.199       19.375        0.057      334.323        4.221      848.737
02/28/2014  04:48:00       96.521       70.004       35.712       34.001       24.613       26.703     1156.092      605.806      713.052        0.898        0.124      119.234       13.171        0.012      334.214        4.039      848.687
02/28/2014  04:49:00       98.486       50.353       28.610       33.030       29.511       34.251     1090.982      870.907     1173.130        0.809        0.157      110.612       25.726        0.054      334.250        4.100      848.682
02/28/2014  04:50:00       83.642       59.928       46.154       32.805       21.299       24.945     1076.191      453.659      622.247        0.743        0.108      102.895       18.681        0.033      334.311        4.200      848.671
02/28/2014  04:51:00       99.604       28.236       38.973       35.423       31.330       38.034     1254.776      981.546     1446.598        0.796        0.184      103.529       25.368        0.060      334.306        4.194      848.636
02/28/2014  04:52:00      144.838       69.804       10.423       39.418       36.377       27.050     1553.766     1323.274      731.719        1.478        0.180      160.781       15.134        0.009      334.295        4.175      848.571
02/28/2014  04:53:00      119.865       80.240        8.718       67.643       37.096       34.131     4575.606     1376.113     1164.947        1.400        0.356      144.243       19.958        0.019      334.215        4.041      848.481
02/28/2014  04:54:00       36.481       49.458        7.589       47.032       47.268       31.135     2212.001     2234.270      969.389        0.462        0.271       61.457       21.133        0.118      334.212        4.035      848.393
02/28/2014  04:55:00       52.670       75.692       -0.629       38.505       50.182       35.953     1482.609     2518.270     1292.643        0.690        0.265       92.213       30.129        0.107      334.189        3.997      848.350
02/28/2014  04:56:00       43.877       62.052        3.254       40.378       35.258       28.763     1630.382     1243.155      827.321        0.474        0.185       75.998       25.399        0.112      334.204        4.022      848.353
02/28/2014  04:57:00       -2.781      125.441      -24.715       35.611       29.677       15.206     1268.147      880.753      231.236        0.937        0.119      125.472       12.148        0.009      334.160        3.947      848.314
02/28/2014  04:58:00      -92.133       67.440      -16.716       44.623       46.892       23.585     1991.202     2198.860      556.243        0.903        0.237      114.178       22.371        0.038      334.216        4.042      848.249
02/28/2014  04:59:00      -25.812      136.453      -16.053       39.021       52.595       21.252     1522.664     2766.249      451.659        1.214        0.237      138.873       23.932        0.030      334.169        3.964      848.231
02/28/2014  05:00:00       37.077      177.784      -28.254       26.844       44.747       26.141      720.589     2002.259      683.347        1.859        0.170      181.609       23.208        0.016      334.160        3.946      848.222
02/28/2014  05:01:00       43.357      204.634      -38.803       39.814       48.344       27.780     1585.144     2337.118      771.714        2.498        0.235      209.177       28.029        0.018      334.142        3.915      848.218
02/28/2014  05:02:00       42.583      158.046      -18.596       46.179       76.455       38.738     2132.462     5845.368     1500.668        1.831        0.474      163.682       45.674        0.078      334.165        3.957      848.235
02/28/2014  05:03:00       34.092      137.673      -15.953       39.500       77.363       33.003     1560.257     5985.059     1089.189        1.450        0.432      141.832       43.851        0.096      334.133        3.903      848.263
02/28/2014  05:04:00       40.702      159.971      -14.728       41.272       55.877       42.974     1703.417     3122.230     1846.805        1.707        0.334      165.068       42.091        0.065      334.167        3.959      848.264
02/28/2014  05:05:00       38.858      187.394      -22.207       40.559       46.182       36.753     1645.073     2132.749     1350.799        2.112        0.256      191.381       34.526        0.033      334.140        3.914      848.236
02/28/2014  05:06:00       49.287      145.930      -16.412       39.116       53.569       34.861     1530.079     2869.678     1215.263        1.480        0.281      154.029       32.476        0.044      334.184        3.988      848.233
02/28/2014  05:07:00       29.043      163.658      -21.806       41.568       70.024       33.156     1727.882     4903.351     1099.326        1.792        0.387      166.215       35.016        0.044      334.174        3.971      848.222
02/28/2014  05:08:00      -24.891      187.273      -24.670       40.582       53.460       32.925     1646.869     2857.979     1084.070        2.094        0.279      188.920       35.677        0.036      334.190        3.997      848.179
02/28/2014  05:09:00      -49.510       73.638       11.387       46.251       50.327       33.763     2139.163     2532.797     1139.927        0.691        0.291       88.735       30.340        0.117      334.305        4.192      848.109
02/28/2014  05:10:00      -37.161      115.089       -4.025       51.203       50.883       38.115     2621.711     2589.059     1452.790        1.065        0.333      120.939       30.862        0.065      334.311        4.200      847.987
02/28/2014  05:11:00       86.403       65.401       26.397       82.564       44.759       44.073     6816.823     2003.327     1942.391        1.160        0.538      108.364       22.343        0.043      334.333        4.237      847.939
02/28/2014  05:12:00       79.199       82.969       -4.820       49.084       47.821       34.008     2409.255     2286.844     1156.519        0.951        0.293      114.702       23.119        0.041      334.260        4.116      847.952
02/28/2014  05:13:00       28.929      179.887      -29.930       37.382       52.429       26.970     1397.379     2748.805      727.374        1.948        0.244      182.198       23.960        0.017      334.212        4.034      847.895
02/28/2014  05:14:00       23.061      223.799      -40.245       36.378       51.319       24.347     1323.328     2633.660      592.793        2.839        0.227      224.984       22.272        0.010      334.244        4.084      847.823
02/28/2014  05:15:00      -35.572      200.053      -25.047       76.371       63.410       32.705     5832.551     4020.780     1069.602        2.642        0.546      203.191       32.433        0.025      334.295        4.171      847.754
02/28/2014  05:16:00      -52.899      171.411      -14.102       48.882       61.589       37.239     2389.496     3793.209     1386.759        1.997        0.378      179.388       37.720        0.044      334.578        4.641      847.685
02/28/2014  05:17:00       10.776      154.301      -18.227       41.737       42.191       31.906     1741.990     1780.096     1018.005        1.440        0.227      154.677       25.457        0.027      334.471        4.465      847.621
02/28/2014  05:18:00       31.353       75.223       -1.780       37.969       35.333       28.191     1441.617     1248.431      794.738        0.506        0.174       81.496       20.300        0.062      334.425        4.391      847.611
02/28/2014  05:19:00       58.351       65.663        6.554       45.166       35.899       29.799     2039.971     1288.749      887.984        0.599        0.211       87.843       21.804        0.062      334.391        4.334      847.611
02/28/2014  05:20:00       30.412       76.178       -4.060       23.026       43.023       22.706      530.213     1850.978      515.540        0.482        0.145       82.024       25.752        0.099      334.395        4.341      847.565
02/28/2014  05:21:00       55.434       55.463        5.454       44.254       31.789       26.484     1958.437     1010.511      701.405        0.492        0.184       78.416       21.214        0.073      334.422        4.385      847.512
02/28/2014  05:22:00       98.077       74.909        2.638       35.526       27.789       24.352     1262.131      772.226      593.023        0.893        0.131      123.412       14.446        0.014      334.404        4.356      847.455
02/28/2014  05:23:00      104.975       93.072        7.150       42.241       26.395       29.484     1784.293      696.714      869.327        1.154        0.168      140.293       15.523        0.012      334.344        4.254      847.418
02/28/2014  05:24:00       47.035      122.036      -15.270       48.615       67.076       34.036     2363.376     4499.150     1158.477        1.268        0.401      130.786       38.383        0.086      334.366        4.289      847.353
02/28/2014  05:25:00       26.717      216.803      -31.301       33.244       63.260       27.723     1105.147     4001.787      768.575        2.729        0.294      218.443       25.563        0.014      334.425        4.387      847.222
02/28/2014  05:26:00      -26.225      266.458      -38.791       57.374       60.873       33.221     3291.767     3705.479     1103.614        4.065        0.405      267.746       36.741        0.019      334.522        4.545      847.100
02/28/2014  05:27:00      -60.146      226.154      -21.940       37.678       84.856       26.217     1419.629     7200.625      687.327        3.227        0.465      234.016       32.116        0.019      334.621        4.710      846.973
02/28/2014  05:28:00      -84.514      168.939      -13.095       53.895       78.256       41.390     2904.724     6123.924     1713.151        2.330        0.537      188.900       34.105        0.033      334.789        4.989      846.942
02/28/2014  05:29:00        0.245      135.530       -2.884       58.866       92.412       44.557     3465.206     8539.961     1985.357        1.618        0.700      135.530       47.338        0.122      334.846        5.087      846.966
02/28/2014  05:30:00       66.291       90.339        6.984       61.250       84.505       43.559     3751.542     7141.047     1897.361        1.269        0.639      112.052       42.672        0.145      334.798        5.008      846.978
02/28/2014  05:31:00       43.264       15.450       17.030       39.756       59.584       44.023     1580.519     3550.308     1938.023        0.473        0.353       45.940       27.971        0.371      334.827        5.055      846.940
02/28/2014  05:32:00       54.453      -44.593       25.494       58.550       73.695       41.261     3428.079     5430.940     1702.498        0.808        0.528       70.382       43.539        0.383      334.785        4.988      846.908
02/28/2014  05:33:00       84.119      -95.560      -10.503       52.250       52.162       38.972     2730.107     2720.917     1518.793        1.164        0.348      127.310       44.218        0.121      334.873        5.134      846.908
02/28/2014  05:34:00       18.724      -74.873      -13.539       39.198       40.325       22.668     1536.453     1626.093      513.820        0.491        0.184       77.179       13.468        0.030      334.939        5.242      846.904
02/28/2014  05:35:00      -39.564      -29.510       -3.546       28.760       22.404       17.971      827.163      501.931      322.967        0.205        0.083       49.358       13.586        0.076      335.027        5.389      846.881
02/28/2014  05:36:00      -46.878      -17.253        7.390       40.893       24.713       25.123     1672.263      610.708      631.140        0.273        0.146       49.952       16.879        0.114      334.975        5.303      846.800
02/28/2014  05:37:00      -29.080      -38.082        9.859       33.733       37.377       22.209     1137.934     1397.005      493.237        0.271        0.151       47.915       19.371        0.163      334.897        5.172      846.698
02/28/2014  05:38:00      -52.510      -49.282       -2.001       47.887       27.418       25.224     2293.210      751.726      636.260        0.443        0.184       72.014       20.508        0.081      334.895        5.170      846.670
02/28/2014  05:39:00      -63.752      -72.787       -0.280       48.928       50.621       26.687     2393.901     2562.524      712.176        0.751        0.283       96.759       31.379        0.105      334.882        5.147      846.679
02/28/2014  05:40:00      -57.605     -105.503       -4.118       43.580       49.814       23.433     1899.228     2481.479      549.121        0.970        0.246      120.205       18.475        0.024      334.957        5.272      846.703
02/28/2014  05:41:00      -65.711      -98.292      -11.732       45.531       44.274       34.429     2073.066     1960.202     1185.382        0.967        0.261      118.234       16.654        0.020      334.990        5.328      846.731
02/28/2014  05:42:00      -18.457      -74.131        7.007       22.592       45.541       24.851      510.398     2073.978      617.592        0.454        0.160       76.394       19.378        0.064      335.093        5.499      846.796
02/28/2014  05:43:00      -59.262      -93.652        7.017       45.435       35.161       28.100     2064.330     1236.279      789.632        0.821        0.205      110.828       21.085        0.036      335.115        5.537      846.891
02/28/2014  05:44:00      -67.061      -66.399        0.594       43.413       41.732       28.412     1884.647     1741.559      807.250        0.667        0.222       94.372       20.080        0.045      335.173        5.631      846.941
02/28/2014  05:45:00      -54.560      -57.883        9.081       45.723       47.327       31.319     2090.579     2239.884      980.858        0.586        0.266       79.543       29.339        0.136      335.222        5.710      846.994
02/28/2014  05:46:00      -74.151     -162.134       -9.731       56.617       49.120       33.895     3205.450     2412.780     1148.901        1.932        0.338      178.286       20.043        0.013      335.350        5.924      847.059
02/28/2014  05:47:00      -46.046     -160.962       -1.510       77.720       88.352       49.411     6040.408     7806.156     2441.446        2.216        0.814      167.419       49.398        0.087      335.190        5.658      847.101
02/28/2014  05:48:00     -152.315     -124.331       -0.410      120.489       69.938       46.585    14517.494     4891.346     2170.159        3.011        1.079      196.616       47.255        0.058      334.834        5.065      847.114
02/28/2014  05:49:00     -169.905     -121.881        3.171       78.899       72.855       47.152     6224.978     5307.851     2223.328        2.874        0.688      209.100       38.797        0.034      334.694        4.831      847.080
02/28/2014  05:50:00      -78.226      -62.183       32.218       81.652       53.288       36.492     6667.075     2839.568     1331.663        1.093        0.542       99.930       41.716        0.174      334.709        4.860      847.051
02/28/2014  05:51:00      -78.050     -119.413        8.280       55.544       74.468       33.543     3085.087     5545.417     1125.124        1.509        0.488      142.658       32.243        0.051      334.599        4.676      847.042
02/28/2014  05:52:00     -135.638     -156.878       -3.253       79.742       91.470       40.583     6358.784     8366.710     1646.964        2.969        0.819      207.385       44.303        0.046      334.495        4.502      847.079
02/28/2014  05:53:00      -63.314      -68.566        8.272       60.422       48.435       28.621     3650.769     2345.953      819.149        0.780        0.341       93.328       26.483        0.081      334.596        4.672      847.122
02/28/2014  05:54:00      -12.799      -48.428       -3.239       29.299       50.983       27.289      858.425     2599.286      744.666        0.336        0.210       50.091       10.953        0.048      334.760        4.946      847.184
02/28/2014  05:55:00       -6.863      -21.020       11.935       23.124       24.317       13.060      534.735      591.296      170.572        0.096        0.065       22.112        3.273        0.022      334.815        5.038      847.160
02/28/2014  05:56:00     -120.610      -95.169       -3.769       53.195       48.277       32.522     2829.667     2330.688     1057.695        1.492        0.311      153.636       22.093        0.021      334.697        4.839      847.086
02/28/2014  05:57:00     -167.147     -136.052      -12.736       66.624       55.684       30.648     4438.797     3100.738      939.305        2.754        0.424      215.518       20.479        0.009      334.570        4.625      846.995
02/28/2014  05:58:00      -41.595      -31.291       11.508       48.807       41.667       29.957     2382.172     1736.161      897.396        0.393        0.251       52.051       31.655        0.370      334.648        4.759      846.969
02/28/2014  05:59:00     -159.749      -88.558      -11.789       66.725       61.276       30.617     4452.282     3754.709      937.401        2.132        0.457      182.654       17.066        0.009      334.592        4.664      847.000
02/28/2014  06:00:00     -163.914      -70.654       -5.242       75.382       55.743       37.300     5682.399     3107.326     1391.289        2.103        0.509      178.493       38.869        0.047      334.566        4.620      847.020
02/28/2014  06:01:00     -107.205      -57.363      -13.742       39.086       50.573       28.760     1527.699     2557.666      827.136        0.994        0.246      121.587       31.938        0.069      334.567        4.625      847.026
02/28/2014  06:02:00      -83.469       -5.212       -4.142       28.116       19.927       18.201      790.491      397.076      331.262        0.426        0.076       83.632       16.601        0.039      334.585        4.655      847.009
02/28/2014  06:03:00     -112.445      -43.073        0.178       68.457       47.737       24.667     4686.383     2278.790      608.466        1.103        0.379      120.412       25.211        0.044      334.610        4.696      847.013
02/28/2014  06:04:00      -65.781      -53.164       -0.190       43.046       31.198       24.992     1852.948      973.331      624.606        0.530        0.173       84.578       24.776        0.086      334.643        4.749      847.057
02/28/2014  06:05:00     -121.931      -42.202        1.240       41.871       24.456       21.718     1753.193      598.100      471.689        0.974        0.141      129.028       22.539        0.031      334.568        4.625      847.068
02/28/2014  06:06:00     -100.697      -93.054       -8.537       67.051       52.571       38.248     4495.895     2763.712     1462.947        1.380        0.436      137.109       26.199        0.037      334.640        4.745      847.056
02/28/2014  06:07:00     -134.697     -138.255        0.751       71.362       64.515       36.074     5092.579     4162.168     1301.315        2.391        0.528      193.023       40.970        0.045      334.546        4.587      847.054
02/28/2014  06:08:00     -141.231     -121.847       -1.587       62.495       53.257       34.214     3905.665     2836.359     1170.632        2.135        0.396      186.529       36.270        0.038      334.588        4.656      847.064
02/28/2014  06:09:00     -100.493      -78.344        2.913       58.524       49.868       36.427     3425.086     2486.782     1326.890        1.174        0.362      127.423       33.758        0.070      334.553        4.602      847.084
02/28/2014  06:10:00      -65.031      -46.330        9.426       42.777       34.996       22.965     1829.855     1224.687      527.396        0.502        0.179       79.847       20.516        0.066      334.619        4.710      847.091
02/28/2014  06:11:00     -129.184      -79.502       -8.301       42.945       40.795       23.900     1844.302     1664.197      571.195        1.358        0.204      151.687       21.903        0.021      334.580        4.645      847.051
02/28/2014  06:12:00     -111.956      -70.781        5.843       53.209       40.309       30.532     2831.248     1624.784      932.208        1.148        0.269      132.454       30.003        0.051      334.612        4.699      847.019
02/28/2014  06:13:00     -108.017      -84.166        1.766       55.438       50.393       34.595     3073.363     2539.444     1196.840        1.278        0.340      136.936       36.044        0.069      334.604        4.685      847.026
02/28/2014  06:14:00     -107.985      -73.357        1.032       72.304       41.889       28.852     5227.812     1754.692      832.410        1.243        0.391      130.545       30.868        0.056      334.613        4.698      847.061
02/28/2014  06:15:00     -151.720     -100.573       -1.474       58.153       50.088       31.537     3381.739     2508.805      994.555        2.001        0.344      182.028       30.987        0.029      334.556        4.604      847.050
02/28/2014  06:16:00      -83.028     -113.718       -2.881       43.007       54.690       25.191     1849.569     2991.019      634.590        1.265        0.274      140.803       25.976        0.034      334.620        4.714      847.080
02/28/2014  06:17:00      -83.561      -94.403       -7.398       42.873       48.587       29.666     1838.104     2360.720      880.091        1.051        0.254      126.073       24.070        0.036      334.659        4.777      847.127
02/28/2014  06:18:00      -71.192     -131.489       -7.031       47.241       43.151       29.127     2231.728     1861.986      848.401        1.367        0.247      149.525       27.923        0.035      334.648        4.759      847.127
02/28/2014  06:19:00     -132.271      -43.773      -13.488       57.923       39.618       18.130     3355.057     1569.588      328.687        1.242        0.263      139.326       18.351        0.017      334.583        4.650      847.072
02/28/2014  06:20:00      -64.184      -58.320       -2.390       54.653       28.290       23.679     2986.990      800.310      560.702        0.594        0.217       86.722       26.755        0.095      334.626        4.725      847.017
02/28/2014  06:21:00      -56.880       10.948        0.371       38.362       24.994       17.089     1471.681      624.691      292.031        0.287        0.119       57.924       21.533        0.138      334.605        4.688      846.977
02/28/2014  06:22:00      -22.537       23.073       -8.205       31.670       20.053        9.954     1002.986      402.113       99.079        0.131        0.075       32.254        6.739        0.044      334.540        4.580      846.926
02/28/2014  06:23:00      -63.549       12.096       -3.558       30.238       11.726       13.855      914.353      137.501      191.949        0.272        0.062       64.690       15.937        0.061      334.545        4.586      846.918
02/28/2014  06:24:00      -60.193        8.777       -9.281       18.977       25.632       14.860      360.135      657.021      220.813        0.251        0.062       60.830        7.783        0.016      334.504        4.519      846.965
02/28/2014  06:25:00      -49.576        5.345       -7.516       20.009       18.651       17.226      400.369      347.871      296.730        0.179        0.052       49.863       11.829        0.056      334.517        4.543      847.000
02/28/2014  06:26:00      -57.190       27.099       -4.960       11.626       20.159       11.698      135.173      406.374      136.840        0.235        0.034       63.286        4.706        0.006      334.535        4.570      846.972
02/28/2014  06:27:00      -31.680       18.746       -2.622       15.307       19.512       12.016      234.319      380.713      144.380        0.106        0.038       36.811        9.318        0.064      334.560        4.611      846.940
02/28/2014  06:28:00      -25.820       15.609       -4.914       10.912       11.790       14.712      119.077      139.005      216.451        0.070        0.024       30.171        8.765        0.084      334.563        4.617      846.966
02/28/2014  06:29:00       -2.478       -0.460        6.761        8.237       12.507        9.488       67.854      156.434       90.024        0.018        0.016        2.520        9.444       14.044      334.614        4.703      847.013
02/28/2014  06:30:00       25.063       26.063       41.564       20.553       21.034       13.071      422.435      442.432      170.854        0.204        0.052       36.158        7.143        0.039      334.692        4.833      846.999
02/28/2014  06:31:00       65.643       61.065       28.120       32.083       20.396       24.961     1029.297      415.992      623.039        0.545        0.103       89.655       17.071        0.036      334.610        4.695      846.962
02/28/2014  06:32:00      138.593       76.363       -6.554       29.502       24.565       26.252      870.349      603.442      689.177        1.362        0.108      158.238       12.312        0.006      334.553        4.600      846.923
02/28/2014  06:33:00      163.477       91.078       -1.615       36.837       24.681       30.319     1356.941      609.135      919.224        1.895        0.144      187.136       16.315        0.008      334.567        4.623      846.932
02/28/2014  06:34:00      110.660       70.441        1.929       54.345       41.014       29.432     2953.344     1682.185      866.258        1.136        0.275      131.178       21.421        0.027      334.541        4.581      846.942
02/28/2014  06:35:00      135.961      104.976       14.629       60.593       43.920       36.198     3671.557     1928.938     1310.314        1.831        0.346      171.771       22.565        0.017      334.508        4.525      846.907
02/28/2014  06:36:00      176.640      104.416       18.088       46.883       31.411       32.338     2198.059      986.669     1045.774        2.333        0.212      205.193       16.287        0.006      334.459        4.442      846.920
02/28/2014  06:37:00      150.336       84.733        7.547       49.296       36.848       31.855     2430.097     1357.759     1014.751        1.732        0.240      172.571       27.075        0.025      334.459        4.444      846.967
02/28/2014  06:38:00      125.221       86.242       16.477       37.682       37.616       31.173     1419.907     1414.964      971.768        1.360        0.190      152.046       23.960        0.025      334.469        4.461      846.947
02/28/2014  06:39:00       62.266       55.249        7.284       41.835       28.380       26.590     1750.182      805.441      707.033        0.512        0.163       83.243       13.334        0.026      334.499        4.511      846.902
02/28/2014  06:40:00       51.899       47.658       -9.240       33.520       30.163       24.657     1123.583      909.789      607.977        0.385        0.132       70.461        5.469        0.006      334.480        4.481      846.859
02/28/2014  06:41:00       14.884       18.875        0.912       30.910       22.007       21.105      955.408      484.293      445.403        0.123        0.094       24.038       11.003        0.210      334.497        4.509      846.880
02/28/2014  06:42:00        3.994        4.239        4.754       15.467       14.344       10.463      239.228      205.760      109.469        0.031        0.028        5.825        5.881        1.019      334.594        4.668      846.898
02/28/2014  06:43:00      -33.738      -16.234        5.542       24.946       20.163       15.216      622.325      406.547      231.523        0.135        0.063       37.441       13.199        0.124      334.721        4.882      846.889
02/28/2014  06:44:00       -0.842       11.002       22.398       12.833       12.261       19.551      164.677      150.342      382.229        0.066        0.035       11.034       10.084        0.835      334.710        4.861      846.881
02/28/2014  06:45:00       -3.540       32.092       59.407       12.307       23.203       26.631      151.469      538.378      709.190        0.299        0.070       32.286       17.196        0.284      334.787        4.990      846.872
02/28/2014  06:46:00        1.223       45.771       68.527       20.390       41.887       23.508      415.733     1754.506      552.622        0.476        0.136       45.787       21.198        0.214      334.811        5.029      846.872
02/28/2014  06:47:00       63.898      -49.945       46.036      102.405      135.072       79.557    10486.769    18244.496     6329.246        2.187        1.753       81.102      107.904        1.770      334.847        5.089      846.886
02/28/2014  06:48:00      132.789      -77.948        2.916       62.978       95.125       48.951     3966.273     9048.700     2396.218        1.956        0.771      153.977       58.010        0.142      334.842        5.079      846.840
02/28/2014  06:49:00      105.959      -86.573        1.895       39.753       47.613       30.057     1580.288     2266.968      903.452        1.174        0.238      136.829       24.814        0.033      334.793        5.000      846.758
02/28/2014  06:50:00       47.822       13.064       33.635       51.889       36.661       28.070     2692.449     1344.018      787.911        0.421        0.241       49.574       24.125        0.237      334.820        5.043      846.647
02/28/2014  06:51:00       38.776       16.319        8.070       21.041       12.441       20.983      442.705      154.776      440.302        0.144        0.052       42.070        5.336        0.016      334.780        4.979      846.574
02/28/2014  06:52:00       27.316      -15.219       -3.834       20.040       35.572       18.800      401.621     1265.358      353.448        0.151        0.101       31.270       10.973        0.123      334.898        5.175      846.545
02/28/2014  06:53:00       16.530      -57.760       -1.475       19.985       26.826       17.650      399.402      719.641      311.536        0.252        0.072       60.079       16.006        0.071      334.935        5.236      846.520
02/28/2014  06:54:00       10.533      -50.198       -5.135       49.593       27.407       22.942     2459.430      751.122      526.358        0.320        0.187       51.291       14.191        0.077      335.096        5.504      846.477
02/28/2014  06:55:00      -24.681      -22.976       13.197       39.688       41.972       22.798     1575.102     1761.650      519.743        0.258        0.193       33.720       18.206        0.292      334.983        5.316      846.405
02/28/2014  06:56:00        4.600      -26.201       19.832       27.653       55.755       38.026      764.678     3108.617     1445.997        0.321        0.266       26.602       28.762        1.169      335.010        5.360      846.371
02/28/2014  06:57:00       -2.080      -67.072        5.606       68.988       45.983       30.728     4759.310     2114.441      944.184        0.617        0.391       67.104       14.537        0.047      335.085        5.485      846.377
02/28/2014  06:58:00      -48.884      -95.353       -8.402       42.488       38.216       23.792     1805.242     1460.478      566.072        0.769        0.192      107.153       16.112        0.023      335.007        5.357      846.338
02/28/2014  06:59:00      -80.904      -22.090        8.322       63.396       32.232       32.986     4019.054     1038.922     1088.061        0.662        0.307       83.866       28.212        0.113      334.847        5.090      846.291
02/28/2014  07:00:00      -62.148      -54.912       -9.576       51.920       43.778       31.037     2695.678     1916.557      963.271        0.627        0.279       82.932       30.086        0.132      334.852        5.098      846.268
02/28/2014  07:01:00      -39.872       13.293       21.429       38.939       31.797       30.070     1516.252     1011.023      904.176        0.283        0.172       42.029       33.806        0.647      334.872        5.131      846.241
02/28/2014  07:02:00       -3.463       43.632       30.886       21.329       26.925       24.490      454.917      724.940      599.748        0.232        0.089       43.769        6.014        0.019      334.818        5.041      846.229
02/28/2014  07:03:00      -34.947       22.709       -4.946       19.194       27.649       11.900      368.413      764.472      141.616        0.152        0.064       41.677        8.013        0.037      334.789        4.994      846.263
02/28/2014  07:04:00      -10.819       30.657       27.279       16.660       26.331       26.790      277.563      693.312      717.722        0.174        0.084       32.509       21.437        0.435      334.836        5.072      846.343
02/28/2014  07:05:00       31.118       13.333       31.634       40.912       36.335       34.145     1673.790     1320.254     1165.890        0.315        0.208       33.854       31.375        0.859      334.901        5.178      846.411
02/28/2014  07:06:00       58.922      101.154       81.540       54.265       33.215       44.638     2944.639     1103.216     1992.510        1.320        0.302      117.064       38.912        0.110      334.867        5.122      846.439
02/28/2014  07:07:00       94.979       95.757       52.879       44.111       38.679       34.156     1945.813     1496.099     1166.605        1.280        0.230      134.872       21.999        0.027      334.793        4.999      846.457
02/28/2014  07:08:00      100.650       76.576       60.151       52.700       43.774       57.796     2777.313     1916.122     3340.341        1.382        0.402      126.469       39.182        0.096      334.693        4.833      846.467
02/28/2014  07:09:00      103.737       70.072       57.956       56.878       51.760       43.957     3235.144     2679.047     1932.239        1.344        0.392      125.186       38.162        0.093      334.667        4.789      846.483
02/28/2014  07:10:00       81.527       54.597       75.704       64.219       42.408       37.699     4124.070     1798.480     1421.229        1.135        0.367       98.120       36.135        0.136      334.696        4.837      846.495
02/28/2014  07:11:00       97.400       60.352       58.065       59.816       60.486       46.383     3577.964     3658.605     2151.353        1.294        0.469      114.582       46.714        0.166      334.703        4.850      846.507
02/28/2014  07:12:00       89.699       61.301       42.143       58.636       52.837       54.385     3438.174     2791.789     2957.781        1.138        0.459      108.645       41.530        0.146      334.673        4.799      846.524
02/28/2014  07:13:00       82.278       38.137       28.370       52.322       40.038       40.567     2737.543     1603.042     1645.722        0.751        0.299       90.687       29.087        0.103      334.654        4.768      846.547
02/28/2014  07:14:00       60.529       72.902       71.457       55.040       35.456       26.874     3029.368     1257.162      722.229        0.955        0.250       94.754       20.962        0.049      334.698        4.841      846.539
02/28/2014  07:15:00       66.455       58.025       28.544       17.424       20.562       23.498      303.612      422.793      552.151        0.494        0.064       88.222        8.003        0.008      334.690        4.829      846.519
02/28/2014  07:16:00       70.627       60.441       42.261       32.997       25.630       30.509     1088.805      656.888      930.821        0.655        0.134       92.958       20.879        0.050      334.723        4.885      846.516
02/28/2014  07:17:00       41.966       18.903       33.482       24.622       19.907       16.865      606.252      396.279      284.429        0.226        0.064       46.027       13.238        0.083      334.686        4.824      846.522
02/28/2014  07:18:00       65.091       49.451       28.109       32.872       16.953       21.320     1080.583      287.392      454.531        0.465        0.091       81.745       15.843        0.038      334.651        4.764      846.488
02/28/2014  07:19:00       62.953       53.757       13.259       20.956       12.381       20.195      439.163      153.286      407.848        0.401        0.050       82.782        8.994        0.012      334.615        4.702      846.447
02/28/2014  07:20:00       46.093       38.485       10.089       15.978       16.943       13.047      255.303      287.056      170.228        0.221        0.036       60.047        8.310        0.019      334.652        4.767      846.392
02/28/2014  07:21:00       -0.078       81.221      -11.580       28.508       51.662       17.966      812.732     2668.950      322.778        0.527        0.190       81.221       27.718        0.116      334.626        4.723      846.370
02/28/2014  07:22:00      -40.928       92.554       -9.764       23.180       38.574       20.535      537.304     1487.980      421.671        0.639        0.122      101.200       15.990        0.025      334.773        4.966      846.331
02/28/2014  07:23:00      -75.142       40.178      -13.004       18.356       17.487       15.460      336.945      305.793      239.001        0.416        0.044       85.209       10.972        0.017      334.669        4.796      846.338
02/28/2014  07:24:00      -48.264       97.576      -16.914       28.564       36.558       19.259      815.904     1336.462      370.892        0.733        0.126      108.860       15.791        0.021      334.743        4.916      846.338
02/28/2014  07:25:00      -61.336       37.236      -13.503       24.250       38.803       19.015      588.081     1505.695      361.563        0.389        0.123       71.754       23.758        0.110      334.647        4.755      846.377
02/28/2014  07:26:00      -81.969        6.330      -10.483       33.575       17.190       11.196     1127.261      295.505      125.342        0.421        0.077       82.213       11.388        0.019      334.704        4.854      846.437
02/28/2014  07:27:00     -109.313        2.894       -8.191       24.438       21.770       19.038      597.218      473.955      362.432        0.673        0.072      109.352       17.292        0.025      334.686        4.821      846.455
02/28/2014  07:28:00     -120.908      -10.252      -16.240       25.918       18.341       17.354      671.750      336.388      301.164        0.815        0.065      121.342       14.464        0.014      334.764        4.952      846.461
02/28/2014  07:29:00     -110.260      -12.941       -7.948       27.022       27.567       14.466      730.214      759.927      209.272        0.704        0.085      111.017       13.350        0.014      334.793        5.000      846.460
02/28/2014  07:30:00     -119.021       45.022      -20.253       26.173       23.400       20.029      685.034      547.571      401.156        0.912        0.082      127.252        8.996        0.005      334.770        4.961      846.445
02/28/2014  07:31:00     -114.005        5.186       -8.120       80.470       50.949       40.773     6475.491     2595.767     1662.421        1.191        0.537      114.123       36.263        0.101      334.878        5.139      846.388
02/28/2014  07:32:00      -32.017      -43.978       23.471      118.783       79.432       46.228    14109.444     6309.419     2136.993        1.303        1.128       54.398       49.418        0.825      335.053        5.432      846.357
02/28/2014  07:33:00      -66.742      -82.776       -1.561      103.083       71.548       49.467    10626.148     5119.088     2446.949        1.475        0.910      106.332       43.190        0.165      335.127        5.554      846.381
02/28/2014  07:34:00       38.052      -65.889        7.732       44.175       78.492       54.455     1951.467     6161.006     2965.363        0.846        0.554       76.087       56.533        0.552      335.124        5.550      846.405
02/28/2014  07:35:00       60.883       78.137       48.743       52.796       54.134       55.415     2787.390     2930.506     3070.774        1.049        0.439       99.056       48.315        0.238      334.936        5.237      846.421
02/28/2014  07:36:00       41.698      -47.561       -3.456       37.779       36.694       22.397     1427.280     1346.472      501.621        0.364        0.164       63.252       18.344        0.084      335.021        5.378      846.490
02/28/2014  07:37:00       -2.470      -27.669       -3.922       42.065       29.133       21.862     1769.486      848.705      477.957        0.194        0.155       27.779       18.029        0.421      335.063        5.450      846.550
02/28/2014  07:38:00       -6.644      -17.167        4.677       20.774       12.206       13.208      431.569      148.977      174.463        0.056        0.038       18.408       11.801        0.411      335.127        5.555      846.553
02/28/2014  07:39:00       14.846      -17.135       15.388       42.555       33.037       24.369     1810.925     1091.435      593.828        0.212        0.175       22.672       23.005        1.030      335.207        5.686      846.542
02/28/2014  07:40:00       21.348       -5.922       40.457       27.538       58.847       26.158      758.356     3462.986      684.262        0.352        0.245       22.154       31.777        2.057      335.079        5.474      846.538
02/28/2014  07:41:00       46.136       62.406       66.464       58.292       53.375       47.470     3397.956     2848.938     2253.429        0.947        0.425       77.609       46.873        0.365      335.027        5.390      846.511
02/28/2014  07:42:00      127.876       92.038       32.386       63.118       58.411       53.995     3983.881     3411.872     2915.483        1.809        0.516      157.554       40.540        0.066      334.783        4.982      846.501
02/28/2014  07:43:00      107.097       77.601       72.440       63.435       46.324       40.805     4023.949     2145.939     1665.012        1.529        0.392      132.257       36.453        0.076      334.835        5.068      846.548
02/28/2014  07:44:00       79.905       39.350       38.149       60.183       44.236       38.103     3622.043     1956.837     1451.869        0.821        0.352       89.068       33.107        0.138      334.857        5.105      846.617
02/28/2014  07:45:00       76.892       83.004       74.041       64.988       49.600       43.700     4223.482     2460.206     1909.657        1.344        0.430      113.146       37.377        0.109      334.911        5.194      846.668
02/28/2014  07:46:00      126.945       67.185       59.674       68.441       59.826       49.778     4684.121     3579.143     2477.832        1.746        0.537      143.628       39.014        0.074      334.818        5.039      846.659
02/28/2014  07:47:00      126.096       55.487       34.451       49.549       42.742       36.080     2455.110     1826.890     1301.730        1.287        0.279      137.764       25.064        0.033      334.817        5.039      846.651
02/28/2014  07:48:00       87.129       42.682       19.329       54.798       40.075       34.265     3002.850     1606.001     1174.065        0.778        0.289       97.022       26.151        0.073      334.817        5.039      846.662
02/28/2014  07:49:00       72.876       52.200       24.860       30.167       27.726       30.047      910.025      768.704      902.840        0.562        0.129       89.642       17.372        0.038      334.904        5.183      846.680
02/28/2014  07:50:00       96.860       63.005       38.424       37.285       25.168       28.559     1390.150      633.411      815.638        0.883        0.142      115.548       24.518        0.045      334.924        5.218      846.695
02/28/2014  07:51:00       96.092       57.523       21.463       60.176       42.470       38.194     3621.123     1803.697     1458.766        0.994        0.344      111.994       37.448        0.112      334.844        5.085      846.691
02/28/2014  07:52:00      137.454       81.771       11.999       41.586       36.518       30.708     1729.382     1333.533      942.952        1.486        0.200      159.938       20.674        0.017      334.824        5.051      846.680
02/28/2014  07:53:00      109.760       66.753       44.372       46.861       31.900       35.598     2195.944     1017.631     1267.224        1.148        0.224      128.465       19.870        0.024      334.856        5.104      846.700
02/28/2014  07:54:00       94.295       67.988       54.695       38.919       29.066       32.836     1514.690      844.814     1078.181        0.997        0.172      116.249       23.315        0.040      334.944        5.252      846.732
02/28/2014  07:55:00       76.998       67.064       45.692       61.921       36.841       35.732     3834.225     1357.260     1276.792        0.949        0.323      102.109       23.413        0.053      334.993        5.333      846.757
02/28/2014  07:56:00       89.697       43.993       55.807       67.514       54.732       49.804     4558.151     2995.561     2480.420        1.156        0.502       99.905       36.073        0.130      334.985        5.319      846.773
02/28/2014  07:57:00      127.040       84.641       70.232       76.067       50.797       47.292     5786.138     2580.357     2236.579        1.942        0.530      152.654       30.791        0.041      334.938        5.238      846.776
02/28/2014  07:58:00      110.937       74.362       66.023       58.675       64.712       58.779     3442.726     4187.593     3454.929        1.664        0.554      133.555       29.286        0.048      334.895        5.169      846.781
02/28/2014  07:59:00       84.481       79.118       60.540       60.453       60.821       54.083     3654.567     3699.135     2924.976        1.367        0.514      115.744       44.805        0.150      334.924        5.218      846.766
02/28/2014  08:00:00       94.959       55.186       53.303       53.013       55.812       52.541     2810.326     3115.000     2760.599        1.179        0.434      109.830       38.034        0.120      334.921        5.211      846.756
02/28/2014  08:01:00       95.554       33.976       11.735       47.616       37.916       35.631     2267.327     1437.603     1269.550        0.770        0.249      101.415       28.700        0.080      334.917        5.206      846.750
02/28/2014  08:02:00       96.059       11.231        8.045       36.233       37.751       27.462     1312.805     1425.163      754.166        0.645        0.175       96.713       18.956        0.038      334.921        5.212      846.737
02/28/2014  08:03:00       51.910       40.685       17.080       21.375       21.202       19.775      456.910      449.506      391.045        0.297        0.065       65.953        9.848        0.022      334.947        5.255      846.760
02/28/2014  08:04:00       61.799       40.987       36.457       57.237       33.592       34.770     3276.033     1128.413     1208.933        0.622        0.281       74.155       34.136        0.212      335.059        5.443      846.788
02/28/2014  08:05:00      138.605       87.161       46.436       72.519       58.863       58.084     5259.051     3464.860     3373.700        2.053        0.605      163.732       47.221        0.083      335.003        5.347      846.791
02/28/2014  08:06:00      104.932       70.646       58.315       63.991       59.727       51.789     4094.833     3567.327     2682.083        1.487        0.517      126.498       34.014        0.072      335.006        5.354      846.773
02/28/2014  08:07:00      109.500       55.227       49.602       56.825       36.046       39.336     3229.107     1299.340     1547.347        1.179        0.304      122.639       31.866        0.068      335.026        5.387      846.767
02/28/2014  08:08:00       50.602       13.779       46.310       46.832       62.446       34.209     2193.238     3899.532     1170.223        0.608        0.363       52.445       34.087        0.422      335.141        5.580      846.785
02/28/2014  08:09:00       89.671       11.459       39.909       45.570       65.599       45.655     2076.615     4303.254     2084.356        0.911        0.423       90.400       40.664        0.202      335.116        5.537      846.820
02/28/2014  08:10:00       19.907       -2.169       60.412       38.262       58.748       33.001     1463.951     3451.320     1089.049        0.503        0.300       20.025       27.839        1.933      335.256        5.769      846.867
02/28/2014  08:11:00       74.927      -80.506       21.300       69.632       75.936       58.205     4848.548     5766.282     3387.826        1.327        0.700      109.979       52.318        0.226      335.259        5.773      846.909
02/28/2014  08:12:00       64.282      -85.952       18.862       65.195       96.793       56.274     4250.445     9368.826     3166.798        1.433        0.839      107.331       60.879        0.322      335.312        5.860      846.933
02/28/2014  08:13:00       68.772      -34.956       78.793      108.587      133.342       71.401    11791.162    17780.064     5098.040        2.341        1.733       77.146       79.730        1.068      335.322        5.878      846.941
02/28/2014  08:14:00       73.365       -0.680      120.171      130.437      213.278      133.557    17013.907    45487.693    17837.468        5.007        4.017       73.368      167.271        5.198      335.206        5.683      846.951
02/28/2014  08:15:00      101.781     -175.071        5.172      117.115      134.256       79.932    13715.858    18024.752     6389.140        3.958        1.906      202.507       87.619        0.187      335.144        5.582      847.004
02/28/2014  08:16:00      228.236     -304.603        7.910      134.135      200.847      100.938    17992.093    40339.570    10188.442       10.672        3.426      380.624      132.454        0.121      334.977        5.304      847.069
02/28/2014  08:17:00      146.418     -125.105       19.467      111.910      138.531       86.287    12523.790    19190.875     7445.478        3.831        1.958      192.586      101.481        0.278      334.934        5.233      847.103
02/28/2014  08:18:00      143.620     -146.149       41.681      164.092      168.911       87.927    26926.271    28530.907     7731.075        5.344        3.159      204.905      109.654        0.286      334.919        5.208      847.150
02/28/2014  08:19:00       64.095      -83.769       45.144      113.785      168.191       86.219    12947.069    28288.323     7433.665        3.091        2.433      105.477       98.499        0.872      334.926        5.220      847.213
02/28/2014  08:20:00       35.884      -68.285       73.505       88.817      139.558       95.199     7888.469    19476.508     9062.846        2.388        1.821       77.139       98.713        1.638      334.850        5.094      847.283
02/28/2014  08:21:00       12.884      -70.717       36.752       81.399       85.590       55.142     6625.747     7325.672     3040.641        1.175        0.850       71.881       55.672        0.600      334.926        5.219      847.353
02/28/2014  08:22:00      139.917     -114.419       48.247      113.424      135.196       89.222    12865.096    18277.972     7960.626        3.704        1.955      180.744       75.203        0.173      334.771        4.960      847.414
02/28/2014  08:23:00       86.501      -71.478       41.957      124.020      123.944       87.588    15380.899    15362.169     7671.627        2.638        1.921      112.212       90.896        0.656      334.746        4.920      847.432
02/28/2014  08:24:00      104.576     -286.214      -19.251      157.556      159.005       92.396    24823.929    25282.589     8537.047        7.592        2.932      304.720      101.799        0.112      334.800        5.010      847.448
02/28/2014  08:25:00      104.270     -198.381        7.141      112.684       93.592       66.422    12697.664     8759.399     4411.822        3.807        1.293      224.115       51.686        0.053      334.781        4.976      847.451
02/28/2014  08:26:00       63.313     -108.526       28.505       93.696      145.521       92.190     8778.885    21176.446     8498.964        2.752        1.923      125.644      102.055        0.660      334.776        4.970      847.449
02/28/2014  08:27:00       82.618     -149.965       21.835      157.456      121.541       66.970    24792.310    14772.157     4485.041        3.691        2.202      171.217       81.354        0.226      334.696        4.838      847.449
02/28/2014  08:28:00      -18.094      -65.921       33.452       65.237       82.631       44.474     4255.912     6827.863     1977.915        0.942        0.653       68.359       23.650        0.120      334.784        4.985      847.447
02/28/2014  08:29:00       48.390       -4.453       61.185       75.389      102.844       66.799     5683.565    10576.898     4462.078        1.341        1.036       48.594       66.874        1.894      334.747        4.923      847.444
02/28/2014  08:30:00       41.908      -49.419       50.302      108.680       90.964       65.062    11811.429     8274.376     4233.031        1.552        1.216       64.796       60.446        0.870      334.694        4.835      847.431
02/28/2014  08:31:00       86.562     -132.549        6.132       81.276      102.572       63.107     6605.803    10521.079     3982.457        2.310        1.055      158.311       48.418        0.094      334.789        4.991      847.434
02/28/2014  08:32:00       52.635      -65.524       58.452       87.224      109.219       68.515     7608.064    11928.832     4694.283        1.735        1.212       84.047       78.400        0.870      334.722        4.881      847.428
02/28/2014  08:33:00      107.863     -149.074        5.400      107.955      129.798       69.809    11654.290    16847.606     4873.280        3.362        1.669      184.004       81.185        0.195      334.639        4.741      847.507
02/28/2014  08:34:00      120.564     -230.881       -6.133      108.533       94.871       61.377    11779.306     9000.585     3767.162        4.621        1.227      260.464       52.364        0.040      334.706        4.852      847.597
02/28/2014  08:35:00       80.998     -140.565       18.930      141.630      149.417      111.195    20059.169    22325.399    12364.335        4.070        2.737      162.232      105.218        0.421      334.578        4.638      847.654
02/28/2014  08:36:00        9.967     -112.373       -0.927       57.878       98.106       52.252     3349.855     9624.839     2730.294        1.421        0.785      112.814       43.826        0.151      334.721        4.878      847.705
02/28/2014  08:37:00       43.966     -107.770        7.141       89.990       77.359       40.599     8098.140     5984.480     1648.307        1.466        0.787      116.393       36.228        0.097      334.682        4.815      847.739
02/28/2014  08:38:00      113.153     -102.364       11.285       84.822       85.269       58.736     7194.833     7270.836     3449.884        2.066        0.896      152.585       63.459        0.173      334.687        4.822      847.767
02/28/2014  08:39:00      145.523     -141.182       38.308      126.648      134.307       80.412    16039.605    18038.453     6466.063        4.155        2.027      202.755       98.939        0.238      334.542        4.581      847.837
02/28/2014  08:40:00       84.216     -175.223       12.174      126.289      120.915       56.279    15949.004    14620.389     3167.300        3.583        1.687      194.411       72.257        0.138      334.584        4.649      847.930
02/28/2014  08:41:00       31.332     -145.404       13.304       80.634       94.661       72.723     6501.899     8960.782     5288.680        2.152        1.038      148.741       62.105        0.174      334.603        4.682      848.002
02/28/2014  08:42:00       71.741      -98.127       -0.367       59.186       43.634       44.950     3502.937     1903.942     2020.525        1.110        0.371      121.555       36.420        0.090      334.655        4.771      848.098
02/28/2014  08:43:00       94.260     -144.192       -7.419       86.964       86.311       56.833     7562.736     7449.567     3229.998        2.398        0.912      172.268       47.905        0.077      334.591        4.663      848.160
02/28/2014  08:44:00       85.404     -178.906      -12.175       61.259       68.766       39.411     3752.644     4728.772     1553.200        2.474        0.502      198.246       30.091        0.023      334.617        4.705      848.227
02/28/2014  08:45:00       87.227     -128.858       10.688       90.602      135.607       45.679     8208.780    18389.246     2086.528        2.650        1.434      155.605       70.694        0.206      334.547        4.588      848.306
02/28/2014  08:46:00       28.302       57.903      126.063       90.738      127.677       87.492     8233.443    16301.466     7654.847        2.611        1.609       64.450       77.265        1.437      334.416        4.374      848.348
02/28/2014  08:47:00       38.472      -50.011       82.405       90.675      167.337      126.549     8221.891    28001.583    16014.652        3.149        2.612       63.097      129.051        4.183      334.369        4.294      848.416
02/28/2014  08:48:00      121.578     -171.151       42.787      147.555      137.789       99.121    21772.366    18985.689     9825.008        4.823        2.529      209.938       91.598        0.190      334.380        4.310      848.510
02/28/2014  08:49:00       41.431      -49.748       57.019      119.424      112.962       61.316    14262.205    12760.382     3759.595        1.911        1.539       64.741       66.410        1.052      334.565        4.621      848.629
02/28/2014  08:50:00       61.301     -100.620       81.075      172.294      155.175      104.161    29685.247    24079.176    10849.608        4.252        3.231      117.822      106.370        0.815      334.237        4.075      848.650
02/28/2014  08:51:00       88.735      -40.729       51.076      116.550      113.651       83.946    13583.810    12916.599     7046.896        2.284        1.677       97.636       83.970        0.740      334.218        4.045      848.712
02/28/2014  08:52:00       89.959      -50.476       74.261       83.578      139.657       90.003     6985.201    19504.002     8100.487        2.537        1.729      103.153       84.853        0.677      334.167        3.957      848.724
02/28/2014  08:53:00       12.058      -41.930       89.720       92.709      151.266      117.823     8594.966    22881.384    13882.351        2.765        2.268       43.630      105.461        5.843      334.152        3.932      848.741
02/28/2014  08:54:00       41.394     -122.846       50.079       89.847      107.729       78.954     8072.491    11605.578     6233.692        2.261        1.296      129.633       53.327        0.169      334.225        4.054      848.786
02/28/2014  08:55:00       83.186      -35.396       54.549      127.376      160.146      102.242    16224.652    25646.842    10453.472        3.173        2.616       90.404      120.277        1.770      334.152        3.935      848.832
02/28/2014  08:56:00      153.254     -100.148       32.216      113.497      140.792       72.053    12881.528    19822.388     5191.651        3.622        1.895      183.074       91.267        0.249      334.099        3.846      848.873
02/28/2014  08:57:00      160.806     -154.063      -34.711       78.978      107.879       44.401     6237.600    11637.798     1971.459        3.532        0.992      222.697       39.383        0.031      334.131        3.897      848.895
02/28/2014  08:58:00       45.843      -19.599       77.251       79.168      114.974       69.016     6267.516    13219.118     4763.256        1.635        1.212       49.857       74.240        2.217      334.130        3.896      848.894
02/28/2014  08:59:00      109.966     -106.313       30.008       85.271      101.791       63.657     7271.142    10361.487     4052.260        2.299        1.084      152.954       50.159        0.108      334.073        3.802      848.883
02/28/2014  09:00:00      110.236     -136.841      -21.948      115.266      119.330       64.040    13286.341    14239.710     4101.128        3.149        1.581      175.719       66.565        0.144      334.088        3.827      848.879
02/28/2014  09:01:00      118.084     -188.411       13.991      121.777      196.898       82.046    14829.681    38768.946     6731.611        5.497        3.017      222.356      118.009        0.282      334.018        3.711      848.894
02/28/2014  09:02:00      131.901      -20.255       83.756       90.499      155.673       89.206     8190.089    24234.058     7957.671        3.259        2.019      133.447      104.246        0.610      333.978        3.644      848.895
02/28/2014  09:03:00      116.661        4.933       74.121       89.619      156.715      103.737     8031.563    24559.721    10761.285        3.123        2.168      116.765      111.980        0.920      333.943        3.586      848.900
02/28/2014  09:04:00      198.028     -201.371      -32.367      109.095      155.420       95.251    11901.763    24155.265     9072.832        6.296        2.256      282.428       85.855        0.092      333.958        3.611      848.891
02/28/2014  09:05:00      175.195     -134.669       15.239      136.810      141.680       88.682    18716.911    20073.128     7864.501        4.785        2.333      220.973       92.678        0.176      333.880        3.482      848.907
02/28/2014  09:06:00       62.006       31.936       90.085       75.640       76.381       57.667     5721.431     5834.112     3325.471        1.393        0.744       69.747       51.911        0.554      333.956        3.610      848.919
02/28/2014  09:07:00      152.432     -159.947       11.594      130.066      156.300       83.193    16917.287    24429.550     6921.022        4.860        2.413      220.949       94.627        0.183      333.901        3.518      848.897
02/28/2014  09:08:00      191.972     -209.892      -23.538      137.788      198.345      100.558    18985.400    39340.648    10111.930        7.494        3.422      284.443      127.146        0.200      333.837        3.410      848.866
02/28/2014  09:09:00      114.124     -135.026        8.101      104.187      143.260       85.446    10854.896    20523.307     7300.950        3.499        1.934      176.795      101.944        0.332      333.846        3.426      848.884
02/28/2014  09:10:00      125.315     -157.595      -10.316       81.217       99.449       48.594     6596.271     9890.150     2361.395        2.974        0.942      201.345       48.460        0.058      333.757        3.277      848.858
02/28/2014  09:11:00      140.691      -17.563       67.584      120.867      108.733       74.291    14608.952    11822.912     5519.103        2.830        1.598      141.783       83.777        0.349      333.758        3.280      848.857
02/28/2014  09:12:00      177.980     -133.732       37.265      131.325      232.666       99.825    17246.163    54133.275     9965.101        6.613        4.067      222.623      148.304        0.444      333.635        3.077      848.821
02/28/2014  09:13:00      162.032     -154.743      -26.629      107.154       97.584       61.703    11481.908     9522.603     3807.237        3.786        1.241      224.053       55.330        0.061      333.647        3.095      848.793
02/28/2014  09:14:00       68.046       -3.812       59.236       81.413      122.921       69.146     6628.081    15109.567     4781.104        1.733        1.326       68.153       80.202        1.385      333.687        3.163      848.805
02/28/2014  09:15:00      104.216      -46.564       16.419      117.896       89.950       52.091    13899.532     8090.962     2713.488        1.900        1.235      114.145       52.965        0.215      333.687        3.164      848.815
02/28/2014  09:16:00       26.861       21.019       58.397       49.084       76.607       52.543     2409.222     5868.683     2760.768        0.780        0.552       34.107       51.770        2.304      333.681        3.155      848.785
02/28/2014  09:17:00      102.297       87.027       84.275      117.998       84.278       68.715    13923.454     7102.792     4721.819        2.544        1.287      134.307       40.181        0.090      333.543        2.925      848.627
02/28/2014  09:18:00      166.513      134.441       79.567      121.858       66.043       85.359    14849.376     4361.620     7286.142        3.931        1.325      214.011       78.492        0.135      333.374        2.645      848.281
02/28/2014  09:19:00      272.779      190.026       33.331       98.935       65.450       76.826     9788.071     4283.733     5902.178        6.580        0.999      332.443       48.931        0.022      333.285        2.497      847.685
02/28/2014  09:20:00      227.693      163.496       31.547      131.225       83.331       73.445    17219.925     6944.126     5394.231        5.456        1.478      280.312       37.967        0.018      333.256        2.449      846.946
02/28/2014  09:21:00      115.500      169.288        1.062      102.500      109.406       84.724    10506.205    11969.634     7178.140        3.582        1.483      204.935       71.520        0.122      333.217        2.383      846.539
02/28/2014  09:22:00      149.260      105.652       23.864      102.969       63.021       72.646    10602.718     3971.698     5277.483        2.693        0.993      182.868       33.800        0.034      333.198        2.354      846.524
02/28/2014  09:23:00      233.162      149.227       33.580       90.275       79.124       50.610     8149.512     6260.535     2561.422        4.736        0.849      276.827       11.129        0.002      333.174        2.314      846.732
02/28/2014  09:24:00      103.354       53.037       29.085       57.469       48.621       39.533     3302.736     2363.998     1562.854        1.078        0.361      116.168       30.874        0.071      333.261        2.458      846.772
02/28/2014  09:25:00      221.002      164.517       26.360      104.332       82.621       70.904    10885.072     6826.248     5027.323        4.967        1.137      275.514       42.417        0.024      333.218        2.386      846.684
02/28/2014  09:26:00       84.194       57.085       21.928       60.470       61.794       43.083     3656.574     3818.464     1856.182        1.008        0.467      101.722       29.895        0.086      333.241        2.426      846.829
02/28/2014  09:27:00       38.519       26.022       31.902       29.847       34.018       27.261      890.848     1157.249      743.182        0.298        0.140       46.486       21.526        0.214      333.325        2.565      846.940
02/28/2014  09:28:00      144.118       68.907       57.887       88.048       64.463       55.214     7752.490     4155.536     3048.612        2.191        0.748      159.744       41.541        0.068      333.291        2.509      846.916
02/28/2014  09:29:00      184.579       88.797       22.273       90.272       57.603       52.081     8148.988     3318.139     2712.454        2.831        0.709      204.828       44.782        0.048      333.238        2.419      846.793
02/28/2014  09:30:00      146.850       94.642       48.225       80.772       62.890       53.256     6524.135     3955.189     2836.238        2.308        0.666      174.706       29.946        0.029      333.311        2.542      846.599
02/28/2014  09:31:00      208.235       87.073       35.799       87.153       68.565       51.533     7595.613     4701.218     2655.636        3.359        0.748      225.707       42.673        0.036      333.221        2.392      846.472
02/28/2014  09:32:00       98.988       59.745       62.256       78.999       53.451       43.620     6240.869     2856.980     1902.716        1.412        0.550      115.620       38.970        0.114      333.241        2.426      846.390
02/28/2014  09:33:00        1.434       31.419       45.348       28.746       28.190       31.213      826.316      794.655      974.271        0.282        0.130       31.452       21.422        0.464      333.345        2.598      846.378
02/28/2014  09:34:00       48.137       64.960       -3.586       36.999       42.769       28.857     1368.920     1829.185      832.753        0.529        0.202       80.851       24.275        0.090      333.367        2.634      846.429
02/28/2014  09:35:00      141.303       75.706       16.527       74.778       47.358       33.357     5591.774     2242.750     1112.696        1.746        0.447      160.306       20.294        0.016      333.315        2.549      846.521
02/28/2014  09:36:00      104.222       67.713       28.678       50.082       45.151       40.926     2508.251     2038.641     1674.949        1.124        0.311      124.287       24.647        0.039      333.303        2.531      846.600
02/28/2014  09:37:00       48.785       63.532        3.400       57.804       34.181       30.439     3341.337     1168.354      926.522        0.593        0.272       80.102       25.540        0.102      333.348        2.603      846.650
02/28/2014  09:38:00      127.451       52.223       24.425       52.871       28.892       33.910     2795.302      834.736     1149.907        1.217        0.239      137.736        9.110        0.004      333.311        2.541      846.728
02/28/2014  09:39:00       48.096       32.563       28.349       56.193       46.059       42.456     3157.703     2121.475     1802.520        0.563        0.354       58.083       38.709        0.444      333.418        2.719      846.756
02/28/2014  09:40:00      100.722       38.540       20.020       74.389       39.460       35.880     5533.676     1557.090     1287.404        1.020        0.419      107.843       32.897        0.093      333.359        2.620      846.743
02/28/2014  09:41:00      116.947       74.665       11.479       44.014       30.254       26.145     1937.254      915.277      683.580        1.146        0.177      138.750       20.291        0.021      333.373        2.644      846.757
02/28/2014  09:42:00       32.970       52.322       44.826       63.527       30.996       29.996     4035.659      960.742      899.734        0.586        0.295       61.843       34.826        0.317      333.501        2.856      846.763
02/28/2014  09:43:00       19.605       38.528        7.246       46.276       51.814       31.083     2141.431     2684.694      966.160        0.386        0.290       43.230       23.940        0.307      333.423        2.727      846.703
02/28/2014  09:44:00       53.493      111.693       -7.622       43.103       58.084       32.214     1857.886     3373.760     1037.714        1.083        0.313      123.842       27.459        0.049      333.307        2.536      846.627
02/28/2014  09:45:00       32.498      108.475       -9.406       36.896       53.938       36.059     1361.304     2909.259     1300.216        0.924        0.279      113.238       27.675        0.060      333.362        2.627      846.573
02/28/2014  09:46:00      104.524       52.920        9.809       37.792       26.255       25.447     1428.227      689.336      647.550        0.829        0.138      117.157       13.427        0.013      333.358        2.619      846.558
02/28/2014  09:47:00       62.784       56.168        1.004       26.688       25.138       16.977      712.229      631.937      288.226        0.436        0.082       84.241       15.033        0.032      333.256        2.451      846.532
02/28/2014  09:48:00       14.308       91.235      -12.899       32.082       40.876       18.018     1029.287     1670.848      324.636        0.586        0.151       92.350       17.851        0.037      333.397        2.685      846.539
02/28/2014  09:49:00       38.976       77.326      -13.174       26.963       51.106       20.642      726.996     2611.862      426.075        0.572        0.188       86.594       23.758        0.075      333.560        2.955      846.625
02/28/2014  09:50:00       42.725       47.815       -9.489       40.193       27.108       20.609     1615.463      734.840      424.735        0.349        0.139       64.122       10.506        0.027      333.451        2.773      846.777
02/28/2014  09:51:00       80.919       52.813       24.211       53.571       25.597       23.117     2869.808      655.204      534.402        0.699        0.203       96.629       16.579        0.029      333.441        2.759      846.864
02/28/2014  09:52:00       63.390       62.295       -2.881       37.094       33.054       21.101     1375.936     1092.548      445.244        0.541        0.146       88.876       18.681        0.044      333.417        2.718      846.893
02/28/2014  09:53:00       58.869       46.841       -2.638       34.613       22.635       24.094     1198.082      512.353      580.497        0.398        0.115       75.231       16.497        0.048      333.515        2.879      846.924
02/28/2014  09:54:00       66.966      -61.319       -1.106       44.344       65.674       26.737     1966.407     4313.044      714.889        0.762        0.350       90.799       23.003        0.064      333.634        3.078      846.948
02/28/2014  09:55:00        8.689       21.238       29.456       24.536       33.407       35.452      602.001     1116.027     1256.860        0.218        0.149       22.947       23.934        1.088      333.649        3.102      847.012
02/28/2014  09:56:00        4.261       16.435       45.849       17.467       31.426       21.015      305.108      987.565      441.632        0.206        0.087       16.978       24.159        2.025      333.728        3.233      847.024
02/28/2014  09:57:00        3.648       10.141       22.408       28.026       40.029       24.077      785.432     1602.301      579.682        0.179        0.148       10.777       14.090        1.709      333.735        3.245      846.948
02/28/2014  09:58:00       57.533      -53.827        2.923       35.311       33.961       29.042     1246.838     1153.382      843.436        0.473        0.162       78.786       23.699        0.090      333.700        3.186      846.789
02/28/2014  09:59:00       28.760       26.333        3.975       27.668       34.294       28.159      765.537     1176.069      792.956        0.213        0.137       38.994       12.319        0.100      333.597        3.015      846.623
02/28/2014  10:00:00      -38.397        5.755        3.682       39.183       18.574       17.694     1535.276      344.977      313.060        0.186        0.110       38.826       21.287        0.301      333.730        3.237      846.490
02/28/2014  10:01:00      -72.815       -4.444       -8.814       23.259       27.430       15.164      540.961      752.396      229.954        0.346        0.076       72.950       13.203        0.033      333.624        3.060      846.411
02/28/2014  10:02:00       -4.696        1.987       13.964       18.246       17.896       17.118      332.912      320.259      293.021        0.058        0.047        5.099       12.361        5.876      333.909        3.532      846.288
02/28/2014  10:03:00       -9.272       24.937        8.957       20.596       30.040       19.086      424.208      902.399      364.273        0.124        0.085       26.605       17.756        0.445      333.941        3.587      846.152
02/28/2014  10:04:00       -4.099      124.176      -19.077       32.103       39.350       26.997     1030.582     1548.424      728.863        0.955        0.165      124.243       19.415        0.024      333.707        3.199      846.045
02/28/2014  10:05:00       -2.628      122.767      -14.216       20.541       27.655       15.576      421.940      764.812      242.617        0.835        0.071      122.795       12.854        0.011      333.526        2.898      846.043
02/28/2014  10:06:00        8.500       76.035       -6.112       24.228       35.554       22.357      586.998     1264.094      499.823        0.412        0.118       76.509       23.164        0.092      333.736        3.246      846.070
02/28/2014  10:07:00        4.640       79.144       -3.585       24.068       42.073       18.332      579.264     1770.176      336.054        0.449        0.134       79.280       21.319        0.072      333.730        3.236      846.112
02/28/2014  10:08:00        8.689      136.870      -13.348       36.537       29.845       23.379     1334.947      890.707      546.567        1.088        0.139      137.146       18.050        0.017      333.715        3.210      846.154
02/28/2014  10:09:00        6.217       97.464       -4.739       28.854       34.777       27.943      832.568     1209.409      780.811        0.619        0.141       97.662       27.237        0.078      333.805        3.361      846.231
02/28/2014  10:10:00       65.339       82.722        3.638       47.575       43.923       29.670     2263.384     1929.247      880.321        0.810        0.254      105.414       25.460        0.058      333.870        3.468      846.320
02/28/2014  10:11:00       95.346       63.171       -2.718       34.274       41.993       35.880     1174.697     1763.432     1287.375        0.866        0.211      114.374       25.681        0.050      333.861        3.453      846.470
02/28/2014  10:12:00       81.266       70.023       -9.648       35.771       21.735       19.978     1279.531      472.405      399.115        0.688        0.108      107.272       12.810        0.014      333.735        3.246      846.610
02/28/2014  10:13:00       17.197       57.121       -7.820       17.605       25.671       16.354      309.938      659.009      267.440        0.243        0.062       59.654       12.664        0.045      333.861        3.453      846.647
02/28/2014  10:14:00       31.488       32.421       -5.453       40.015       23.978       25.320     1601.237      574.943      641.118        0.244        0.141       45.196       10.382        0.053      333.956        3.613      846.652
02/28/2014  10:15:00       38.086       56.015       -3.691       26.254       31.525       20.267      689.282      993.850      410.744        0.335        0.105       67.737       12.965        0.037      333.960        3.618      846.665
02/28/2014  10:16:00      -12.318        7.121        1.813       18.523       29.740       19.885      343.106      884.477      395.403        0.091        0.081       14.229       13.299        0.874      334.170        3.968      846.655
02/28/2014  10:17:00        1.942       19.997        0.082       12.563       23.375       17.465      157.838      546.406      305.035        0.071        0.050       20.091       12.162        0.366      334.240        4.082      846.664
02/28/2014  10:18:00       -8.960       30.740        7.238       18.358       31.195       14.819      337.023      973.138      219.598        0.130        0.076       32.019       16.071        0.252      334.371        4.300      846.639
02/28/2014  10:19:00       18.788       70.227        2.888       36.372       27.496       31.559     1322.939      756.015      995.949        0.418        0.154       72.697       17.404        0.057      334.188        3.996      846.620
02/28/2014  10:20:00      -19.571       45.248        6.127       31.333       28.361       27.589      981.734      804.371      761.160        0.251        0.127       49.299       22.357        0.206      334.343        4.252      846.600
02/28/2014  10:21:00      -22.551        5.292        4.431       14.884       17.873       22.601      221.528      319.451      510.802        0.080        0.053       23.164       16.781        0.525      334.529        4.563      846.544
02/28/2014  10:22:00      -78.495       53.116      -18.236       26.743       31.260       18.114      715.201      977.203      328.132        0.567        0.101       94.778       13.357        0.020      334.096        3.843      846.463
02/28/2014  10:23:00      -16.291       51.444        7.455       32.326       43.821       18.694     1044.956     1920.277      349.451        0.314        0.166       53.962       14.982        0.077      334.476        4.474      846.388
02/28/2014  10:24:00      -14.513       81.985      -10.649       39.340       48.206       24.018     1547.609     2323.805      576.855        0.575        0.222       83.260       23.999        0.083      334.404        4.353      846.318
02/28/2014  10:25:00      -16.797      158.935      -13.075       42.712       67.953       30.778     1824.350     4617.575      947.286        1.655        0.369      159.820       35.737        0.050      334.334        4.237      846.247
02/28/2014  10:26:00      -42.442       52.357       -5.081       33.013       41.165       26.090     1089.842     1694.519      680.663        0.402        0.173       67.399       19.114        0.080      334.404        4.354      846.183
02/28/2014  10:27:00      -42.193       12.671       -6.226       28.166       32.710       17.807      793.320     1069.921      317.100        0.208        0.109       44.054       19.604        0.198      334.380        4.314      846.136
02/28/2014  10:28:00     -100.506       43.427      -15.473       31.119       31.406       26.155      968.419      986.327      684.091        0.743        0.132      109.487       18.397        0.028      334.372        4.302      846.117
02/28/2014  10:29:00     -105.552      111.479      -28.147       38.685       55.631       28.356     1496.536     3094.754      804.065        1.488        0.270      153.521       21.572        0.020      334.389        4.328      846.117
02/28/2014  10:30:00      -69.083      108.558      -24.491       38.043       43.642       29.662     1447.276     1904.601      879.833        1.069        0.212      128.675       15.978        0.015      334.446        4.424      846.147
02/28/2014  10:31:00      -23.368       15.187       -6.664       41.340       29.012       24.929     1708.988      841.713      621.441        0.200        0.159       27.870       22.565        0.656      334.639        4.744      846.189
02/28/2014  10:32:00      -24.991       78.522       -3.888       40.733       53.657       33.229     1659.196     2879.103     1104.156        0.622        0.282       82.403       33.929        0.170      334.834        5.068      846.164
02/28/2014  10:33:00        0.672       55.445        3.989       47.448       35.297       40.795     2251.277     1245.850     1664.211        0.412        0.258       55.449       34.690        0.391      335.022        5.381      846.116
02/28/2014  10:34:00       -1.793        8.349       16.683       17.559       18.026       23.756      308.307      324.945      564.352        0.077        0.060        8.540        7.998        0.877      335.214        5.699      846.060
02/28/2014  10:35:00      -21.637        0.255        2.556       26.722       23.794       16.830      714.086      566.156      283.260        0.102        0.078       21.639       14.996        0.480      334.905        5.185      845.985
02/28/2014  10:36:00      -30.857       27.470        5.765       30.843       15.875       21.591      951.273      252.008      466.168        0.170        0.083       41.313       20.885        0.256      335.215        5.700      845.972
02/28/2014  10:37:00      -41.461       74.809       -2.564       60.243       49.972       33.303     3629.256     2497.199     1109.104        0.728        0.362       85.530       36.836        0.185      335.065        5.452      845.970
02/28/2014  10:38:00      -80.106       49.081      -23.677       41.989       64.118       25.404     1763.082     4111.132      645.382        0.795        0.326       93.946       33.436        0.127      334.648        4.758      845.901
02/28/2014  10:39:00      -53.841       42.311      -14.295       63.983       54.088       34.618     4093.822     2925.507     1198.423        0.655        0.411       68.477       29.299        0.183      334.962        5.281      845.824
02/28/2014  10:40:00      -36.295       58.517        6.643       35.836       49.163       31.939     1284.228     2417.019     1020.082        0.475        0.236       68.859       32.470        0.222      335.039        5.409      845.742
02/28/2014  10:41:00      -18.167      157.964      -22.627       36.913       60.987       28.502     1362.564     3719.363      812.390        1.584        0.295      159.005       28.141        0.031      334.756        4.937      845.690
02/28/2014  10:42:00       18.726       49.878       14.408       36.867       49.377       27.693     1359.187     2438.136      766.913        0.380        0.228       53.277       27.327        0.263      335.161        5.612      845.696
02/28/2014  10:43:00       16.205       56.519        4.213       27.335       53.909       29.026      747.181     2906.209      842.510        0.398        0.225       58.797       30.130        0.263      335.114        5.534      845.725
02/28/2014  10:44:00       42.433       18.557       20.265       33.766       29.603       23.862     1140.166      876.310      569.392        0.257        0.129       46.314       14.236        0.094      335.198        5.673      845.727
02/28/2014  10:45:00        4.723      150.822       -5.738       38.435       69.743       37.286     1477.236     4864.065     1390.256        1.527        0.387      150.896       38.998        0.067      334.991        5.327      845.747
02/28/2014  10:46:00       -4.110       74.209        9.801       71.603       41.222       32.879     5127.042     1699.236     1081.050        0.676        0.395       74.323       30.574        0.169      335.244        5.750      845.785
02/28/2014  10:47:00      100.024       97.034       -7.998       55.035       51.136       44.095     3028.894     2614.896     1944.374        1.353        0.379      139.357       26.654        0.037      334.897        5.172      845.816
02/28/2014  10:48:00       42.217       99.250      -10.653       42.529       58.380       37.784     1808.677     3408.233     1427.624        0.919        0.332      107.855       30.468        0.080      334.942        5.247      845.812
02/28/2014  10:49:00       -9.994       11.950       15.862       17.114       22.815       25.930      292.886      520.527      672.379        0.099        0.074       15.578       19.174        1.515      335.248        5.757      845.799
02/28/2014  10:50:00        2.950       78.358        7.111       31.855       34.794       31.040     1014.763     1210.611      963.502        0.469        0.159       78.413       25.931        0.109      335.252        5.763      845.760
02/28/2014  10:51:00       27.750       71.466       61.083       41.281       47.074       45.370     1704.083     2216.001     2058.459        0.779        0.299       76.665       28.309        0.136      335.444        6.081      845.711
02/28/2014  10:52:00      142.215       91.211       18.939       49.539       29.118       38.670     2454.139      847.856     1495.340        1.685        0.240      168.951       21.670        0.016      334.942        5.246      845.659
02/28/2014  10:53:00       25.176        7.606        5.672       27.132       27.610       21.251      736.149      762.307      451.617        0.134        0.098       26.299       17.899        0.463      335.188        5.656      845.573
02/28/2014  10:54:00       33.817       30.384       12.200       31.799       27.292       24.745     1011.156      744.852      612.305        0.229        0.118       45.461       14.453        0.101      335.253        5.764      845.466
02/28/2014  10:55:00       51.241      -59.931        6.664       44.279       73.432       40.424     1960.659     5392.301     1634.089        0.762        0.449       78.851       33.891        0.185      335.548        6.254      845.400
02/28/2014  10:56:00      108.733     -159.625      -17.901       68.352       56.862       40.045     4671.932     3233.286     1603.618        2.356        0.475      193.140       43.026        0.050      335.155        5.599      845.398
02/28/2014  10:57:00       53.382      -87.356       -7.670       45.977       20.396       22.151     2113.917      416.004      490.687        0.678        0.151      102.375       19.054        0.035      335.124        5.550      845.439
02/28/2014  10:58:00       74.193     -150.185      -15.097       74.140       62.490       45.117     5496.728     3905.007     2035.510        1.986        0.572      167.511       39.414        0.055      335.560        6.274      845.480
02/28/2014  10:59:00       51.332     -107.246       -3.122       40.400       42.071       28.970     1632.170     1770.010      839.276        0.919        0.212      118.898       22.193        0.035      335.324        5.883      845.526
02/28/2014  11:00:00       52.574       11.538       52.954       59.197       71.989       40.667     3504.330     5182.468     1653.792        0.802        0.517       53.825       39.479        0.538      335.869        6.792      845.566
02/28/2014  11:01:00       81.250        7.131       30.390       46.136       69.032       51.622     2128.554     4765.439     2664.832        0.857        0.478       81.562       50.614        0.385      335.401        6.010      845.608
02/28/2014  11:02:00       83.307       13.945       32.481       39.673       69.508       44.949     1573.943     4831.394     2020.400        0.831        0.421       84.466       25.238        0.089      335.673        6.463      845.585
02/28/2014  11:03:00       55.105       64.013       19.737       30.057       27.929       27.212      903.408      780.046      740.468        0.497        0.121       84.465       13.483        0.025      335.468        6.121      845.545
02/28/2014  11:04:00       12.510       -5.872       42.275       32.776       40.012       18.096     1074.244     1600.995      327.466        0.249        0.150       13.819       12.409        0.806      335.918        6.873      845.524
02/28/2014  11:05:00        6.653       30.432       50.360       39.132       44.698       33.460     1531.282     1997.881     1119.593        0.408        0.232       31.151       13.621        0.191      336.118        7.205      845.510
02/28/2014  11:06:00      -26.243      -21.706       13.601       35.666       32.273       24.896     1272.058     1041.551      619.805        0.214        0.147       34.056       20.968        0.379      336.239        7.408      845.489
02/28/2014  11:07:00      -77.701       38.908       -8.488       42.669       45.956       29.255     1820.662     2111.961      855.848        0.620        0.239       86.898       20.447        0.055      335.658        6.438      845.472
02/28/2014  11:08:00      -34.835       43.507      -10.525       52.856       73.323       28.532     2793.804     5376.285      814.076        0.610        0.449       55.735        9.870        0.031      335.692        6.495      845.442
02/28/2014  11:09:00      -89.517      -37.561        7.598       46.147       63.219       36.570     2129.500     3996.642     1337.384        0.847        0.373       97.078       30.610        0.099      335.796        6.668      845.445
02/28/2014  11:10:00     -153.193      -68.783       20.042      119.821       77.352       42.583    14357.021     5983.381     1813.275        2.537        1.108      167.926       49.608        0.087      336.095        7.165      845.453
02/28/2014  11:11:00     -222.981       -6.416      -19.664       68.871       46.107       33.051     4743.216     2125.878     1092.379        2.905        0.398      223.073       28.451        0.016      335.638        6.402      845.457
02/28/2014  11:12:00     -213.484        5.550      -22.783       53.582       60.353       35.565     2870.989     3642.443     1264.873        2.695        0.389      213.557       28.096        0.017      335.734        6.563      845.450
02/28/2014  11:13:00     -152.233       -4.305       -7.693       78.199       84.821       33.774     6115.150     7194.554     1140.665        1.885        0.723      152.294       29.606        0.038      335.866        6.785      845.453
02/28/2014  11:14:00     -283.610      -19.731       -9.497       94.711       72.844       41.137     8970.146     5306.300     1692.270        4.844        0.798      284.295       39.466        0.019      335.710        6.521      845.465
02/28/2014  11:15:00     -132.368      -53.500       12.228      134.163      101.634       56.097    17999.716    10329.559     3146.835        2.600        1.574      142.771       63.197        0.196      335.956        6.933      845.459
02/28/2014  11:16:00     -116.325      -27.474        3.607       75.029       60.610       33.537     5629.400     3673.561     1124.712        1.236        0.521      119.525       35.268        0.087      336.019        7.040      845.444
02/28/2014  11:17:00      -68.063      -21.920       18.448       82.321       58.531       39.804     6776.750     3425.844     1584.343        0.862        0.589       71.505       42.774        0.358      336.347        7.587      845.420
02/28/2014  11:18:00     -107.530      -12.246       -4.159       38.877       43.655       27.374     1511.433     1905.768      749.309        0.795        0.208      108.225       22.054        0.042      335.866        6.786      845.406
02/28/2014  11:19:00     -165.856       -9.985      -13.718       43.087       51.302       28.081     1856.500     2631.911      788.530        1.654        0.264      166.156       19.493        0.014      335.861        6.777      845.374
02/28/2014  11:20:00     -132.823       33.514      -13.067       45.562       46.611       27.114     2075.850     2172.579      735.151        1.196        0.249      136.986       16.597        0.015      335.819        6.707      845.338
02/28/2014  11:21:00     -141.300        3.193       -6.019       52.987       53.278       23.638     2807.589     2838.546      558.755        1.311        0.310      141.336       16.882        0.014      335.822        6.712      845.306
02/28/2014  11:22:00      -29.973      -72.645       -2.106       41.909       43.567       28.002     1756.379     1898.047      784.092        0.531        0.222       78.585       24.597        0.098      335.729        6.558      845.346
02/28/2014  11:23:00      -68.830       11.957      -13.581       24.624       16.462       21.764      606.347      271.005      473.691        0.321        0.068       69.861       13.570        0.038      335.700        6.510      845.397
02/28/2014  11:24:00      -84.923      -24.606       -5.061       38.300       42.670       21.083     1466.919     1820.697      444.483        0.579        0.187       88.415       19.364        0.048      335.877        6.804      845.439
02/28/2014  11:25:00     -107.255      -87.665       -0.778       80.589       67.950       42.061     6494.529     4617.267     1769.123        1.603        0.644      138.524       46.956        0.115      335.872        6.794      845.464
02/28/2014  11:26:00     -177.846      -83.014       10.573      110.431       68.660       39.102    12194.954     4714.252     1528.943        2.853        0.922      196.267       48.432        0.061      335.906        6.849      845.452
02/28/2014  11:27:00     -148.355     -100.812       -5.608       78.673       72.117       43.858     6189.471     5200.880     1923.512        2.276        0.666      179.367       40.145        0.050      335.911        6.856      845.451
02/28/2014  11:28:00     -173.084      -79.776        4.201       60.827       65.733       38.874     3699.869     4320.807     1511.190        2.293        0.477      190.584       30.821        0.026      335.773        6.629      845.459
02/28/2014  11:29:00     -110.316      -14.134       -7.589       38.498       44.614       21.364     1482.064     1990.381      456.402        0.818        0.196      111.218       21.588        0.038      335.659        6.440      845.455
02/28/2014  11:30:00     -142.258       -5.079       -9.584       59.252       33.850       27.409     3510.769     1145.796      751.258        1.288        0.270      142.349       23.656        0.028      335.693        6.495      845.439
02/28/2014  11:31:00     -147.496      -66.645      -19.555       30.834       40.201       22.775      950.745     1616.099      518.708        1.483        0.154      161.854        8.679        0.003      335.704        6.516      845.438
02/28/2014  11:32:00      -68.768      -45.500        0.898       21.329       32.004       17.822      454.940     1024.246      317.638        0.430        0.090       82.458       15.189        0.034      335.697        6.503      845.401
02/28/2014  11:33:00      -82.721      -81.432       -3.638       41.416       28.416       21.134     1715.307      807.461      446.652        0.823        0.148      116.077       18.868        0.026      335.758        6.605      845.310
02/28/2014  11:34:00      -60.594      -48.735        3.097       37.996       48.900       22.741     1443.696     2391.234      517.143        0.520        0.218       77.761       18.928        0.059      336.082        7.145      845.263
02/28/2014  11:35:00      -10.351      -47.157       -1.406       64.428       67.278       29.971     4150.967     4526.373      898.263        0.595        0.479       48.280       20.218        0.175      335.903        6.848      845.234
02/28/2014  11:36:00      -73.873      -85.947      -17.236       22.844       47.403       19.543      521.833     2247.039      381.925        0.815        0.158      113.332       12.559        0.012      335.906        6.851      845.177
02/28/2014  11:37:00      -63.718      -48.921       13.160       61.877       48.644       37.858     3828.767     2366.213     1433.238        0.713        0.381       80.332       32.739        0.166      336.141        7.244      845.125
02/28/2014  11:38:00      -73.151      -18.362      -16.832       29.420       59.145       19.133      865.534     3498.116      366.081        0.535        0.236       75.420       23.109        0.094      335.840        6.742      845.088
02/28/2014  11:39:00      -53.633       16.892      -11.993       22.880       45.968       16.679      523.507     2113.091      278.195        0.311        0.146       56.230       14.578        0.067      336.107        7.186      845.049
02/28/2014  11:40:00      -37.237      -13.366        8.964       29.469       20.539       21.963      868.410      421.850      482.365        0.171        0.089       39.563       22.617        0.327      336.544        7.917      845.058
02/28/2014  11:41:00      -22.922        0.068       12.965       29.905       28.307       23.808      894.297      801.258      566.818        0.148        0.113       22.923       18.179        0.629      337.076        8.806      845.026
02/28/2014  11:42:00        3.693       -1.531       20.803       27.763       17.502       22.883      770.791      306.312      523.644        0.102        0.080        3.998       13.502       11.405      337.393        9.337      844.992
02/28/2014  11:43:00      -88.609      -58.190       -2.792       43.078       27.705       22.197     1855.692      767.560      492.688        0.718        0.156      106.007       16.178        0.023      336.312        7.530      844.951
02/28/2014  11:44:00      -66.203      -34.096        2.760       44.931       38.288       23.405     2018.772     1465.999      547.803        0.479        0.202       74.467       24.808        0.111      336.524        7.884      844.928
02/28/2014  11:45:00     -103.736      -56.092        0.327       39.659       37.437       29.156     1572.811     1401.505      850.101        0.887        0.191      117.930        8.603        0.005      336.530        7.895      844.898
02/28/2014  11:46:00      -71.594      -32.907       13.657       64.970       48.154       34.811     4221.155     2318.799     1211.792        0.707        0.388       78.795       34.154        0.188      336.541        7.911      844.877
02/28/2014  11:47:00       36.894      -44.651       11.527       67.097       56.257       43.083     4502.057     3164.798     1856.156        0.650        0.476       57.921       35.686        0.380      336.751        8.262      844.849
02/28/2014  11:48:00     -124.719     -156.648      -19.998       49.896       62.452       31.089     2489.572     3900.274      966.527        2.392        0.368      200.233       30.763        0.024      336.323        7.547      844.832
02/28/2014  11:49:00       -4.443       12.470       49.301       21.003       49.883       18.846      441.126     2488.346      355.182        0.294        0.164       13.238       23.576        3.172      336.831        8.397      844.827
02/28/2014  11:50:00        8.780        5.409       18.598       15.662       13.525       18.832      245.301      182.912      354.651        0.062        0.039       10.313       12.181        1.395      336.763        8.285      844.816
02/28/2014  11:51:00        0.166        6.460       33.311       25.897       26.699       25.473      670.675      712.819      648.856        0.159        0.102        6.462       21.518       11.088      336.988        8.661      844.812
02/28/2014  11:52:00       63.320       65.671       59.116       54.616       47.766       46.952     2982.922     2281.615     2204.520        0.964        0.373       91.226       32.107        0.124      336.488        7.822      844.783
02/28/2014  11:53:00       37.400       41.630       27.450       38.030       34.289       48.582     1446.284     1175.724     2360.199        0.443        0.249       55.963       16.771        0.090      336.524        7.883      844.762
02/28/2014  11:54:00       79.097       76.730       24.010       45.591       37.192       39.274     2078.502     1383.211     1542.437        0.886        0.250      110.198       21.868        0.039      336.345        7.584      844.706
02/28/2014  11:55:00       75.752       56.514       15.985       60.106       36.167       24.537     3612.690     1308.047      602.088        0.735        0.276       94.511       12.944        0.019      336.478        7.806      844.647
02/28/2014  11:56:00       65.383      116.890      105.876       73.761       46.611       45.185     5440.710     2172.612     2041.687        1.940        0.483      133.934       39.115        0.085      336.651        8.096      844.617
02/28/2014  11:57:00       27.512      106.155      119.989       66.333       64.086       60.597     4400.093     4107.004     3672.005        1.930        0.609      109.662       53.909        0.242      336.599        8.008      844.614
02/28/2014  11:58:00      168.652      121.942       56.183       63.450       56.081       58.692     4025.863     3145.114     3444.703        2.854        0.531      208.119       40.620        0.038      336.389        7.655      844.603
02/28/2014  11:59:00      125.062       63.355       26.407       55.442       36.074       54.219     3073.829     1301.337     2939.660        1.383        0.366      140.194       31.704        0.051      336.319        7.541      844.573
02/28/2014  12:00:00       53.719       23.499       13.704       33.770       36.706       26.166     1140.443     1347.358      684.682        0.340        0.159       58.634        9.695        0.027      336.399        7.675      844.519
02/28/2014  12:01:00       65.423       71.815        0.708       54.979       48.372       31.097     3022.679     2339.838      967.023        0.788        0.316       97.147       22.215        0.052      336.465        7.785      844.487
02/28/2014  12:02:00       56.958       25.913       26.663       53.506       40.686       32.164     2862.885     1655.370     1034.524        0.509        0.278       62.575       22.501        0.129      336.656        8.105      844.442
02/28/2014  12:03:00       37.749       58.575        5.585       49.004       47.750       31.223     2401.383     2280.063      974.900        0.527        0.283       69.685       16.031        0.053      336.591        7.995      844.418
02/28/2014  12:04:00       -9.227       91.185      -10.416       40.486       56.040       27.352     1639.130     3140.476      748.129        0.702        0.276       91.651       24.438        0.071      336.409        7.690      844.395
02/28/2014  12:05:00      -13.441      101.519      -20.862       20.116       32.927       11.531      404.649     1084.196      132.956        0.627        0.081      102.405        9.812        0.009      336.259        7.441      844.392
02/28/2014  12:06:00       26.574       30.743       -4.892       34.961       33.257       22.105     1222.295     1106.042      488.646        0.225        0.141       40.636       12.775        0.099      336.587        7.989      844.397
02/28/2014  12:07:00       55.764       -6.363       -4.270       21.136       23.251       17.167      446.718      540.624      294.700        0.223        0.064       56.126        6.517        0.013      336.498        7.841      844.388
02/28/2014  12:08:00       23.557       30.317        6.123       29.304       36.622       27.069      858.700     1341.184      732.731        0.222        0.147       38.394       18.312        0.227      336.963        8.617      844.377
02/28/2014  12:09:00      -36.545       11.327       -9.032       38.933       63.849       21.910     1515.773     4076.735      480.028        0.381        0.304       38.260       22.754        0.354      336.783        8.316      844.375
02/28/2014  12:10:00      -24.677       70.309      -23.762       30.507       52.282       18.097      930.649     2733.385      327.501        0.505        0.200       74.514       19.250        0.067      336.735        8.235      844.405
02/28/2014  12:11:00       32.868       26.397        3.547       29.573       29.143       15.172      874.582      849.326      230.184        0.187        0.098       42.155        4.710        0.012      337.011        8.698      844.451
02/28/2014  12:12:00       29.078       68.869       -2.326       38.329       28.531       24.251     1469.150      814.008      588.097        0.423        0.144       74.756       16.865        0.051      337.022        8.716      844.498
02/28/2014  12:13:00      108.104       84.807       -4.414       38.618       28.322       30.154     1491.338      802.144      909.259        1.105        0.160      137.400       18.401        0.018      336.835        8.404      844.526
02/28/2014  12:14:00       53.304       43.679       16.667       41.974       35.846       34.602     1761.836     1284.903     1197.311        0.463        0.212       68.914        5.866        0.007      337.076        8.807      844.545
02/28/2014  12:15:00       36.272       30.684        8.010       44.018       42.073       32.027     1937.598     1770.099     1025.750        0.353        0.237       47.510       13.055        0.076      337.352        9.268      844.549
02/28/2014  12:16:00       18.549      -48.128       -0.117       41.849       47.623       31.733     1751.358     2267.950     1007.001        0.384        0.251       51.579       30.971        0.361      337.632        9.737      844.551
02/28/2014  12:17:00      125.623     -108.308        0.098      142.309      110.339       80.120    20251.710    12174.603     6419.144        3.317        1.942      165.866       84.052        0.257      337.328        9.226      844.529
02/28/2014  12:18:00      112.760      -51.641       66.676      153.128      174.727      123.056    23448.251    30529.679    15142.863        4.446        3.456      124.023      131.311        1.121      337.461        9.449      844.451
02/28/2014  12:19:00       47.474     -138.979       -1.697      118.431      111.149       68.532    14025.878    12354.153     4696.606        2.632        1.554      146.864       73.830        0.253      337.388        9.326      844.490
02/28/2014  12:20:00      128.701      -50.375       64.039       79.409      138.167      102.888     6305.826    19090.191    10585.937        2.959        1.799      138.208       93.230        0.455      337.175        8.970      844.441
02/28/2014  12:21:00       53.801      -30.238       59.382      105.689      133.700      101.665    11170.146    17875.614    10335.830        2.335        1.969       61.717      104.595        2.872      337.509        9.531      844.406
02/28/2014  12:22:00       74.194     -145.557       -0.029       68.681       99.074       48.206     4717.044     9815.625     2323.794        2.177        0.843      163.376       47.746        0.085      337.325        9.222      844.408
02/28/2014  12:23:00       56.969      -14.362       45.893       77.044       86.186       66.980     5935.855     7428.073     4486.261        1.170        0.893       58.751       60.323        1.054      337.423        9.386      844.380
02/28/2014  12:24:00       42.933       31.287      111.913      101.992      115.346       89.866    10402.398    13304.762     8075.969        2.356        1.589       53.123       94.217        3.145      337.303        9.185      844.346
02/28/2014  12:25:00      208.194     -169.869      -14.798       67.861       73.412       52.409     4605.071     5389.255     2746.667        4.258        0.637      268.701       32.049        0.014      336.830        8.392      844.321
02/28/2014  12:26:00       81.008      -72.340       -3.369       70.657       82.430       49.164     4992.439     6794.696     2417.090        1.300        0.710      108.606       64.340        0.351      336.998        8.675      844.310
02/28/2014  12:27:00       70.963       23.734       57.283       54.870      103.115       55.369     3010.675    10632.678     3065.752        1.279        0.835       74.826       66.889        0.799      336.886        8.487      844.285
02/28/2014  12:28:00       57.925      -60.801       -2.385       31.768       40.992       27.527     1009.197     1680.358      757.756        0.525        0.172       83.977       21.528        0.066      336.733        8.233      844.274
02/28/2014  12:29:00      116.374       69.004       47.606       57.295       61.618       56.194     3282.702     3796.814     3157.741        1.540        0.512      135.294       37.516        0.077      336.942        8.581      844.251
02/28/2014  12:30:00      165.158       98.386       31.860       63.599       51.000       51.729     4044.790     2601.005     2675.847        2.365        0.466      192.242       17.464        0.008      336.908        8.521      844.239
02/28/2014  12:31:00      175.212      145.078       37.191       75.758       57.125       66.530     5739.280     3263.259     4426.241        3.328        0.671      227.480       49.517        0.047      336.925        8.549      844.255
02/28/2014  12:32:00      128.754       69.683       53.890       68.806       65.741       45.213     4734.275     4321.902     2044.195        1.772        0.555      146.401       37.819        0.067      337.097        8.840      844.265
02/28/2014  12:33:00       26.424      102.080      126.711       58.016       58.982       48.080     3365.909     3478.916     2311.661        1.816        0.458      105.445       41.616        0.156      337.375        9.307      844.274
02/28/2014  12:34:00       59.570       68.404       76.684       78.277       53.414       51.786     6127.311     2853.030     2681.840        1.288        0.583       90.707       33.656        0.138      337.465        9.458      844.286
02/28/2014  12:35:00       93.554       65.981       87.217       66.893       65.246       41.830     4474.634     4257.103     1749.779        1.560        0.524      114.481       23.909        0.044      337.295        9.173      844.283
02/28/2014  12:36:00       55.344       65.944       58.574      102.488       78.163       63.440    10503.744     6109.421     4024.634        1.574        1.032       86.091       26.910        0.098      337.194        9.003      844.258
02/28/2014  12:37:00      119.893       -6.721       56.916      130.521      122.197       49.753    17035.797    14932.021     2475.345        2.605        1.722      120.081       52.839        0.194      337.348        9.260      844.255
02/28/2014  12:38:00      173.175      -56.764       45.811      104.372      112.103       70.705    10893.602    12567.190     4999.246        3.188        1.423      182.241       67.798        0.138      337.109        8.858      844.246
02/28/2014  12:39:00       85.530       49.989       88.822       71.555       71.216       55.887     5120.090     5071.767     3123.363        1.551        0.666       99.067       49.652        0.251      336.936        8.571      844.248
02/28/2014  12:40:00      166.783       64.060       35.941       84.549       66.271       46.716     7148.520     4391.836     2182.338        2.346        0.686      178.662       36.367        0.041      336.823        8.382      844.209
02/28/2014  12:41:00       30.348       39.017       82.681       92.352       94.758       69.137     8528.964     8979.154     4779.906        1.578        1.114       49.430       47.846        0.937      337.325        9.220      844.166
02/28/2014  12:42:00      186.175     -139.351        9.538      125.537      142.924      106.561    15759.527    20427.173    11355.252        5.085        2.377      232.551      120.279        0.268      337.026        8.717      844.150
02/28/2014  12:43:00       61.952      -22.759       48.298       95.107      134.807       94.299     9045.416    18172.816     8892.257        2.139        1.806       66.000       92.279        1.955      337.224        9.053      844.133
02/28/2014  12:44:00      102.995     -145.630       34.204      104.476      139.332      104.555    10915.168    19413.328    10931.666        3.712        2.063      178.370      106.955        0.360      337.094        8.834      844.099
02/28/2014  12:45:00      182.306       26.096       57.631      113.773       79.883       69.471    12944.210     6381.219     4826.260        3.069        1.208      184.164       43.293        0.055      337.106        8.855      844.084
02/28/2014  12:46:00       39.810       12.458       51.840      140.068       82.231       72.021    19619.106     6761.986     5186.957        1.799        1.578       41.714       44.724        1.150      337.306        9.191      844.036
02/28/2014  12:47:00       10.915      -19.225       76.055       87.157      171.507       88.260     7596.419    29414.615     7789.771        2.553        2.240       22.108      114.150       26.660      337.614        9.706      844.021
02/28/2014  12:48:00      150.300     -163.076       11.221      152.084      175.637      123.963    23129.538    30848.284    15366.742        5.932        3.467      221.774      137.676        0.385      337.195        9.003      843.963
02/28/2014  12:49:00      121.766     -160.812       12.412      114.789      134.314       76.028    13176.467    18040.141     5780.290        3.891        1.850      201.711       78.850        0.153      337.226        9.055      843.958
02/28/2014  12:50:00      166.901     -242.146      -19.613      105.710       82.640       58.646    11174.606     6829.368     3439.392        5.416        1.072      294.093       33.054        0.013      337.181        8.980      843.937
02/28/2014  12:51:00      122.815     -111.582       57.704       99.858      149.131       78.389     9971.651    22239.942     6144.904        3.460        1.918      165.934       86.817        0.274      337.364        9.286      843.958
02/28/2014  12:52:00       57.250      113.128      148.471       76.129      160.344      115.109     5795.661    25710.093    13250.146        4.143        2.238      126.789      128.065        1.020      337.276        9.141      843.973
02/28/2014  12:53:00       79.304      -89.459       37.433       82.729      151.335       80.516     6844.098    22902.306     6482.844        2.596        1.811      119.549      100.431        0.706      337.657        9.777      843.962
02/28/2014  12:54:00      120.753      -65.986       58.122      110.699      156.121       98.305    12254.265    24373.652     9663.919        3.429        2.315      137.605      105.560        0.588      337.676        9.810      843.954
02/28/2014  12:55:00      104.811      -33.902       44.202      110.307      138.881      103.164    12167.621    19287.882    10642.762        2.809        2.105      110.158       97.004        0.775      337.730        9.900      843.951
02/28/2014  12:56:00       37.726     -107.867       12.746       74.855      127.397       77.929     5603.217    16229.955     6072.995        2.056        1.395      114.273       79.316        0.482      337.884       10.157      843.944
02/28/2014  12:57:00       38.477       -9.773       95.157      110.410      143.294       97.945    12190.475    20533.219     9593.268        2.647        2.116       39.699      115.621        8.482      337.860       10.119      843.923
02/28/2014  12:58:00       82.588     -121.103       68.137      129.885      205.437      132.079    16870.226    42204.185    17444.879        5.131        3.826      146.584      135.796        0.858      337.681        9.817      843.885
02/28/2014  12:59:00      187.036     -233.553        8.168      177.746      193.696      111.190    31593.721    37518.205    12363.243        8.552        4.074      299.215      144.110        0.232      337.391        9.332      843.842
02/28/2014  13:00:00       34.489        4.585       90.163       90.532       94.590       57.159     8196.002     8947.190     3267.133        1.487        1.021       34.792       53.254        2.343      337.752        9.936      843.880
02/28/2014  13:01:00       66.644      -19.128       91.156      105.069      175.518      100.310    11039.548    30806.415    10062.123        3.250        2.595       69.334      120.190        3.005      337.881       10.153      843.876
02/28/2014  13:02:00      137.257     -138.030       29.279      114.657      135.081       67.027    13146.174    18246.987     4492.562        3.731        1.794      194.658       60.291        0.096      337.885       10.160      843.866
02/28/2014  13:03:00      114.055     -138.922       36.954       91.500      203.409       96.025     8372.166    41375.110     9220.824        4.631        2.948      179.744      111.352        0.384      337.848       10.097      843.850
02/28/2014  13:04:00      191.559     -231.126      -22.974       98.924      141.441       87.473     9785.906    20005.474     7651.496        6.404        1.872      300.190       81.654        0.074      337.569        9.629      843.839
02/28/2014  13:05:00       92.837      -83.513       73.541      104.909      194.019      118.078    11005.813    37643.444    13942.335        4.179        3.130      124.872      143.536        1.321      337.694        9.838      843.796
02/28/2014  13:06:00      218.198     -206.125      -27.209      154.970      193.968      134.731    24015.757    37623.484    18152.340        8.530        3.990      300.163      138.351        0.212      337.487        9.492      843.735
02/28/2014  13:07:00      155.021     -204.845        0.618      155.426      175.946       88.006    24157.134    30957.032     7745.043        6.442        3.143      256.891       97.191        0.143      337.458        9.442      843.728
02/28/2014  13:08:00       17.621      -97.294       66.883       70.701      133.440       90.008     4998.677    17806.299     8101.529        2.257        1.545       98.876       81.172        0.674      337.694        9.839      843.735
02/28/2014  13:09:00       11.897     -120.947       31.519       61.998      108.768       81.673     3843.741    11830.374     6670.507        1.905        1.117      121.531       57.613        0.225      337.754        9.940      843.742
02/28/2014  13:10:00       28.607      -46.659       57.637       59.859      126.914       72.217     3583.147    16107.133     5215.296        1.561        1.245       54.731       72.940        1.776      337.879       10.151      843.752
02/28/2014  13:11:00      115.610     -176.112       14.616      139.778      119.826       67.026    19537.821    14358.254     4492.437        4.149        1.919      210.668       62.039        0.087      337.650        9.767      843.759
02/28/2014  13:12:00      192.629     -114.105       61.833      164.515      210.723      124.044    27065.278    44404.032    15386.875        7.039        4.343      223.888      155.799        0.484      337.466        9.456      843.746
02/28/2014  13:13:00      278.231     -227.138      -23.295      167.376      252.947      134.733    28014.582    63982.341    18153.099       11.983        5.508      359.172      161.551        0.202      337.328        9.225      843.755
02/28/2014  13:14:00      213.922     -213.278      -36.761      159.779      210.156      123.718    25529.319    44165.727    15306.128        8.879        4.250      302.076      144.043        0.227      337.263        9.115      843.761
02/28/2014  13:15:00      128.499     -100.089       32.167      134.901      225.057      116.135    18198.357    50650.629    13487.317        5.494        4.117      162.880      146.058        0.804      337.400        9.344      843.835
02/28/2014  13:16:00      114.814      -57.055       53.760      107.580      205.135      103.618    11573.467    42080.541    10736.595        4.185        3.220      128.209      135.060        1.110      337.447        9.426      843.863
02/28/2014  13:17:00      137.713     -208.552      -15.848      104.247      155.598       77.140    10867.335    24210.744     5950.594        5.186        2.051      249.917       86.696        0.120      337.408        9.358      843.851
02/28/2014  13:18:00      153.337     -106.707       39.386      169.101      213.487      102.632    28595.049    45576.830    10533.358        6.056        4.235      186.812      144.197        0.596      337.493        9.503      843.832
02/28/2014  13:19:00      178.569     -118.517       16.451      137.586      204.585      113.887    18929.863    41855.074    12970.260        5.997        3.688      214.320      150.677        0.494      337.483        9.484      843.804
02/28/2014  13:20:00      252.645     -267.109      -17.846      130.013      209.278      100.605    16903.485    43797.149    10121.405       10.315        3.541      367.664      139.066        0.143      337.321        9.212      843.785
02/28/2014  13:21:00       87.666       -3.255       68.203      101.828       92.064       78.301    10368.903     8475.828     6131.052        1.866        1.249       87.727       81.229        0.857      337.662        9.787      843.807
02/28/2014  13:22:00       96.909       45.717       91.963      134.758      169.222       91.258    18159.593    28636.202     8327.966        3.752        2.756      107.151      117.521        1.203      337.530        9.564      843.812
02/28/2014  13:23:00      -30.649       -6.034       32.900       72.137       84.993       47.756     5203.780     7223.745     2280.647        0.838        0.735       31.237       51.365        2.704      337.802       10.023      843.814
02/28/2014  13:24:00       76.221      -47.929       36.160       60.241       98.435       64.035     3628.952     9689.365     4100.467        1.341        0.871       90.038       68.850        0.585      337.759        9.950      843.810
02/28/2014  13:25:00      -17.300      -41.396       49.885       58.671       75.369       39.771     3442.286     5680.415     1581.729        0.760        0.535       44.866       36.335        0.656      338.009       10.370      843.790
02/28/2014  13:26:00       27.704      -16.587       78.237       57.650      119.563       76.789     3323.518    14295.321     5896.526        1.534        1.176       32.290       73.685        5.207      337.835       10.077      843.785
02/28/2014  13:27:00      121.204      -80.354       42.487      121.780      190.634       94.450    14830.301    36341.450     8920.882        4.151        3.005      145.421      116.559        0.642      337.650        9.765      843.748
02/28/2014  13:28:00       73.579      -43.919       55.920      110.120      145.982      104.068    12126.449    21310.628    10830.176        2.736        2.213       85.689      104.059        1.475      337.579        9.646      843.737
02/28/2014  13:29:00        9.043      -75.154       37.170       51.066      111.308       67.942     2607.754    12389.426     4616.106        1.336        0.981       75.696       73.650        0.947      337.733        9.905      843.743
02/28/2014  13:30:00      109.028     -104.859       37.706      115.396      153.988       75.510    13316.220    23712.444     5701.813        3.351        2.137      151.270       99.284        0.431      337.659        9.783      843.734
02/28/2014  13:31:00      111.704     -107.335       23.863      116.760      107.472       87.214    13632.952    11550.226     7606.363        2.867        1.639      154.915       86.358        0.311      337.632        9.736      843.725
02/28/2014  13:32:00       34.883      -40.059       65.208       95.329      123.513       78.754     9087.579    15255.430     6202.216        1.880        1.527       53.118       82.619        2.419      337.583        9.654      843.729
02/28/2014  13:33:00      -35.188       29.160       85.869       51.162       70.963       50.806     2617.596     5035.794     2581.238        0.985        0.512       45.700       47.956        1.101      337.753        9.940      843.714
02/28/2014  13:34:00       31.853      -38.883       30.935       45.297       58.656       49.380     2051.797     3440.472     2438.357        0.571        0.397       50.265       41.630        0.686      337.659        9.783      843.706
02/28/2014  13:35:00       63.283      -21.345       40.953       76.816       96.208       56.601     5900.639     9255.918     3203.709        1.225        0.918       66.786       59.545        0.795      337.686        9.826      843.695
02/28/2014  13:36:00       28.070      -38.562       35.864       75.287      106.982       63.385     5668.150    11445.066     4017.645        1.234        1.057       47.697       49.047        1.057      337.739        9.917      843.702
02/28/2014  13:37:00       31.427      -62.600       50.100       59.810      112.212       65.054     3577.246    12591.518     4232.000        1.391        1.020       70.046       77.042        1.210      337.606        9.692      843.688
02/28/2014  13:38:00       83.300      -95.405        3.209       77.160      109.557       48.812     5953.725    12002.680     2382.572        1.819        1.017      126.653       62.077        0.240      337.527        9.559      843.679
02/28/2014  13:39:00       77.207     -107.989       11.433       78.517      104.297       62.857     6164.882    10877.829     3950.964        1.937        1.050      132.750       73.112        0.303      337.523        9.553      843.654
02/28/2014  13:40:00       53.444      -38.572       21.290       56.901       95.869       51.019     3237.752     9190.869     2602.945        0.991        0.752       65.910       65.137        0.977      337.542        9.585      843.631
02/28/2014  13:41:00       50.800     -108.052        5.721       82.759       72.863       39.356     6849.115     5308.977     1548.900        1.400        0.685      119.398       39.631        0.110      337.626        9.727      843.606
02/28/2014  13:42:00      114.697     -163.059       -1.551      101.939      105.173       74.127    10391.534    11061.386     5494.834        3.334        1.347      199.358       64.663        0.105      337.465        9.456      843.569
02/28/2014  13:43:00      119.664     -197.241      -11.693       73.629      101.637       49.515     5421.290    10330.100     2451.757        3.578        0.910      230.702       36.893        0.026      337.518        9.544      843.544
02/28/2014  13:44:00       88.947     -156.158       15.742       98.821      124.380       65.741     9765.598    15470.320     4321.820        3.105        1.478      179.713       63.625        0.125      337.592        9.669      843.516
02/28/2014  13:45:00       34.844       13.954      101.337       88.167      116.307       71.943     7773.332    13527.336     5175.804        1.907        1.324       37.534       77.741        4.290      337.481        9.483      843.477
02/28/2014  13:46:00       28.658      -57.069       15.586       67.945      111.315       53.574     4616.521    12391.074     2870.184        1.210        0.994       63.861       67.135        1.105      337.572        9.637      843.454
02/28/2014  13:47:00      -26.820       16.952       49.085       32.878       43.893       32.997     1080.973     1926.601     1088.812        0.376        0.205       31.728       22.215        0.490      337.677        9.813      843.415
02/28/2014  13:48:00        6.828      -37.657       20.034       43.921       62.305       40.296     1929.033     3881.949     1623.785        0.465        0.372       38.271       34.537        0.814      337.667        9.795      843.363
02/28/2014  13:49:00       13.847     -128.169       13.072      114.338       66.095       46.532    13073.261     4368.568     2165.212        1.820        0.980      128.914       44.401        0.119      337.545        9.590      843.323
02/28/2014  13:50:00       13.932      -87.896       18.005       88.369       88.687       54.019     7809.095     7865.314     2918.022        1.342        0.930       88.993       50.105        0.317      337.489        9.497      843.298
02/28/2014  13:51:00        1.743      -48.002        2.527       82.060       55.180       46.709     6733.769     3044.783     2181.731        0.713        0.598       48.034       40.756        0.720      337.463        9.453      843.288
02/28/2014  13:52:00       88.271     -111.890        0.638       86.597       86.411       46.598     7499.117     7466.845     2171.359        1.872        0.857      142.517       60.095        0.178      337.350        9.262      843.291
02/28/2014  13:53:00       39.356      -76.253        8.910       56.119       65.825       46.556     3149.319     4332.870     2167.507        0.854        0.482       85.810       38.677        0.203      337.515        9.541      843.310
02/28/2014  13:54:00       44.809     -115.357       -4.133       96.708       91.700       56.858     9352.354     8408.979     3232.796        1.816        1.050      123.754       51.115        0.171      337.510        9.531      843.347
02/28/2014  13:55:00     -109.468      -50.687        1.592       87.099       58.069       39.485     7586.167     3371.988     1559.028        1.353        0.626      120.633       31.648        0.069      337.433        9.404      843.376
02/28/2014  13:56:00      -89.910     -114.210       18.952       97.384       99.600       49.991     9483.740     9920.181     2499.141        2.169        1.095      145.354       46.983        0.104      337.239        9.077      843.406
02/28/2014  13:57:00     -209.946      -92.009        0.883      136.099       87.014       58.645    18522.808     7571.375     3439.201        4.103        1.477      229.222       72.667        0.100      337.056        8.769      843.407
02/28/2014  13:58:00     -266.213     -160.947      -12.904      132.561      117.169       64.153    17572.288    13728.641     4115.662        6.617        1.771      311.084       62.919        0.041      336.923        8.547      843.381
02/28/2014  13:59:00     -181.302      -93.127        9.246      110.548       90.760       54.757    12220.843     8237.352     2998.369        3.254        1.173      203.821       51.676        0.064      336.961        8.610      843.319
02/28/2014  14:00:00     -175.308     -176.810      -11.808       98.724       65.765       44.050     9746.460     4325.060     1940.398        3.907        0.801      248.987       46.871        0.035      336.859        8.439      843.242
02/28/2014  14:01:00     -127.226      -68.917      -11.965       52.624       44.338       29.883     2769.299     1965.844      892.992        1.335        0.281      144.692       24.297        0.028      336.878        8.472      843.184
02/28/2014  14:02:00      -82.488      -35.981        7.877       57.810       36.958       30.374     3341.956     1365.928      922.578        0.689        0.282       89.994       22.883        0.065      337.016        8.704      843.143
02/28/2014  14:03:00      -93.273      -97.842        0.021       74.065      105.878       41.722     5485.643    11210.084     1740.756        1.835        0.922      135.177       50.113        0.137      336.950        8.594      843.109
02/28/2014  14:04:00      -90.402     -140.134       -8.550       72.982       90.537       37.592     5326.402     8196.914     1413.143        2.141        0.747      166.764       45.657        0.075      337.009        8.691      843.075
02/28/2014  14:05:00     -117.576      -65.602        8.006       87.442       52.788       31.822     7646.049     2786.565     1012.634        1.482        0.572      134.640       41.060        0.093      337.124        8.886      843.029
02/28/2014  14:06:00     -173.778      -44.942       -0.215       74.906       47.393       32.935     5610.914     2246.123     1084.714        2.058        0.447      179.495       38.047        0.045      337.064        8.784      842.976
02/28/2014  14:07:00     -201.088     -106.041      -17.950       32.371       31.891       25.381     1047.866     1017.039      644.192        2.736        0.135      227.335       18.290        0.006      336.893        8.497      842.945
02/28/2014  14:08:00      -61.890      -61.782       12.682       56.664       41.969       29.616     3210.830     1761.389      877.082        0.683        0.292       87.449       34.335        0.154      337.138        8.909      842.929
02/28/2014  14:09:00      -64.827      -74.217        2.184       56.833       33.399       27.534     3230.041     1115.488      758.147        0.741        0.255       98.543       26.487        0.072      337.155        8.939      842.913
02/28/2014  14:10:00      -74.980      -82.537       -4.130       32.334       36.939       18.778     1045.458     1364.458      352.623        0.761        0.138      111.509       15.378        0.019      337.034        8.737      842.917
02/28/2014  14:11:00      -61.315      -66.229      -11.476       27.125       52.776       19.450      735.766     2785.348      378.286        0.609        0.195       90.254       17.222        0.036      336.990        8.661      842.913
02/28/2014  14:12:00      -81.411      -25.559       -1.839       37.006       36.584       21.723     1369.438     1338.364      471.895        0.523        0.159       85.329       19.767        0.054      337.085        8.819      842.899
02/28/2014  14:13:00      -47.855      -10.740        5.384       23.441       22.927       16.001      549.463      525.627      256.016        0.188        0.067       49.045       14.541        0.088      337.233        9.068      842.867
02/28/2014  14:14:00      -21.326      -25.296       10.861       42.918       26.413       16.971     1841.983      697.636      288.009        0.202        0.141       33.086       18.556        0.315      337.438        9.412      842.823
02/28/2014  14:15:00     -144.820      -27.428        8.891       90.908       61.926       38.739     8264.222     3834.812     1500.725        1.770        0.680      147.395       49.237        0.112      337.204        9.019      842.768
02/28/2014  14:16:00      -51.437      -79.400        8.544       61.146       60.816       33.552     3738.802     3698.588     1125.735        0.879        0.428       94.605       35.064        0.137      337.273        9.137      842.721
02/28/2014  14:17:00      -68.190      -91.909       -9.708       43.282       47.882       37.100     1873.355     2292.651     1376.443        0.937        0.277      114.443       22.315        0.038      337.120        8.879      842.666
02/28/2014  14:18:00      -67.748     -102.705        5.740       75.526       56.153       42.094     5704.250     3153.169     1771.884        1.290        0.531      123.038       45.686        0.138      337.323        9.220      842.640
02/28/2014  14:19:00      -53.623      -78.942       -6.692       67.455       37.685       34.718     4550.129     1420.189     1205.332        0.816        0.359       95.432       24.746        0.067      337.219        9.045      842.653
02/28/2014  14:20:00        4.534      -21.957       29.243       43.376       48.417       49.067     1881.446     2344.216     2407.584        0.399        0.332       22.420       24.988        1.242      337.616        9.710      842.647
02/28/2014  14:21:00       62.044       46.470       46.074       39.527       38.030       43.401     1562.416     1446.248     1883.639        0.651        0.245       77.517       15.730        0.041      337.179        8.977      842.639
02/28/2014  14:22:00      -30.185       38.438        2.176       37.276       33.932       23.104     1389.515     1151.409      533.785        0.273        0.154       48.874       18.856        0.149      337.387        9.327      842.630
02/28/2014  14:23:00       40.014       58.157       62.028       46.915       33.933       49.612     2200.992     1151.464     2461.329        0.732        0.291       70.593       33.296        0.222      337.427        9.394      842.622
02/28/2014  14:24:00        5.895       -0.501       33.537       57.112       65.121       38.176     3261.780     4240.786     1457.425        0.506        0.448        5.917       41.756       49.805      337.429        9.396      842.630
02/28/2014  14:25:00      -65.263      -78.092       23.198       49.517       63.592       30.897     2451.949     4043.938      954.614        0.917        0.373      101.773       31.667        0.097      337.337        9.242      842.669
02/28/2014  14:26:00       24.277       12.258       72.022       59.077       74.912       47.352     3490.089     5611.804     2242.256        0.863        0.567       27.196       41.110        2.285      337.395        9.340      842.697
02/28/2014  14:27:00       50.639      -44.087       43.581       79.691      103.504       70.830     6350.602    10712.982     5016.874        1.424        1.104       67.141       68.631        1.045      337.276        9.141      842.740
02/28/2014  14:28:00       44.419      117.869      137.899       60.380       66.982       48.796     3645.747     4486.625     2381.033        2.270        0.526      125.961       47.971        0.145      337.136        8.905      842.754
02/28/2014  14:29:00       58.942       93.121      112.197       58.206       55.459       41.805     3387.928     3075.692     1747.641        1.647        0.411      110.208       36.978        0.113      337.055        8.770      842.742
02/28/2014  14:30:00       91.077       39.353       41.140       71.730       67.634       54.113     5145.181     4574.296     2928.188        1.209        0.632       99.215       46.909        0.224      337.102        8.848      842.684
02/28/2014  14:31:00      105.639       44.920       61.146       57.701       77.609       52.417     3329.354     6023.231     2747.594        1.451        0.605      114.793       46.923        0.167      337.127        8.891      842.614
02/28/2014  14:32:00       87.825     -143.221       11.537       56.315       41.770       42.386     3171.405     1744.701     1796.556        1.753        0.336      168.004       35.546        0.045      337.097        8.840      842.551
02/28/2014  14:33:00       47.384      -28.728       23.258       35.885       93.771       59.959     1287.748     8792.966     3595.124        0.864        0.684       55.412       66.973        1.461      337.260        9.113      842.496
02/28/2014  14:34:00      125.755      113.376       56.989       68.057       50.772       61.323     4631.712     2577.797     3760.515        2.144        0.549      169.318       56.359        0.111      336.992        8.664      842.456
02/28/2014  14:35:00      114.347       83.091        8.979       32.351       27.333       22.022     1046.556      747.105      484.949        1.117        0.114      141.348       12.894        0.008      336.944        8.584      842.455
02/28/2014  14:36:00       53.041       73.082       -6.602       55.666       41.259       30.373     3098.731     1702.337      922.510        0.696        0.286       90.301       22.575        0.062      337.001        8.679      842.454
02/28/2014  14:37:00       51.631       89.251      -14.121       30.881       44.463       22.158      953.662     1976.935      490.982        0.713        0.171      103.109       21.960        0.045      336.969        8.625      842.487
02/28/2014  14:38:00       23.824       26.025       -3.755       19.448       29.857       17.153      378.227      891.465      294.221        0.141        0.078       35.283       10.535        0.089      337.019        8.708      842.534
02/28/2014  14:39:00        9.382       -7.216        7.279       15.448       12.265       10.429      238.647      150.435      108.764        0.035        0.025       11.836        4.829        0.166      337.239        9.077      842.561
02/28/2014  14:40:00       14.231        9.607        4.757       34.452       25.056       15.573     1186.908      627.815      242.525        0.119        0.103       17.171       13.920        0.657      337.387        9.325      842.590
02/28/2014  14:41:00       22.989       13.428       10.423       30.869       24.386       21.073      952.864      594.680      444.088        0.140        0.100       26.623       17.944        0.454      337.376        9.309      842.596
02/28/2014  14:42:00       33.149       51.716        2.109       44.282       37.294       24.554     1960.872     1390.856      602.890        0.387        0.198       61.428       19.813        0.104      337.298        9.178      842.604
02/28/2014  14:43:00       49.410       11.350       -3.383       48.741       29.430       25.585     2375.654      866.129      654.595        0.324        0.195       50.697       16.045        0.100      337.378        9.310      842.595
02/28/2014  14:44:00       23.189       19.084       -3.941       50.244       29.359       23.360     2524.464      861.937      545.710        0.242        0.197       30.032       11.190        0.139      337.429        9.397      842.597
02/28/2014  14:45:00       -2.820        3.488       17.375       39.770       27.094       29.549     1581.666      734.070      873.139        0.175        0.159        4.485       23.545       27.554      337.388        9.327      842.580
02/28/2014  14:46:00      -34.971        7.958       13.103       45.202       35.686       27.596     2043.226     1273.517      761.524        0.277        0.204       35.865       27.646        0.594      337.349        9.265      842.561
02/28/2014  14:47:00      -53.601       28.559        6.524       35.800       23.412       22.920     1281.649      548.111      525.317        0.304        0.118       60.735       16.549        0.074      337.365        9.290      842.529
02/28/2014  14:48:00      -77.412       29.513       -6.419       29.929       20.729       16.480      895.729      429.704      271.604        0.425        0.080       82.846       14.286        0.030      337.291        9.166      842.501
02/28/2014  14:49:00     -120.744      -30.614      -12.512       28.783       29.253       18.242      828.464      855.719      332.758        0.884        0.101      124.565       13.342        0.011      337.215        9.039      842.485
02/28/2014  14:50:00     -170.626      -39.852       -7.984       87.020       29.471       22.871     7572.555      868.526      523.060        1.986        0.448      175.218       19.081        0.012      337.205        9.019      842.477
02/28/2014  14:51:00     -179.630      -27.946       -5.707       63.943       45.590       24.508     4088.652     2078.404      600.631        1.992        0.338      181.791       24.400        0.018      337.162        8.948      842.491
02/28/2014  14:52:00      -50.238      -45.799       17.222       60.766       55.048       30.473     3692.530     3030.306      928.612        0.628        0.383       67.981       28.746        0.179      337.347        9.261      842.504
02/28/2014  14:53:00      -58.974      -73.590        3.335       50.312       58.032       26.289     2531.347     3367.713      691.134        0.775        0.330       94.305       26.412        0.078      337.303        9.186      842.522
02/28/2014  14:54:00      -51.761     -101.524       -8.817       34.080       26.185       15.894     1161.473      685.658      252.606        0.758        0.105      113.958        6.169        0.003      337.135        8.904      842.530
02/28/2014  14:55:00      -98.170      -46.706        2.744       62.538       43.447       27.541     3911.009     1887.628      758.534        0.919        0.328      108.714       35.013        0.104      337.317        9.209      842.511
02/28/2014  14:56:00      -27.751      -12.232       14.762       33.706       15.939       14.913     1136.128      254.057      222.397        0.137        0.081       30.328       10.729        0.125      337.473        9.470      842.499
02/28/2014  14:57:00      -39.173      -19.186        4.373       33.697       23.197       18.835     1135.494      538.112      354.773        0.197        0.101       43.619       14.434        0.110      337.381        9.317      842.506
02/28/2014  14:58:00      -45.335       -7.851      -11.746       14.010       19.882       18.348      196.276      395.307      336.636        0.159        0.046       46.009       15.866        0.119      337.232        9.069      842.517
02/28/2014  14:59:00      -73.175        4.847       -0.623       21.462       17.420       21.258      460.603      303.443      451.902        0.330        0.061       73.336        9.495        0.017      337.291        9.165      842.530
02/28/2014  15:00:00      -10.786       11.095        8.801       18.134       16.193       15.839      328.856      262.217      250.869        0.058        0.042       15.474       14.932        0.931      337.509        9.530      842.538
02/28/2014  15:01:00      -96.102      -30.627       -2.879       46.186       32.189       17.836     2133.169     1036.125      318.122        0.683        0.174      100.864       10.442        0.011      337.437        9.410      842.565
02/28/2014  15:02:00     -130.552      -61.040        0.622       57.737       44.614       31.342     3333.586     1990.408      982.312        1.354        0.315      144.117       32.817        0.052      337.326        9.224      842.585
02/28/2014  15:03:00     -119.773      -34.063      -16.926       30.815       33.557       25.131      949.588     1126.081      631.587        0.925        0.135      124.523       20.723        0.028      337.237        9.077      842.614
02/28/2014  15:04:00      -64.788       54.347      -16.053       26.513       31.802       21.321      702.957     1011.386      454.605        0.479        0.108       84.564       20.749        0.060      337.236        9.073      842.628
02/28/2014  15:05:00      -39.470       42.302      -19.422       18.206       22.023       10.268      331.444      485.019      105.442        0.232        0.046       57.856        6.889        0.014      337.141        8.913      842.632
02/28/2014  15:06:00       -9.377       84.128      -14.501       10.458       38.688       14.230      109.364     1496.774      202.480        0.459        0.090       84.649       11.605        0.019      337.235        9.069      842.634
02/28/2014  15:07:00        0.566      163.341      -16.710       29.311       35.313       23.141      859.129     1247.032      535.511        1.480        0.132      163.342       20.191        0.015      337.227        9.059      842.618
02/28/2014  15:08:00      -24.057       89.918       -2.676       35.737       52.135       26.825     1277.117     2718.108      719.555        0.669        0.236       93.080       26.649        0.082      337.352        9.268      842.599
02/28/2014  15:09:00       22.257       44.079       -5.334       16.795       33.858       14.062      282.064     1146.398      197.749        0.205        0.081       49.380       14.842        0.090      337.294        9.171      842.590
02/28/2014  15:10:00        3.001       22.494       -1.345       15.355       19.969       15.780      235.775      398.749      249.003        0.070        0.044       22.693        4.634        0.042      337.317        9.211      842.590
02/28/2014  15:11:00      -16.868       49.369      -11.746       33.050       42.012       13.410     1092.323     1765.008      179.825        0.295        0.152       52.171        9.835        0.036      337.328        9.226      842.600
02/28/2014  15:12:00      -82.483      -14.424       -5.773       38.547       39.084       21.212     1485.898     1527.559      449.948        0.525        0.173       83.735       19.057        0.052      337.458        9.446      842.596
02/28/2014  15:13:00      -99.455      -15.814       -7.872       31.186       27.389       19.670      972.582      750.153      386.891        0.616        0.105      100.705       12.650        0.016      337.373        9.305      842.603
02/28/2014  15:14:00     -135.099      -10.351      -17.425       26.744       28.047       17.098      715.238      786.613      292.325        1.023        0.090      135.494       11.615        0.007      337.343        9.253      842.610
02/28/2014  15:15:00     -113.315      -18.534       -6.782       53.372       53.780       19.432     2848.537     2892.297      377.590        0.967        0.306      114.820       23.835        0.043      337.385        9.323      842.642
02/28/2014  15:16:00      -76.646      -73.647        5.485       69.681       44.527       37.632     4855.492     1982.651     1416.137        0.979        0.413      106.294       39.764        0.140      337.544        9.589      842.672
02/28/2014  15:17:00     -105.896      -82.663       12.723       82.564       64.864       42.823     6816.821     4207.386     1833.815        1.553        0.643      134.339       43.465        0.105      337.535        9.573      842.680
02/28/2014  15:18:00      -66.144      -88.151        0.218       94.622       43.324       35.207     8953.367     1876.953     1239.553        1.211        0.603      110.207       21.242        0.037      337.569        9.631      842.715
02/28/2014  15:19:00      -54.771      -91.015        3.314       55.223       74.204       31.471     3049.556     5506.190      990.447        1.042        0.477      106.224       25.694        0.059      337.540        9.583      842.764
02/28/2014  15:20:00     -127.180      -65.451        5.854       98.248       73.765       31.774     9652.603     5441.320     1009.585        1.830        0.805      143.034       30.159        0.044      337.560        9.615      842.801
02/28/2014  15:21:00     -177.336     -166.488       -5.259      103.518      119.944       48.786    10715.881    14386.564     2380.094        4.333        1.374      243.241       53.721        0.049      337.450        9.428      842.831
02/28/2014  15:22:00     -138.037     -222.387        1.946      103.045      160.877       53.704    10618.276    25881.304     2884.137        5.394        1.969      261.745       57.089        0.048      337.354        9.269      842.850
02/28/2014  15:23:00     -188.255     -217.452      -13.222       92.822      123.497       51.840     8615.898    15251.426     2687.431        5.472        1.328      287.620       38.143        0.018      337.333        9.232      842.854
02/28/2014  15:24:00     -216.674     -220.812       -3.369      118.882      112.533       55.587    14133.041    12663.664     3089.949        6.280        1.494      309.363       52.967        0.029      337.344        9.253      842.873
02/28/2014  15:25:00     -213.032     -151.592       16.100      169.864       92.825       65.576    28853.617     8616.558     4300.214        5.519        2.089      261.463       66.890        0.065      337.288        9.158      842.882
02/28/2014  15:26:00     -177.131     -146.857       -3.959      100.564      125.106       57.978    10113.194    15651.548     3361.463        4.104        1.456      230.092       47.850        0.043      337.214        9.035      842.923
02/28/2014  15:27:00     -145.048     -216.435       -6.719       81.510      133.604       44.740     6643.801    17849.923     2001.701        4.721        1.325      260.544       45.794        0.031      337.178        8.973      842.939
02/28/2014  15:28:00     -185.494     -188.338       -6.472      103.186      100.036       58.763    10647.353    10007.297     3453.135        4.701        1.205      264.347       31.433        0.014      337.155        8.936      842.956
02/28/2014  15:29:00     -138.946     -215.764        2.454      116.610      105.436       59.972    13597.874    11116.753     3596.615        4.708        1.416      256.633       61.323        0.057      337.153        8.933      842.989
02/28/2014  15:30:00     -208.049     -115.432        9.819      118.994       93.888       50.366    14159.625     8814.946     2536.763        4.110        1.276      237.927       45.921        0.037      337.094        8.834      842.986
02/28/2014  15:31:00     -179.109     -147.424       -1.535      146.190      137.101       68.072    21371.512    18796.795     4633.855        4.930        2.240      231.978       71.562        0.095      337.065        8.784      843.016
02/28/2014  15:32:00     -133.787     -109.913       13.413      119.355      106.783       48.190    14245.660    11402.639     2322.229        2.906        1.399      173.147       46.931        0.073      337.039        8.741      843.034
02/28/2014  15:33:00     -193.543     -202.474       -1.171      110.547      121.005       55.073    12220.609    14642.321     3033.019        5.417        1.495      280.098       41.914        0.022      337.012        8.694      843.056
02/28/2014  15:34:00     -134.922     -164.466        6.749      136.123      143.802       50.957    18529.475    20678.913     2596.591        4.354        2.090      212.728       62.002        0.085      336.947        8.588      843.053
02/28/2014  15:35:00     -140.649     -196.247        8.131      122.109      157.872       57.413    14910.705    24923.711     3296.263        5.074        2.157      241.443       67.963        0.079      336.876        8.470      843.049
02/28/2014  15:36:00     -161.258     -162.148       12.614      140.905      142.535       70.511    19854.356    20316.137     4971.777        4.879        2.257      228.684       79.456        0.121      336.842        8.411      843.041
02/28/2014  15:37:00     -175.144     -169.842        4.316      140.807      102.410       71.115    19826.620    10487.881     5057.414        4.745        1.769      243.971       63.299        0.067      336.829        8.390      843.065
02/28/2014  15:38:00     -184.275     -241.263       -8.264      116.830      121.122       57.023    13649.171    14670.527     3251.566        6.190        1.579      303.587       57.704        0.036      336.750        8.258      843.096
02/28/2014  15:39:00     -185.807     -153.745        1.978      130.263       81.739       52.860    16968.464     6681.267     2794.191        4.230        1.322      241.168       65.491        0.074      336.743        8.247      843.094
02/28/2014  15:40:00     -121.401     -118.776       -0.786      105.995       80.772       49.076    11234.994     6524.128     2408.429        2.450        1.008      169.841       52.476        0.095      336.741        8.245      843.106
02/28/2014  15:41:00     -110.505     -198.333       -4.929       78.369      113.743       45.704     6141.713    12937.563     2088.868        3.637        1.058      227.040       42.038        0.034      336.702        8.180      843.114
02/28/2014  15:42:00      -93.015     -159.975       -5.969       69.050      103.550       49.431     4767.866    10722.659     2443.417        2.610        0.897      185.051       40.792        0.049      336.685        8.152      843.109
02/28/2014  15:43:00     -135.008     -214.418      -15.113       58.775       82.966       36.470     3454.454     6883.323     1330.046        3.805        0.583      253.382       28.944        0.013      336.676        8.135      843.093
02/28/2014  15:44:00     -212.563     -210.278      -10.950      109.425      106.735       41.204    11973.917    11392.410     1697.761        5.729        1.253      298.998       50.287        0.028      336.634        8.066      843.075
02/28/2014  15:45:00     -209.610     -239.591      -12.350      100.774      101.810       51.741    10155.367    10365.203     2677.134        6.234        1.160      318.340       58.267        0.034      336.613        8.031      843.066
02/28/2014  15:46:00     -114.245     -108.977        4.572       86.793       91.553       43.491     7533.057     8381.896     1891.453        2.137        0.890      157.885       39.816        0.064      336.595        8.003      843.059
02/28/2014  15:47:00     -151.143      -92.063       -1.936      106.824       54.258       39.149    11411.317     2943.897     1532.630        2.360        0.794      176.974       32.100        0.033      336.611        8.030      843.036
02/28/2014  15:48:00     -163.347     -116.518       -3.043      102.828       63.741       34.696    10573.679     4062.938     1203.846        2.805        0.792      200.646       35.043        0.031      336.578        7.973      843.015
02/28/2014  15:49:00     -131.777     -120.493      -10.592       52.662       84.904       33.070     2773.336     7208.720     1093.617        2.153        0.554      178.561       30.718        0.030      336.612        8.030      843.012
02/28/2014  15:50:00      -64.283     -118.567        8.069       58.912       55.516       31.640     3470.582     3082.025     1001.119        1.290        0.378      134.872       34.867        0.067      336.648        8.092      843.025
02/28/2014  15:51:00     -106.465     -106.784       -1.945       84.277       54.425       31.300     7102.686     2962.103      979.721        1.689        0.552      150.790        5.386        0.001      336.658        8.108      843.023
02/28/2014  15:52:00      -88.290     -129.443       -5.173       79.273       54.991       44.670     6284.206     3023.979     1995.436        1.794        0.565      156.687       28.211        0.032      336.587        7.990      843.035
02/28/2014  15:53:00      -92.721     -123.641        4.443       73.401       85.300       37.410     5387.641     7276.124     1399.511        1.898        0.703      154.545       40.618        0.069      336.580        7.976      843.046
02/28/2014  15:54:00      -92.781     -193.306       -0.414       84.091       65.763       45.052     7071.265     4324.804     2029.644        2.970        0.671      214.419       43.941        0.042      336.591        7.994      843.038
02/28/2014  15:55:00      -79.752     -106.036       14.887       66.715       63.114       38.286     4450.848     3983.419     1465.827        1.386        0.495      132.680       46.617        0.123      336.590        7.993      843.030
02/28/2014  15:56:00      -91.428     -126.525       -2.650       72.435       60.532       35.923     5246.858     3664.064     1290.473        1.729        0.510      156.101       36.205        0.054      336.557        7.940      843.028
02/28/2014  15:57:00      -72.806     -116.450       -2.087       42.174       68.335       34.179     1778.685     4669.728     1168.176        1.324        0.381      137.337       23.540        0.029      336.575        7.968      843.001
02/28/2014  15:58:00     -104.658      -80.285        7.326       59.668       58.031       37.191     3560.246     3367.600     1383.174        1.288        0.416      131.905       37.862        0.082      336.567        7.956      842.975
02/28/2014  15:59:00      -91.938      -53.443        2.622       63.637       41.145       31.421     4049.717     1692.931      987.265        0.902        0.336      106.342       20.114        0.036      336.500        7.843      842.927
02/28/2014  16:00:00      -60.459      -98.561       -5.409       46.566       50.079       32.722     2168.382     2507.939     1070.744        0.957        0.287      115.627       22.598        0.038      336.521        7.880      842.879
02/28/2014  16:01:00     -113.068      -62.896       -2.907       52.688       45.712       31.725     2776.023     2089.555     1006.452        1.131        0.294      129.384       33.215        0.066      336.495        7.836      842.836
02/28/2014  16:02:00      -89.709      -32.338        5.368       37.239       37.970       28.150     1386.771     1441.724      792.405        0.637        0.181       95.360       23.760        0.062      336.524        7.884      842.789
02/28/2014  16:03:00      -73.809      -43.219       -1.804       46.169       30.556       17.342     2131.540      933.698      300.755        0.534        0.168       85.531       18.784        0.048      336.539        7.909      842.747
02/28/2014  16:04:00     -101.026      -79.180        0.527       48.655       47.373       24.826     2367.353     2244.161      616.340        1.085        0.261      128.358       22.143        0.030      336.478        7.807      842.689
02/28/2014  16:05:00     -119.791     -106.206       -3.817       48.925       55.163       27.410     2393.700     3042.925      751.326        1.592        0.309      160.093       26.020        0.026      336.412        7.694      842.621
02/28/2014  16:06:00      -76.388      -51.410       14.165       81.611       59.726       28.106     6660.417     3567.217      789.974        0.985        0.551       92.077       33.606        0.133      336.468        7.790      842.557
02/28/2014  16:07:00     -163.725     -126.303        4.192       60.764       71.906       35.870     3692.254     5170.510     1286.682        2.646        0.507      206.781       32.695        0.025      336.375        7.632      842.531
02/28/2014  16:08:00      -65.846     -123.162        7.888       52.913       62.800       32.050     2799.773     3943.836     1027.214        1.367        0.389      139.659       31.105        0.050      336.393        7.664      842.548
02/28/2014  16:09:00      -80.646      -61.764       14.238       92.669       41.732       34.034     8587.569     1741.596     1158.301        1.100        0.574      101.580       41.835        0.170      336.472        7.795      842.585
02/28/2014  16:10:00     -101.115     -129.130        0.821       62.681       54.037       38.780     3928.892     2919.958     1503.888        1.762        0.418      164.008       30.846        0.035      336.430        7.727      842.632
02/28/2014  16:11:00     -141.594     -117.198       -8.329       62.323       54.216       43.123     3884.095     2939.382     1859.633        2.127        0.434      183.805       42.025        0.052      336.328        7.554      842.682
02/28/2014  16:12:00     -123.934     -119.690      -15.289       89.404       67.309       43.161     7993.130     4530.442     1862.831        2.215        0.719      172.294       34.708        0.041      336.375        7.632      842.726
02/28/2014  16:13:00      -52.180     -107.490        2.627       56.840       54.178       32.531     3230.759     2935.230     1058.237        1.075        0.361      119.486       23.316        0.038      336.363        7.613      842.764
02/28/2014  16:14:00      -83.994     -142.167       -9.436       62.278       55.102       41.220     3878.521     3036.218     1699.053        1.798        0.431      165.125       38.299        0.054      336.361        7.610      842.775
02/28/2014  16:15:00     -103.242     -102.779       -7.432       70.663       42.472       29.416     4993.223     1803.894      865.276        1.447        0.383      145.680       26.301        0.033      336.373        7.630      842.809
02/28/2014  16:16:00     -101.279     -121.800       -6.794       60.765       42.363       25.395     3692.420     1794.639      644.930        1.563        0.307      158.407       17.939        0.013      336.322        7.546      842.843
02/28/2014  16:17:00      -62.498     -147.200        0.614       42.952       49.931       26.790     1844.871     2493.061      717.707        1.531        0.253      159.918       20.280        0.016      336.372        7.628      842.892
02/28/2014  16:18:00      -84.962     -133.287       -6.940       54.436       68.765       29.578     2963.244     4728.673      874.875        1.680        0.428      158.063       21.987        0.019      336.370        7.625      842.923
02/28/2014  16:19:00      -72.424      -82.039       15.168       48.849       45.816       32.841     2386.224     2099.113     1078.505        0.888        0.278      109.433       17.581        0.026      336.425        7.717      842.946
02/28/2014  16:20:00      -63.884      -96.500       -8.123       56.982       69.623       30.869     3247.000     4847.365      952.890        1.125        0.452      115.730       26.577        0.053      336.372        7.630      842.945
02/28/2014  16:21:00       -3.784       24.764       38.964       18.887       25.224       22.670      356.728      636.225      513.935        0.183        0.075       25.051       19.037        0.577      336.480        7.809      842.918
02/28/2014  16:22:00      -20.263       16.862       45.393       20.435       25.225       25.871      417.571      636.312      669.290        0.224        0.086       26.361       16.125        0.374      336.486        7.819      842.907
02/28/2014  16:23:00      -10.939       15.120       34.238       41.380       49.768       30.200     1712.303     2476.863      912.066        0.331        0.255       18.662       27.187        2.122      336.510        7.860      842.917
02/28/2014  16:24:00       42.827      -17.080       29.114       37.658       84.166       46.236     1418.119     7083.852     2137.764        0.680        0.532       46.107       56.298        1.491      336.537        7.906      842.933
02/28/2014  16:25:00      -27.964      -37.561        4.530       55.949       40.013       28.695     3130.244     1601.077      823.378        0.388        0.278       46.828       30.491        0.424      336.586        7.988      842.961
02/28/2014  16:26:00       -8.147      -47.467        6.432       40.192       35.882       22.067     1615.428     1287.491      486.948        0.287        0.169       48.161       20.533        0.182      336.648        8.091      842.993
02/28/2014  16:27:00       -0.978      -12.770       32.650       28.055       46.614       23.361      787.101     2172.824      545.752        0.237        0.175       12.808       16.698        1.700      336.646        8.089      843.010
02/28/2014  16:28:00       38.643      -32.713       38.542       47.643       58.847       42.577     2269.894     3463.004     1812.782        0.580        0.377       50.630       32.166        0.404      336.630        8.062      843.026
02/28/2014  16:29:00       27.124      -44.597       42.557       56.726      106.336       65.182     3217.824    11307.380     4248.711        1.165        0.939       52.198       76.103        2.126      336.549        7.926      843.012
02/28/2014  16:30:00        5.735       39.974       89.095       64.249       55.230       43.419     4127.910     3050.354     1885.169        0.931        0.453       40.383       45.268        1.257      336.466        7.786      842.986
02/28/2014  16:31:00       33.172      -68.985        1.738       59.544       68.434       56.962     3545.495     4683.171     3244.689        0.867        0.574       76.546       52.611        0.472      336.560        7.945      842.993
02/28/2014  16:32:00       21.660      -51.947       25.894       42.397       52.198       32.496     1797.468     2724.649     1056.015        0.471        0.279       56.282       25.777        0.210      336.551        7.930      842.987
02/28/2014  16:33:00       16.341      -54.545       41.844       42.699      101.977       42.923     1823.166    10399.408     1842.355        0.953        0.703       56.940       43.045        0.571      336.565        7.954      842.976
02/28/2014  16:34:00        8.721       22.890       49.976       28.379       44.014       24.429      805.393     1937.221      596.786        0.322        0.167       24.496       27.016        1.216      336.516        7.871      842.972
02/28/2014  16:35:00       -3.439      -21.234       40.621       58.260       51.156       38.967     3394.254     2616.961     1518.391        0.482        0.376       21.510       23.921        1.237      336.522        7.881      842.946
02/28/2014  16:36:00       -2.550        1.143       12.914       48.620       28.100       17.599     2363.888      789.596      309.722        0.182        0.173        2.794       16.940       36.750      336.582        7.982      842.956
02/28/2014  16:37:00      -12.421      -82.122       -0.391       22.107       47.083       30.736      488.712     2216.853      944.675        0.527        0.183       83.056       27.795        0.112      336.614        8.034      842.955
02/28/2014  16:38:00       45.117      -65.742        9.986       60.813       81.996       46.259     3698.221     6723.322     2139.849        0.951        0.628       79.735       51.399        0.416      336.520        7.877      842.964
02/28/2014  16:39:00       -1.735        0.630       41.329       17.579       37.956       26.990      309.034     1440.694      728.462        0.209        0.124        1.846       26.365      203.997      336.536        7.904      842.969
02/28/2014  16:40:00       53.352      -17.277       45.989       80.494      114.809       72.664     6479.290    13181.101     5280.116        1.510        1.247       56.079       80.550        2.063      336.448        7.756      842.967
02/28/2014  16:41:00       40.776       21.782      101.392       82.713      109.051       66.316     6841.462    11892.114     4397.777        1.777        1.157       46.229       78.613        2.892      336.390        7.658      842.962
02/28/2014  16:42:00       13.682        1.115       78.006       47.697      111.313       60.471     2274.985    12390.687     3656.736        1.229        0.916       13.727       65.242       22.589      336.435        7.734      842.944
02/28/2014  16:43:00       24.749      -78.800        1.110       36.689       46.110       35.470     1346.060     2126.099     1258.090        0.578        0.237       82.595       27.776        0.113      336.592        7.999      842.941
02/28/2014  16:44:00       76.749      -68.065        2.333       92.967      119.245       75.824     8642.931    14219.352     5749.272        1.957        1.431      102.583       67.640        0.435      336.349        7.588      842.864
02/28/2014  16:45:00       55.305       12.864       56.211       80.550       93.193       74.501     6488.341     8684.884     5550.461        1.355        1.036       56.782       79.037        1.938      336.350        7.591      842.809
02/28/2014  16:46:00       38.763      -43.135       26.619       48.827       69.324       48.593     2384.124     4805.805     2361.328        0.681        0.478       57.993       48.197        0.691      336.359        7.606      842.766
02/28/2014  16:47:00       22.469       -8.026       25.106       33.408       51.944       27.485     1116.071     2698.168      755.443        0.288        0.228       23.860       21.295        0.797      336.384        7.649      842.705
02/28/2014  16:48:00       63.129      -77.859       -6.645       41.960       30.434       26.205     1760.652      926.207      686.690        0.673        0.169      100.236        9.628        0.009      336.512        7.865      842.660
02/28/2014  16:49:00       19.389      -26.516       29.599       36.025       75.782       45.007     1297.791     5742.961     2025.611        0.551        0.453       32.849       45.579        1.925      336.477        7.805      842.625
02/28/2014  16:50:00       50.873      -36.691       23.434       51.010       70.268       60.304     2602.003     4937.608     3636.616        0.783        0.559       62.724       51.328        0.670      336.350        7.591      842.621
02/28/2014  16:51:00       62.883       -9.870       24.312       59.840       68.387       47.944     3580.853     4676.740     2298.644        0.760        0.528       63.653       42.776        0.452      336.352        7.595      842.633
02/28/2014  16:52:00        5.282       55.666       96.277       41.227       52.537       40.607     1699.698     2760.123     1648.962        0.925        0.305       55.916       39.883        0.509      336.374        7.633      842.636
02/28/2014  16:53:00       38.733      -78.020        6.997       53.691       66.672       51.350     2882.717     4445.105     2636.855        0.880        0.498       87.105       32.431        0.139      336.433        7.731      842.619
02/28/2014  16:54:00      127.295     -179.327      -31.344       41.432       59.659       33.290     1716.609     3559.151     1108.196        2.786        0.319      219.914       26.133        0.014      336.376        7.632      842.579
02/28/2014  16:55:00       72.353      -67.211       10.074       38.974       88.375       50.058     1518.962     7810.081     2505.771        1.084        0.592       98.753       59.724        0.366      336.469        7.792      842.535
02/28/2014  16:56:00       57.695       49.874       51.720       44.907       32.052       35.518     2016.612     1027.323     1261.535        0.640        0.215       76.263       26.542        0.121      336.352        7.595      842.492
02/28/2014  16:57:00       27.490       26.863       22.190       29.314       26.176       20.470      859.287      685.163      419.007        0.197        0.098       38.436       11.568        0.091      336.361        7.611      842.441
02/28/2014  16:58:00       27.809       48.256       50.775       45.422       31.072       24.453     2063.144      965.455      597.932        0.465        0.181       55.696       25.470        0.209      336.371        7.626      842.390
02/28/2014  16:59:00      121.195       92.144       68.184       68.955       58.100       45.780     4754.762     3375.571     2095.849        1.903        0.511      152.246       24.125        0.025      336.330        7.558      842.352
02/28/2014  17:00:00       50.213       36.928       75.837       46.772       66.357       36.304     2187.580     4403.294     1317.988        0.877        0.395       62.330       42.864        0.473      336.370        7.626      842.341
02/28/2014  17:01:00       72.622       66.283       81.829       44.515       47.839       36.271     1981.592     2288.599     1315.590        1.097        0.279       98.323       32.964        0.112      336.307        7.520      842.333
02/28/2014  17:02:00       53.677       36.719       64.383       47.382       47.518       38.166     2245.020     2257.937     1456.657        0.717        0.298       65.035       38.731        0.355      336.366        7.619      842.290
02/28/2014  17:03:00       41.664      -50.479       14.553       42.371       67.045       34.402     1795.278     4495.062     1183.521        0.598        0.374       65.452       39.058        0.356      336.382        7.647      842.237
02/28/2014  17:04:00       75.468     -126.988       -1.863       48.008       39.915       33.000     2304.747     1593.194     1089.000        1.341        0.249      147.721       27.173        0.034      336.357        7.604      842.184
02/28/2014  17:05:00       50.150        5.919       31.609       43.623       44.296       37.832     1902.969     1962.136     1431.285        0.442        0.265       50.498       37.336        0.547      336.349        7.590      842.155
02/28/2014  17:06:00       45.721       32.991       60.182       48.067       56.041       41.719     2310.390     3140.561     1740.494        0.699        0.360       56.381       37.707        0.447      336.324        7.551      842.148
02/28/2014  17:07:00       68.242       43.099       46.122       49.409       44.716       31.671     2441.277     1999.558     1003.075        0.704        0.272       80.713       20.678        0.066      336.311        7.526      842.133
02/28/2014  17:08:00        7.180       35.678       50.753       26.250       32.285       22.228      689.056     1042.298      494.068        0.306        0.111       36.393       18.976        0.272      336.361        7.610      842.099
02/28/2014  17:09:00       77.436       58.347       35.254       50.452       30.160       32.219     2545.375      909.633     1038.065        0.757        0.225       96.957       28.030        0.084      336.312        7.529      842.056
02/28/2014  17:10:00       25.824       23.167       53.647       32.016       30.361       27.416     1025.046      921.789      751.629        0.339        0.135       34.693       12.099        0.122      336.358        7.605      842.007
02/28/2014  17:11:00       20.219       14.266       46.833       41.005       45.293       29.066     1681.435     2051.474      844.831        0.369        0.229       24.745       32.026        1.675      336.421        7.711      841.989
02/28/2014  17:12:00        7.958       -6.972       28.313       28.947       41.815       33.171      837.912     1748.505     1100.304        0.230        0.184       10.580       17.369        2.695      336.479        7.809      842.006
02/28/2014  17:13:00       66.893       52.927       56.358       46.413       40.552       25.499     2154.163     1644.479      650.209        0.745        0.222       85.299       12.579        0.022      336.427        7.721      841.994
02/28/2014  17:14:00       82.320       51.511       50.621       41.059       32.852       35.721     1685.848     1079.270     1275.999        0.802        0.202       97.108       18.901        0.038      336.443        7.749      842.003
02/28/2014  17:15:00       47.726       20.504       31.700       52.462       37.509       30.024     2752.242     1406.906      901.453        0.438        0.253       51.944       16.282        0.098      336.394        7.667      842.020
02/28/2014  17:16:00       30.749       44.581       46.652       35.252       30.638       24.066     1242.682      938.691      579.182        0.393        0.138       54.156       15.373        0.081      336.377        7.637      842.028
02/28/2014  17:17:00       74.859       43.720       41.213       71.231       53.490       39.289     5073.896     2861.164     1543.646        0.934        0.474       86.690       35.564        0.168      336.313        7.532      842.023
02/28/2014  17:18:00       88.367       19.241       30.799       76.369       49.642       40.165     5832.173     2464.315     1613.219        0.952        0.495       90.438       42.261        0.218      336.287        7.487      842.020
02/28/2014  17:19:00       -8.605      -42.683       15.399       33.013       27.755       21.359     1089.881      770.321      456.186        0.222        0.116       43.542       17.618        0.164      336.445        7.752      842.032
02/28/2014  17:20:00       49.043     -104.621        2.802       59.307       67.962       39.943     3517.356     4618.857     1595.447        1.154        0.487      115.545       47.199        0.167      336.350        7.593      842.065
02/28/2014  17:21:00      137.898     -145.617      -23.019       81.566      100.326       49.415     6652.995    10065.209     2441.875        2.995        0.958      200.550       45.408        0.051      336.264        7.446      842.095
02/28/2014  17:22:00      142.184      -94.829        7.642       87.572      119.236       54.077     7668.787    14217.284     2924.328        2.703        1.241      170.906       72.938        0.182      336.222        7.378      842.165
02/28/2014  17:23:00       38.322       93.950      121.265       71.152       86.108       64.876     5062.650     7414.620     4208.866        2.084        0.834      101.465       65.662        0.419      336.254        7.431      842.242
02/28/2014  17:24:00       30.522       28.105       61.406       45.805       55.158       38.719     2098.054     3042.437     1499.164        0.606        0.332       41.491       36.209        0.762      336.275        7.468      842.317
02/28/2014  17:25:00       94.140      -83.002       12.572       73.094      120.223       58.186     5342.766    14453.545     3385.564        1.954        1.159      125.506       77.630        0.383      336.348        7.587      842.359
02/28/2014  17:26:00       31.845      -39.944       27.100       52.471       77.331       49.655     2753.224     5980.053     2465.660        0.727        0.560       51.084       45.617        0.797      336.401        7.678      842.404
02/28/2014  17:27:00        0.354      -68.800       22.861       47.968       66.579       38.013     2300.922     4432.714     1444.967        0.672        0.409       68.801       38.452        0.312      336.397        7.671      842.410
02/28/2014  17:28:00       45.327      -74.295       36.197       68.380      130.217       61.914     4675.837    16956.583     3833.304        1.717        1.273       87.030       82.596        0.901      336.293        7.496      842.382
02/28/2014  17:29:00       63.093      -12.497       57.180       63.712       78.311       58.036     4059.216     6132.657     3368.188        1.048        0.678       64.319       59.964        0.869      336.272        7.461      842.372
02/28/2014  17:30:00       25.410       38.611       99.219       56.029       84.303       64.073     3139.246     7107.028     4105.323        1.316        0.718       46.222       67.137        2.110      336.273        7.464      842.383
02/28/2014  17:31:00       98.904     -107.822       15.008       83.645      114.475       65.434     6996.465    13104.640     4281.577        2.300        1.219      146.314       84.321        0.332      336.267        7.452      842.378
02/28/2014  17:32:00       84.621        9.843       70.994       72.331      110.586       68.148     5231.838    12229.329     4644.211        1.720        1.105       85.192       74.143        0.757      336.235        7.400      842.363
02/28/2014  17:33:00       86.040      -87.045       20.576       52.944       82.917       40.766     2803.086     6875.188     1661.878        1.337        0.567      122.392       44.119        0.130      336.218        7.370      842.335
02/28/2014  17:34:00       60.155      -56.379       21.525       52.887       92.987       52.657     2797.070     8646.624     2772.772        1.074        0.711       82.446       63.421        0.592      336.260        7.441      842.319
02/28/2014  17:35:00      102.382      -53.850       17.663       74.724      100.935       64.031     5583.688    10187.949     4099.988        1.678        0.994      115.680       77.484        0.449      336.206        7.350      842.325
02/28/2014  17:36:00      185.689     -203.320      -21.564       97.836      119.813       47.818     9571.933    14355.186     2286.543        5.124        1.311      275.353       66.527        0.058      336.204        7.346      842.326
02/28/2014  17:37:00       70.930      -71.095       24.837       72.335      127.137       80.953     5232.399    16163.781     6553.373        1.932        1.397      100.427       92.246        0.844      336.245        7.415      842.346
02/28/2014  17:38:00      117.737     -169.448      -20.378       49.404       72.323       33.581     2440.711     5230.667     1127.659        2.589        0.440      206.336       34.598        0.028      336.277        7.468      842.355
02/28/2014  17:39:00      108.760     -101.954       -6.179       62.954       83.345       47.881     3963.241     6946.387     2292.574        1.773        0.660      149.075       55.709        0.140      336.275        7.466      842.332
02/28/2014  17:40:00       47.556      -71.191       20.244       55.192       86.385       58.830     3046.151     7462.425     3461.005        1.085        0.698       85.614       66.291        0.600      336.294        7.499      842.303
02/28/2014  17:41:00       83.482       13.455       48.810       72.150       58.252       48.974     5205.569     3393.294     2398.426        1.026        0.550       84.560       54.070        0.409      336.215        7.367      842.266
02/28/2014  17:42:00       29.498       40.014       61.378       40.963       37.509       25.614     1677.996     1406.957      656.058        0.499        0.187       49.711       20.216        0.165      336.216        7.368      842.247
02/28/2014  17:43:00       10.417       -9.428       24.555       25.680       41.493       26.686      659.453     1721.667      712.119        0.195        0.155       14.050       12.602        0.804      336.300        7.511      842.245
02/28/2014  17:44:00       70.043       64.432       69.952       53.992       44.650       31.215     2915.108     1993.663      974.361        0.992        0.294       95.171       22.333        0.055      336.223        7.379      842.251
02/28/2014  17:45:00       94.637       31.095       38.477       43.795       40.249       44.205     1918.043     1619.971     1954.088        0.845        0.275       99.615       34.230        0.118      336.163        7.279      842.272
02/28/2014  17:46:00       66.247      -22.778       28.455       33.492       58.946       33.019     1121.713     3474.588     1090.245        0.570        0.284       70.054       31.506        0.202      336.214        7.366      842.312
02/28/2014  17:47:00        7.361      -31.721       14.182       26.314       37.902       30.277      692.419     1436.569      916.674        0.215        0.152       32.564       26.313        0.653      336.339        7.574      842.358
02/28/2014  17:48:00       23.901      -68.618        7.868       35.627       58.214       26.696     1269.278     3388.880      712.662        0.536        0.269       72.661       25.770        0.126      336.332        7.563      842.405
02/28/2014  17:49:00       44.425      -60.202       -5.102       35.992       39.619       28.837     1295.457     1569.647      831.565        0.466        0.185       74.818       12.862        0.030      336.371        7.628      842.428
02/28/2014  17:50:00       29.068       19.600       54.270       50.705       33.756       30.707     2571.046     1139.453      942.912        0.441        0.233       35.058       31.214        0.793      336.336        7.570      842.436
02/28/2014  17:51:00       75.609      -23.283       41.476       78.830       81.727       45.284     6214.194     6679.289     2050.622        1.146        0.747       79.113       57.048        0.520      336.258        7.439      842.437
02/28/2014  17:52:00       28.981       17.070       60.414       45.292       60.115       41.298     2051.325     3613.814     1705.525        0.607        0.369       33.635       42.472        1.594      336.318        7.540      842.441
02/28/2014  17:53:00       57.658      -40.884       46.636       65.081      119.611       70.784     4235.517    14306.764     5010.440        1.536        1.178       70.682       87.154        1.520      336.309        7.524      842.446
02/28/2014  17:54:00       94.800      -95.209      -18.439       84.193       85.088       56.813     7088.382     7239.933     3227.759        1.797        0.878      134.357       61.123        0.207      336.285        7.482      842.438
02/28/2014  17:55:00      140.198     -122.964      -19.167       62.739      106.140       44.070     3936.126    11265.639     1942.183        2.614        0.857      186.482       42.393        0.052      336.295        7.497      842.438
02/28/2014  17:56:00       99.346      -89.310       16.664       64.809      120.713       59.286     4200.182    14571.516     3514.778        2.020        1.114      133.588       75.548        0.320      336.307        7.518      842.433
02/28/2014  17:57:00       57.117      -10.847       65.343       62.060      126.479       74.264     3851.419    15996.883     5515.119        1.650        1.268       58.137       86.868        2.233      336.310        7.527      842.433
02/28/2014  17:58:00      184.061     -221.128      -29.390       81.747       76.574       45.511     6682.643     5863.563     2071.237        4.913        0.731      287.709       35.634        0.015      336.242        7.409      842.427
02/28/2014  17:59:00      165.305     -209.945      -46.970       98.592      107.030       63.466     9720.424    11455.368     4027.892        4.940        1.260      267.213       36.083        0.018      336.264        7.445      842.425
02/28/2014  18:00:00      128.254     -175.890       -9.565       98.901      105.727       57.453     9781.454    11178.100     3300.814        3.587        1.213      217.684       54.435        0.063      336.233        7.394      842.432
02/28/2014  18:01:00       34.976      -62.176       51.992       67.510      137.372       65.933     4557.581    18871.158     4347.192        1.778        1.389       71.338       89.228        1.564      336.281        7.476      842.448
02/28/2014  18:02:00       57.023      -71.922        4.504       64.526      101.768       70.762     4163.574    10356.745     5007.286        1.398        0.976       91.785       67.083        0.534      336.282        7.478      842.459
02/28/2014  18:03:00       64.494      -48.406       30.460       70.853       73.540       63.899     5020.130     5408.200     4083.065        1.097        0.726       80.639       48.153        0.357      336.241        7.410      842.457
02/28/2014  18:04:00       15.402      -21.313       54.536       39.905       99.951       53.993     1592.424     9990.272     2915.191        0.908        0.725       26.296       67.090        6.509      336.288        7.487      842.458
02/28/2014  18:05:00       24.291      -76.298       22.571       50.702       57.770       39.528     2570.726     3337.363     1562.484        0.719        0.374       80.071       33.449        0.175      336.419        7.708      842.447
02/28/2014  18:06:00       35.254       -4.936       71.001       64.727       98.530       65.924     4189.541     9708.163     4345.967        1.227        0.912       35.598       75.653        4.516      336.302        7.512      842.430
02/28/2014  18:07:00       81.780     -117.434       -2.264       77.074       98.779       69.278     5940.337     9757.271     4799.439        2.049        1.025      143.104       71.681        0.251      336.292        7.493      842.433
02/28/2014  18:08:00       63.210     -106.813        6.537       68.047       70.140       45.806     4630.435     4919.599     2098.187        1.355        0.582      124.115       44.400        0.128      336.355        7.599      842.427
02/28/2014  18:09:00       99.175     -189.921      -15.287       52.090       48.247       36.076     2713.391     2327.743     1301.475        2.624        0.317      214.256       27.198        0.016      336.233        7.394      842.405
02/28/2014  18:10:00       31.578      -21.130       42.583       50.575       81.709       47.902     2557.842     6676.325     2294.574        0.739        0.576       37.995       45.720        1.448      336.285        7.483      842.393
02/28/2014  18:11:00       58.875      -90.131        1.384       54.064       70.028       36.742     2922.868     4903.904     1349.943        1.038        0.459      107.656       30.418        0.080      336.263        7.448      842.387
02/28/2014  18:12:00       13.648      -33.201       38.972       41.593       39.361       31.232     1729.940     1549.301      975.444        0.353        0.213       35.896       25.306        0.497      336.324        7.549      842.393
02/28/2014  18:13:00      -31.331       20.644       74.913       29.389       43.267       39.425      863.715     1872.002     1554.342        0.565        0.215       37.521       25.450        0.460      336.322        7.546      842.388
02/28/2014  18:14:00       -7.041      -19.281       45.035       45.097       57.775       40.553     2033.784     3337.928     1644.541        0.473        0.351       20.527       37.578        3.351      336.337        7.571      842.388
02/28/2014  18:15:00       18.575      -35.677       23.522       50.111       66.209       46.465     2511.130     4383.682     2158.960        0.561        0.453       40.223       36.862        0.840      336.227        7.387      842.387
02/28/2014  18:16:00      115.378     -104.177       15.585       74.891       80.302       53.104     5608.624     6448.451     2820.040        1.964        0.744      155.450       59.607        0.147      336.186        7.318      842.384
02/28/2014  18:17:00       91.661      -89.106       14.272       68.351       74.249       47.320     4671.833     5512.871     2239.225        1.448        0.621      127.834       42.687        0.112      336.223        7.379      842.381
02/28/2014  18:18:00       89.056     -106.600       -8.467       55.292       78.848       42.271     3057.206     6216.999     1786.873        1.521        0.553      138.905       48.022        0.120      336.150        7.257      842.410
02/28/2014  18:19:00       16.509      -17.116       44.184       39.460       48.421       39.993     1557.113     2344.553     1599.415        0.401        0.275       23.780       27.491        1.337      336.205        7.350      842.455
02/28/2014  18:20:00       82.604      -49.065       25.858       65.773       52.153       37.264     4326.094     2719.913     1388.608        0.917        0.422       96.077       36.534        0.145      336.136        7.234      842.499
02/28/2014  18:21:00        9.531      -31.341       18.327       42.170       38.452       31.529     1778.331     1478.558      994.077        0.283        0.213       32.758       14.559        0.198      336.352        7.597      842.536
02/28/2014  18:22:00       37.305      -16.700       29.273       40.128       39.832       27.912     1610.227     1586.627      779.098        0.325        0.199       40.872       24.166        0.350      336.436        7.735      842.578
02/28/2014  18:23:00      -73.942      -58.622       -3.516       60.987       47.594       26.454     3719.464     2265.170      699.805        0.780        0.334       94.361       29.354        0.097      336.448        7.757      842.616
02/28/2014  18:24:00      -73.290      -49.856        4.754       44.331       32.772       29.591     1965.267     1073.996      875.624        0.590        0.196       88.640       18.409        0.043      336.340        7.575      842.653
02/28/2014  18:25:00     -180.680      -67.450       -4.232       47.345       41.859       25.023     2241.509     1752.162      626.130        2.092        0.231      192.859       21.607        0.013      336.203        7.347      842.703
02/28/2014  18:26:00     -239.610     -118.992       -7.805       99.289       88.549       51.680     9858.392     7840.870     2670.776        4.600        1.019      267.529       51.659        0.037      335.935        6.897      842.715
02/28/2014  18:27:00     -150.592     -211.839       -3.862       93.084       83.351       49.156     8664.572     6947.458     2416.351        4.280        0.901      259.911       30.908        0.014      335.760        6.604      842.684
02/28/2014  18:28:00     -219.042      -96.805       -6.046       99.372       66.709       48.559     9874.712     4450.027     2357.937        3.703        0.834      239.480       43.624        0.033      335.703        6.509      842.676
02/28/2014  18:29:00     -171.416      -37.075      -13.676       95.457       72.527       33.500     9111.974     5260.170     1122.235        2.322        0.775      175.379       39.437        0.051      335.575        6.297      842.691
02/28/2014  18:30:00      -87.767      -41.491        1.615       52.033       56.901       31.223     2707.450     3237.736      974.873        0.817        0.346       97.081       23.804        0.060      335.502        6.177      842.687
02/28/2014  18:31:00     -120.739        9.459       11.589       53.647       51.391       39.250     2878.008     2641.086     1540.592        1.093        0.353      121.109       33.286        0.076      335.450        6.091      842.683
02/28/2014  18:32:00     -158.291      -46.015       -3.880      110.614       54.149       41.098    12235.396     2932.077     1689.012        2.202        0.843      164.843       54.407        0.109      335.409        6.021      842.698
02/28/2014  18:33:00     -157.114      -31.971        0.406      105.063       68.472       46.011    11038.211     4688.424     2116.977        2.177        0.892      160.334       53.050        0.109      335.329        5.888      842.705
02/28/2014  18:34:00     -178.534      -37.785       -4.193       59.698       58.972       35.037     3563.835     3477.694     1227.609        2.079        0.413      182.488       31.463        0.030      335.136        5.569      842.707
02/28/2014  18:35:00      -93.252      -45.273       -1.581       65.063       46.149       28.662     4233.171     2129.733      821.524        0.897        0.359      103.660       33.345        0.103      335.074        5.468      842.700
02/28/2014  18:36:00      -92.664      -31.423        1.821       46.107       34.313       26.793     2125.820     1177.405      717.889        0.680        0.201       97.847       18.429        0.035      334.980        5.311      842.695
02/28/2014  18:37:00       11.065       -4.999       19.806       17.347       22.473       15.254      300.912      505.029      232.675        0.079        0.052       12.142       15.013        1.529      335.167        5.622      842.691
02/28/2014  18:38:00       -2.957       37.793        9.084       21.413       21.058       17.789      458.520      443.434      316.464        0.137        0.061       37.908       13.706        0.131      335.241        5.743      842.678
02/28/2014  18:39:00      -24.202       63.332       -6.793       23.492       31.148       16.578      551.866      970.170      274.818        0.322        0.090       67.799       14.042        0.043      335.174        5.632      842.676
02/28/2014  18:40:00       17.984      105.098      -12.612       25.152       30.899       20.306      632.607      954.724      412.319        0.676        0.100      106.625       18.561        0.030      335.040        5.411      842.660
02/28/2014  18:41:00       34.568       59.562       -4.771       33.834       31.490       22.620     1144.744      991.592      511.642        0.371        0.132       68.867       18.233        0.070      335.062        5.447      842.628
02/28/2014  18:42:00       20.440       38.347        5.809       44.418       29.755       21.461     1972.917      885.377      460.569        0.262        0.166       43.455       15.487        0.127      335.051        5.430      842.592
02/28/2014  18:43:00       35.884       73.960       -2.740       39.925       38.253       28.202     1594.044     1463.310      795.368        0.531        0.193       82.206       25.582        0.097      335.007        5.356      842.577
02/28/2014  18:44:00       23.188       57.075        3.326       29.004       44.051       30.173      841.241     1940.497      910.393        0.375        0.185       61.605       26.541        0.186      334.979        5.309      842.555
02/28/2014  18:45:00       -0.192      142.094       -8.773       28.024       34.218       22.615      785.334     1170.858      511.429        1.137        0.123      142.094       12.252        0.007      335.062        5.446      842.531
02/28/2014  18:46:00       28.874       63.255       -1.477       23.768       25.951       24.618      564.938      673.468      606.053        0.334        0.092       69.534       20.154        0.084      335.058        5.440      842.520
02/28/2014  18:47:00       37.946       72.552        0.321       38.356       40.595       30.738     1471.202     1647.987      944.816        0.538        0.203       81.876       28.145        0.118      335.053        5.431      842.486
02/28/2014  18:48:00       32.463      103.487      -13.350       41.287       69.671       27.756     1704.576     4854.089      770.391        0.963        0.366      108.459       32.163        0.088      335.150        5.594      842.461
02/28/2014  18:49:00       31.951      154.538      -26.058       27.386       31.899       23.888      750.020     1017.567      570.618        1.396        0.117      157.806        8.496        0.003      335.412        6.028      842.430
02/28/2014  18:50:00       16.356      179.671      -29.068       34.107       35.413       22.211     1163.263     1254.099      493.345        1.815        0.146      180.414       15.362        0.007      335.178        5.640      842.402
02/28/2014  18:51:00      -19.488      192.735      -21.627       36.768       31.644       18.877     1351.852     1001.354      356.338        2.035        0.135      193.718       14.590        0.006      335.362        5.944      842.388
02/28/2014  18:52:00       29.271      173.612      -17.963       28.435       65.001       26.351      808.539     4225.089      694.388        1.852        0.286      176.062       35.676        0.041      335.386        5.984      842.375
02/28/2014  18:53:00       43.964      131.790      -13.107       35.241       43.120       29.525     1241.896     1859.366      871.720        1.172        0.199      138.929       27.809        0.040      335.285        5.816      842.376
02/28/2014  18:54:00       91.300       79.904        3.237       40.781       35.111       33.919     1663.084     1232.794     1150.507        0.939        0.202      121.328       19.301        0.025      335.274        5.797      842.387
02/28/2014  18:55:00      166.711      105.892       19.685       46.987       36.220       34.298     2207.746     1311.881     1176.345        2.204        0.235      197.499       19.135        0.009      335.241        5.740      842.401
02/28/2014  18:56:00       25.479      102.615      106.721       52.199       43.228       44.960     2724.766     1868.645     2021.380        1.459        0.331      105.731       32.687        0.096      335.220        5.709      842.428
02/28/2014  18:57:00      103.872      113.166       87.122       79.105       54.072       55.988     6257.563     2923.794     3134.669        2.175        0.616      153.610       56.507        0.135      335.141        5.577      842.461
02/28/2014  18:58:00       35.184      102.429      103.236       55.689       53.810       45.935     3101.279     2895.513     2109.980        1.525        0.405      108.303       35.453        0.107      335.172        5.629      842.506
02/28/2014  18:59:00       26.036      101.378      132.473       51.354       60.797       30.288     2637.184     3696.302      917.337        1.788        0.363      104.668       30.849        0.087      335.276        5.801      842.542
02/28/2014  19:00:00       55.299      104.571      117.732       70.120       68.885       50.893     4916.846     4745.162     2590.095        2.005        0.613      118.292       47.662        0.162      335.307        5.853      842.575
02/28/2014  19:01:00      103.401       95.671       87.351       76.046       56.504       50.052     5782.964     3192.673     2505.169        1.948        0.574      140.872       47.771        0.115      335.329        5.888      842.612
02/28/2014  19:02:00       75.837       50.469       84.558       70.786       65.072       56.343     5010.619     4234.423     3174.527        1.393        0.621       91.096       38.623        0.180      335.323        5.879      842.643
02/28/2014  19:03:00       75.109       37.405       78.505       89.554       76.025       55.786     8019.935     5779.736     3112.031        1.505        0.846       83.908       64.900        0.598      335.307        5.852      842.636
02/28/2014  19:04:00       82.786       21.585       55.610       54.254       77.316       42.921     2943.510     5977.720     1842.201        1.059        0.538       85.554       40.832        0.228      335.269        5.791      842.630
02/28/2014  19:05:00      108.254       64.858       52.195       85.258       69.472       44.078     7268.932     4826.302     1942.843        1.634        0.702      126.196       31.639        0.063      335.226        5.717      842.613
02/28/2014  19:06:00       61.931       69.525       67.907       45.883       40.129       38.569     2105.249     1610.360     1487.536        0.924        0.260       93.108       24.114        0.067      335.219        5.704      842.592
02/28/2014  19:07:00      136.268       75.921       43.055       90.040       71.748       46.861     8107.155     5147.730     2195.923        2.082        0.773      155.990       28.514        0.033      335.142        5.578      842.594
02/28/2014  19:08:00      193.210       71.909       29.881       95.080       68.053       55.640     9040.255     4631.204     3095.856        3.008        0.838      206.157       49.559        0.058      335.114        5.532      842.595
02/28/2014  19:09:00      166.831       81.963       43.396       94.841       58.371       59.762     8994.738     3407.119     3571.501        2.620        0.799      185.877       54.884        0.087      335.079        5.473      842.607
02/28/2014  19:10:00      157.139       79.203       22.970       71.560       61.989       50.100     5120.773     3842.662     2509.987        2.148        0.574      175.971       31.524        0.032      335.086        5.488      842.619
02/28/2014  19:11:00      188.482       72.695       20.176       77.508       56.507       50.967     6007.459     3193.020     2597.601        2.651        0.590      202.015       34.286        0.029      335.087        5.488      842.625
02/28/2014  19:12:00      185.316       94.150       29.227       80.824       60.133       48.552     6532.572     3615.962     2357.268        2.828        0.625      207.861       43.966        0.045      335.092        5.495      842.617
02/28/2014  19:13:00      136.646       67.183       36.310       56.707       38.706       38.631     3215.651     1498.156     1492.377        1.535        0.310      152.268       33.047        0.047      335.090        5.494      842.602
02/28/2014  19:14:00      161.798      104.981       38.663       41.305       32.256       40.646     1706.083     1040.441     1652.065        2.155        0.220      192.873       21.926        0.013      335.051        5.429      842.578
02/28/2014  19:15:00      154.324       78.893       31.891       57.187       32.063       33.432     3270.338     1028.014     1117.728        1.824        0.271      173.321       18.324        0.011      335.050        5.427      842.574
02/28/2014  19:16:00      146.773       75.614       37.424       37.145       32.994       29.819     1379.780     1088.625      889.143        1.601        0.168      165.106       23.723        0.021      335.061        5.446      842.578
02/28/2014  19:17:00      113.727       68.467       43.544       54.252       44.954       36.468     2943.312     2020.898     1329.922        1.290        0.315      132.746       30.890        0.054      335.089        5.494      842.588
02/28/2014  19:18:00      107.939       82.498       54.353       61.457       51.677       47.795     3777.022     2670.561     2284.327        1.507        0.437      135.856       40.052        0.087      335.203        5.681      842.593
02/28/2014  19:19:00      129.923       81.501       31.689       30.776       51.816       36.619      947.158     2684.944     1340.976        1.475        0.249      153.370       22.309        0.021      335.101        5.513      842.590
02/28/2014  19:20:00       90.786       32.312       23.601       56.363       30.463       29.220     3176.820      927.975      853.796        0.740        0.248       96.365       23.890        0.061      335.063        5.451      842.590
02/28/2014  19:21:00      114.100       48.699       20.871       55.184       49.891       30.834     3045.222     2489.156      950.722        1.115        0.324      124.058       23.119        0.035      335.081        5.480      842.586
02/28/2014  19:22:00       93.382       49.050       17.291       39.386       42.221       28.456     1551.257     1782.637      809.742        0.778        0.207      105.481       10.649        0.010      335.034        5.402      842.576
02/28/2014  19:23:00       89.899       58.621       27.910       44.783       31.391       27.903     2005.557      985.366      778.592        0.803        0.188      107.324       22.629        0.044      335.027        5.389      842.585
02/28/2014  19:24:00       37.035       36.091        0.595       20.553       32.351       22.533      422.408     1046.601      507.750        0.233        0.099       51.712       14.411        0.078      335.023        5.384      842.587
02/28/2014  19:25:00       39.984       16.179        5.080       28.261       18.052       16.684      798.686      325.858      278.353        0.164        0.070       43.133        7.678        0.032      335.037        5.405      842.612
02/28/2014  19:26:00       31.173       10.348        8.396       19.717       19.211       15.459      388.776      369.061      238.975        0.107        0.050       32.845       11.124        0.115      335.012        5.364      842.636
02/28/2014  19:27:00       48.781       29.277       -2.296       24.533       16.668       18.320      601.892      277.838      335.618        0.223        0.061       56.893       13.604        0.057      335.019        5.375      842.665
02/28/2014  19:28:00       72.454       39.739       12.903       26.746       19.543       14.255      715.346      381.943      203.198        0.415        0.065       82.637        8.099        0.010      335.030        5.396      842.682
02/28/2014  19:29:00       70.524       38.024        9.998       33.169       24.536       27.589     1100.179      602.032      761.172        0.449        0.123       80.122       20.660        0.066      335.084        5.484      842.689
02/28/2014  19:30:00       38.218       28.007        7.477       29.979       24.050       17.568      898.715      578.383      308.640        0.204        0.089       47.382        9.167        0.037      335.072        5.465      842.698
02/28/2014  19:31:00       -0.115       80.634      -15.723       20.115       24.501       13.229      404.604      600.295      175.007        0.396        0.059       80.634       11.810        0.021      335.096        5.504      842.686
02/28/2014  19:32:00       35.946       51.555       -2.360       26.655       34.568       20.780      710.513     1194.921      431.809        0.315        0.117       62.849       20.191        0.103      335.113        5.532      842.670
02/28/2014  19:33:00       43.983       62.545       -6.230       24.409       32.156       19.964      595.780     1034.009      398.563        0.396        0.101       76.462       20.044        0.069      335.081        5.479      842.669
02/28/2014  19:34:00       22.670       62.762       -8.193       18.597       14.945       13.995      345.850      223.338      195.859        0.264        0.038       66.731        6.697        0.010      335.070        5.461      842.655
02/28/2014  19:35:00       19.855       57.459       -5.565       13.938       20.946       13.846      194.282      438.738      191.706        0.228        0.041       60.793       13.255        0.048      335.098        5.506      842.647
02/28/2014  19:36:00       31.458       38.026        8.776       23.288       24.329       20.497      542.354      591.924      420.143        0.203        0.078       49.352       18.628        0.142      335.095        5.503      842.651
02/28/2014  19:37:00       31.433       32.359        5.516       18.927       21.176       10.826      358.226      448.411      117.194        0.149        0.046       45.113        6.813        0.023      335.100        5.510      842.662
02/28/2014  19:38:00       21.931       25.617        3.861       17.946       13.025       12.524      322.055      169.652      156.855        0.090        0.032       33.722        9.370        0.077      335.105        5.518      842.692
02/28/2014  19:39:00       42.237       28.370        9.869       14.917        8.597       12.432      222.524       73.913      154.547        0.157        0.023       50.880        7.566        0.022      335.121        5.545      842.714
02/28/2014  19:40:00       39.863       43.866       34.328       14.126       13.328       12.564      199.556      177.647      157.848        0.261        0.027       59.273        8.349        0.020      335.189        5.657      842.725
02/28/2014  19:41:00       51.970       48.806       12.092       14.210       15.878       14.723      201.927      252.101      216.771        0.295        0.034       71.294        4.719        0.004      335.108        5.525      842.737
02/28/2014  19:42:00       35.573       39.725       12.073       14.154       11.070       13.481      200.344      122.547      181.744        0.175        0.025       53.324        5.032        0.009      335.059        5.443      842.758
02/28/2014  19:43:00       23.993       20.797      -12.134       18.156       22.513       11.568      329.636      506.841      133.808        0.106        0.049       31.751       12.371        0.152      335.082        5.483      842.772
02/28/2014  19:44:00       -9.023       26.955      -11.077       15.148       11.562        8.611      229.456      133.677       74.141        0.068        0.022       28.425        6.969        0.060      335.058        5.443      842.797
02/28/2014  19:45:00      -32.571      -17.624      -10.276       20.623       11.537        6.303      425.309      133.112       39.724        0.104        0.030       37.034        2.120        0.003      335.118        5.539      842.827
02/28/2014  19:46:00      -80.973       -2.142       -8.477       22.693       14.897        9.866      514.963      221.929       97.346        0.373        0.042       81.001        8.100        0.010      335.101        5.512      842.859
02/28/2014  19:47:00      -62.542       11.335       -9.224       18.273       18.454       13.211      333.901      340.563      174.538        0.249        0.042       63.561        9.212        0.021      335.078        5.473      842.890
02/28/2014  19:48:00      -48.720        1.478      -10.489       10.629       12.257        9.828      112.983      150.230       96.582        0.142        0.018       48.742        6.442        0.017      335.124        5.548      842.913
02/28/2014  19:49:00      -78.643       39.801      -13.974       27.409       25.855       20.202      751.236      668.465      408.117        0.490        0.091       88.141       19.521        0.049      335.108        5.522      842.936
02/28/2014  19:50:00      -67.556       76.813      -19.994       26.155       36.537       15.858      684.099     1334.987      251.489        0.657        0.114      102.294       17.968        0.031      335.148        5.590      842.966
02/28/2014  19:51:00      -81.054       48.104      -16.885       17.697       18.962       12.185      313.173      359.567      148.485        0.499        0.041       94.253        8.219        0.008      335.167        5.619      842.986
02/28/2014  19:52:00      -68.249       60.427      -21.688       21.859       27.893       10.700      477.816      778.032      114.480        0.507        0.069       91.155       13.640        0.022      335.158        5.604      843.003
02/28/2014  19:53:00      -51.604       75.435      -17.048       27.158       21.500       12.513      737.546      462.251      156.577        0.500        0.068       91.397       11.365        0.015      335.228        5.720      843.013
02/28/2014  19:54:00      -72.978       92.188      -21.800       24.991       28.499       14.859      624.534      812.174      220.791        0.798        0.083      117.577       12.611        0.012      335.248        5.754      843.006
02/28/2014  19:55:00      -57.601       65.624      -12.382       34.834       22.979       18.455     1213.416      528.034      340.591        0.493        0.104       87.317       16.726        0.037      335.239        5.738      843.000
02/28/2014  19:56:00      -26.019      105.968      -12.612       20.341       24.117       19.263      413.759      581.625      371.060        0.672        0.068      109.115       14.216        0.017      335.226        5.718      842.993
02/28/2014  19:57:00      -27.790       80.358       -5.264       27.607       43.046       20.441      762.146     1852.954      417.844        0.514        0.152       85.028       23.388        0.076      335.225        5.717      842.985
02/28/2014  19:58:00      -47.643      120.236      -14.532       27.394       38.873       19.293      750.440     1511.115      372.231        0.979        0.132      129.331       18.486        0.020      335.274        5.799      842.974
02/28/2014  19:59:00      -53.980       40.474       -7.562       27.326       36.827       17.824      746.696     1356.240      317.706        0.351        0.121       67.469       12.922        0.037      335.199        5.674      842.968
02/28/2014  20:00:00      -58.821       21.261      -11.688       26.389       23.511       18.789      696.365      552.779      353.037        0.283        0.080       62.546       10.155        0.026      335.220        5.708      842.983
02/28/2014  20:01:00      -73.341        4.368       -9.263       24.566       24.082       19.735      603.512      579.945      389.484        0.353        0.079       73.471       18.139        0.061      335.220        5.707      843.004
02/28/2014  20:02:00      -56.221      -31.945        0.948       33.202       18.141       16.684     1102.402      329.084      278.341        0.295        0.085       64.663       15.651        0.059      335.246        5.750      843.029
02/28/2014  20:03:00      -80.464      -28.829       -3.945       48.251       25.774       17.346     2328.145      664.307      300.892        0.531        0.165       85.473       21.493        0.063      335.171        5.628      843.043
02/28/2014  20:04:00     -113.530      -54.882       -5.840       23.614       25.004       17.486      557.615      625.197      305.762        0.871        0.074      126.100       13.364        0.011      335.096        5.503      843.049
02/28/2014  20:05:00      -92.768      -24.282       -6.647       54.317       35.506       16.888     2950.355     1260.664      285.218        0.687        0.225       95.893       22.346        0.054      335.070        5.460      843.030
02/28/2014  20:06:00      -91.574       13.597        0.364       42.304       34.251       17.997     1789.664     1173.159      323.880        0.593        0.164       92.578       15.885        0.029      334.986        5.320      842.998
02/28/2014  20:07:00     -125.496       42.040       -9.687       28.092       17.762       14.969      789.165      315.489      224.075        0.947        0.066      132.350        9.633        0.005      334.941        5.246      842.961
02/28/2014  20:08:00     -108.666       29.466       -4.178       31.693       24.912       19.065     1004.428      620.602      363.465        0.734        0.099      112.590       18.978        0.028      334.979        5.310      842.924
02/28/2014  20:09:00     -102.925      -10.517      -18.961       23.876       33.383       17.590      570.084     1114.399      309.399        0.653        0.100      103.461       14.136        0.019      335.041        5.412      842.898
02/28/2014  20:10:00     -105.092      -18.136       -2.765       43.726       37.814       22.437     1911.927     1429.871      503.400        0.761        0.192      106.646       21.527        0.041      334.969        5.292      842.896
02/28/2014  20:11:00      -87.370       18.405       -4.767       35.366       27.106       15.472     1250.740      734.755      239.373        0.511        0.111       89.288       13.665        0.023      334.902        5.180      842.901
02/28/2014  20:12:00      -89.572       19.759       -3.879       31.367       19.325       14.336      983.905      373.439      205.524        0.500        0.078       91.725       10.929        0.014      334.996        5.336      842.905
02/28/2014  20:13:00      -68.896       34.108       -8.848       24.951       24.462       14.236      622.564      598.368      202.670        0.371        0.071       76.877        5.852        0.006      335.068        5.457      842.915
02/28/2014  20:14:00      -59.247        3.350       -3.187       23.363       29.663       13.305      545.848      879.910      177.031        0.257        0.080       59.342        8.999        0.023      335.120        5.545      842.937
02/28/2014  20:15:00      -84.869       33.592      -11.072       18.827       23.731       15.271      354.439      563.165      233.212        0.480        0.058       91.275       10.627        0.014      334.987        5.323      842.959
02/28/2014  20:16:00      -63.026       13.721       -0.658       35.140       23.832       18.403     1234.835      567.968      338.653        0.315        0.107       64.502       21.735        0.114      334.930        5.229      842.980
02/28/2014  20:17:00        8.592      -14.147       23.664       33.406       21.446       20.952     1115.944      459.914      438.995        0.142        0.101       16.552       18.425        1.239      334.895        5.170      842.998
02/28/2014  20:18:00      -67.312      -45.956      -14.147       24.318       16.860       15.223      591.347      284.264      231.741        0.397        0.055       81.503       11.095        0.019      334.896        5.171      843.020
02/28/2014  20:19:00      -14.521      -18.957        2.928       23.015       17.148       14.585      529.676      294.061      212.710        0.081        0.052       23.879       10.251        0.184      334.938        5.240      843.034
02/28/2014  20:20:00       -5.666       -7.347       10.897       14.339        9.637        7.810      205.614       92.870       60.991        0.028        0.018        9.278        6.739        0.528      334.948        5.257      843.035
02/28/2014  20:21:00      -37.842      -13.841       -8.471       14.171       13.377        9.300      200.824      178.931       86.498        0.108        0.023       40.294        7.557        0.035      334.983        5.316      843.029
02/28/2014  20:22:00      -13.494      -29.088        2.268       31.551       12.646       11.829      995.480      159.933      139.936        0.116        0.065       32.066       14.114        0.194      334.990        5.327      843.023
02/28/2014  20:23:00      -26.165      -10.719       -1.100       25.623        9.588        8.258      656.542       91.930       68.196        0.081        0.041       28.276        9.052        0.102      334.991        5.330      843.020
02/28/2014  20:24:00      -39.749       -2.480       -4.627       12.718       11.600        8.170      161.755      134.562       66.747        0.099        0.018       39.826        4.681        0.014      334.964        5.284      843.019
02/28/2014  20:25:00      -19.085       -4.954        4.464       13.261        9.381        8.656      175.843       88.002       74.924        0.037        0.017       19.717        8.654        0.193      334.935        5.237      843.025
02/28/2014  20:26:00      -43.270        4.288       -1.485        8.769       10.506        8.931       76.903      110.369       79.759        0.108        0.013       43.482        4.488        0.011      334.957        5.272      843.024
02/28/2014  20:27:00       -2.059       11.320        3.997       11.322       12.600        7.228      128.194      158.756       52.239        0.024        0.017       11.506        6.805        0.350      334.918        5.208      843.041
02/28/2014  20:28:00       -5.099       -2.657       10.366       23.353       17.980       11.452      545.364      323.285      131.149        0.057        0.050        5.750       12.170        4.479      335.036        5.405      843.074
02/28/2014  20:29:00      -27.698        3.118       -1.321       15.966       15.673        7.650      254.903      245.649       58.529        0.067        0.028       27.873        2.332        0.007      335.086        5.487      843.103
02/28/2014  20:30:00       -7.654      -23.144        9.490       15.057       12.366       11.895      226.711      152.914      141.501        0.060        0.026       24.377        9.717        0.159      335.115        5.535      843.128
02/28/2014  20:31:00       -6.236      -21.879        8.774       17.786       17.408       13.195      316.332      303.033      174.106        0.069        0.040       22.750       10.573        0.216      335.032        5.398      843.158
02/28/2014  20:32:00       -4.167      -11.957        8.460       22.847       15.253       16.027      521.997      232.648      256.852        0.062        0.051       12.662       13.539        1.143      334.897        5.174      843.179
02/28/2014  20:33:00      -39.940      -63.981        0.584       32.216       26.061       19.960     1037.847      679.163      398.412        0.390        0.106       75.424       19.190        0.065      334.965        5.285      843.195
02/28/2014  20:34:00      -53.023      -27.267       -2.971       38.112       25.029       19.055     1452.545      626.457      363.099        0.300        0.122       59.624       16.760        0.079      334.910        5.194      843.214
02/28/2014  20:35:00      -13.631      -22.850        3.513       22.562       24.104       12.746      509.044      581.021      162.458        0.099        0.063       26.607       13.168        0.245      334.964        5.284      843.222
02/28/2014  20:36:00      -31.434       27.077       -3.018       13.443       12.709        4.820      180.705      161.524       23.236        0.105        0.018       41.488        4.276        0.011      334.755        4.938      843.216
02/28/2014  20:37:00      -18.706       21.391       -6.554       18.299       16.116        5.800      334.846      259.714       33.643        0.074        0.031       28.416        4.040        0.020      334.845        5.087      843.203
02/28/2014  20:38:00       -7.849        7.989        5.897        6.285        5.350        6.827       39.501       28.624       46.603        0.014        0.006       11.199        3.421        0.093      334.906        5.188      843.200
02/28/2014  20:39:00       15.432       16.012        3.620       10.947        8.681        9.644      119.845       75.354       92.999        0.040        0.014       22.238        3.734        0.028      334.948        5.257      843.215
02/28/2014  20:40:00       -6.089        7.059       -0.566        6.760        6.961        3.700       45.704       48.461       13.693        0.010        0.005        9.322        2.021        0.047      335.002        5.345      843.250
02/28/2014  20:41:00       -2.804        1.269       11.106       13.984       11.726       10.088      195.544      137.498      101.763        0.028        0.022        3.078        7.164        5.418      334.949        5.259      843.257
02/28/2014  20:42:00        0.634       12.874       16.018        7.595        7.968       11.687       57.678       63.493      136.580        0.034        0.013       12.890        8.048        0.390      334.958        5.275      843.251
02/28/2014  20:43:00       13.746       34.044        2.471       13.839       12.684       10.749      191.512      160.891      115.533        0.091        0.023       36.715       10.715        0.085      334.931        5.230      843.250
02/28/2014  20:44:00       11.423       36.698       -1.265       12.120       12.222        7.973      146.905      149.369       63.567        0.092        0.018       38.434        7.216        0.035      334.898        5.175      843.261
02/28/2014  20:45:00        3.122       55.131       -6.849        5.416        8.913        5.595       29.336       79.435       31.305        0.162        0.007       55.219        4.019        0.005      334.968        5.290      843.288
02/28/2014  20:46:00       -3.745       18.922       -5.994       17.094       29.975        6.071      292.206      898.474       36.855        0.082        0.061       19.289        7.042        0.133      335.068        5.456      843.320
02/28/2014  20:47:00      -61.842       -8.396       -5.803       11.131        9.531        8.110      123.902       90.849       65.773        0.210        0.014       62.410        3.480        0.003      334.757        4.942      843.349
02/28/2014  20:48:00      -56.460       -9.740       -7.506       13.401       10.473        6.107      179.579      109.687       37.290        0.183        0.016       57.294        4.564        0.006      334.819        5.043      843.375
02/28/2014  20:49:00      -83.133      -15.828       -8.243       30.178       16.819        9.785      910.726      282.887       95.746        0.426        0.064       84.627        4.430        0.003      334.761        4.946      843.407
02/28/2014  20:50:00      -99.859      -57.803      -16.580       35.591       22.957       14.924     1266.754      527.031      222.713        0.780        0.101      115.382       10.247        0.008      334.623        4.717      843.444
02/28/2014  20:51:00     -101.574      -53.121       -7.415       34.093       30.919       18.078     1162.327      956.009      326.829        0.782        0.122      114.626       16.237        0.020      334.554        4.604      843.475
02/28/2014  20:52:00      -87.962      -63.653       -6.455       34.572       26.442       25.588     1195.203      699.167      654.743        0.719        0.127      108.578       20.307        0.035      334.599        4.677      843.497
02/28/2014  20:53:00     -115.446      -30.923      -15.442       21.001       19.740       15.451      441.054      389.669      238.726        0.780        0.053      119.516       11.835        0.010      334.541        4.582      843.502
02/28/2014  20:54:00      -65.988      -20.023       -4.988       31.377       23.516       14.213      984.538      553.003      202.023        0.326        0.087       68.959       11.477        0.028      334.561        4.614      843.499
02/28/2014  20:55:00      -54.995      -40.721        3.993       41.765       29.959       21.868     1744.274      897.547      478.231        0.391        0.156       68.430       19.467        0.081      334.554        4.601      843.475
02/28/2014  20:56:00     -114.013      -42.409       -7.249       28.928       25.321       14.884      836.855      641.164      221.537        0.827        0.085      121.645       12.031        0.010      334.583        4.650      843.458
02/28/2014  20:57:00     -142.865      -21.730      -16.400       25.714       25.502       18.360      661.217      650.351      337.102        1.140        0.082      144.508       15.522        0.012      334.519        4.544      843.449
02/28/2014  20:58:00     -155.470        3.478      -14.535       41.430       32.642       27.719     1716.466     1065.489      768.357        1.397        0.178      155.509       19.044        0.015      334.473        4.468      843.438
02/28/2014  20:59:00     -131.342       10.655       -8.226       45.132       30.772       25.192     2036.882      946.889      634.654        1.052        0.181      131.774       20.147        0.023      334.486        4.491      843.425
02/28/2014  21:00:00      -88.497       -8.943       -4.382       41.342       26.233       22.206     1709.149      688.148      493.119        0.541        0.145       88.948       23.583        0.070      334.485        4.489      843.405
02/28/2014  21:01:00      -76.327       12.406       -1.080       29.896       20.886       14.900      893.770      436.209      222.016        0.377        0.078       77.329        9.932        0.016      334.523        4.551      843.394
02/28/2014  21:02:00      -63.706        0.721       -6.049       35.293       20.657       13.588     1245.576      426.701      184.623        0.298        0.093       63.710       10.273        0.026      334.557        4.609      843.380
02/28/2014  21:03:00      -85.842        4.422       -0.481       37.805       21.694       14.509     1429.221      470.623      210.520        0.475        0.106       85.956       14.876        0.030      334.688        4.824      843.366
02/28/2014  21:04:00      -76.413      -35.082       -2.651       20.748       22.222       16.004      430.488      493.803      256.120        0.413        0.059       84.082       11.426        0.018      334.611        4.697      843.373
02/28/2014  21:05:00      -86.367      -41.031       -4.828       23.455       17.504       11.720      550.129      306.403      137.365        0.508        0.050       95.618       11.268        0.014      334.642        4.748      843.390
02/28/2014  21:06:00      -64.086      -44.614       -2.602       41.807       30.555       17.500     1747.835      933.591      306.264        0.455        0.149       78.087       20.310        0.068      334.600        4.679      843.406
02/28/2014  21:07:00      -93.014      -47.995       -4.813       33.318       23.974       17.967     1110.116      574.736      322.813        0.649        0.100      104.667        9.436        0.008      334.561        4.615      843.419
02/28/2014  21:08:00      -60.024      -16.747       -3.277       26.228       19.390       11.317      687.904      375.969      128.079        0.254        0.060       62.317        8.131        0.017      334.673        4.801      843.426
02/28/2014  21:09:00      -35.519       -8.736       -5.123       17.947       12.333        6.920      322.091      152.093       47.886        0.094        0.026       36.577        3.775        0.011      334.674        4.801      843.425
02/28/2014  21:10:00      -52.213      -11.594       -5.203       12.508        9.066        7.453      156.440       82.201       55.541        0.159        0.015       53.484        5.304        0.010      334.799        5.010      843.442
02/28/2014  21:11:00      -53.528      -24.287       -4.498       20.746       16.421        9.948      430.401      269.663       98.967        0.214        0.040       58.780        7.955        0.018      334.833        5.066      843.471
02/28/2014  21:12:00      -66.699      -48.388        1.878       42.045       32.924       20.062     1767.815     1084.021      402.480        0.502        0.163       82.402       20.835        0.064      334.584        4.653      843.504
02/28/2014  21:13:00      -27.610      -17.921        7.471       22.551       19.180       14.413      508.567      367.862      207.722        0.111        0.054       32.916       14.605        0.197      334.600        4.679      843.530
02/28/2014  21:14:00      -24.422      -10.476       -3.362       13.834       10.396        6.494      191.385      108.086       42.178        0.053        0.017       26.574        7.513        0.080      334.653        4.767      843.541
02/28/2014  21:15:00        9.523       12.350        2.548       10.826       12.448       12.426      117.204      154.955      154.403        0.034        0.021       15.595        8.084        0.269      334.618        4.708      843.549
02/28/2014  21:16:00       91.114       78.199       21.959       52.612       44.165       37.458     2768.052     1950.566     1403.094        1.051        0.306      120.070       20.376        0.029      334.430        4.398      843.553
02/28/2014  21:17:00      126.837       78.964        5.408       31.119       33.536       31.221      968.398     1124.679      974.747        1.271        0.153      149.408       10.507        0.005      334.380        4.315      843.566
02/28/2014  21:18:00       96.356       53.897        7.459       35.632       30.284       22.190     1269.614      917.104      492.411        0.746        0.134      110.405       12.674        0.013      334.382        4.320      843.591
02/28/2014  21:19:00       90.139       61.993       11.552       40.633       32.201       24.937     1651.014     1036.875      621.866        0.771        0.165      109.399       24.454        0.050      334.273        4.137      843.618
02/28/2014  21:20:00       68.235       46.149        8.559       21.743       20.195       16.275      472.761      407.853      264.888        0.400        0.057       82.376       12.256        0.022      334.249        4.096      843.656
02/28/2014  21:21:00       60.111       50.999        1.099       13.405       11.480       11.737      179.707      131.800      137.754        0.333        0.022       78.831        9.408        0.014      334.304        4.189      843.677
02/28/2014  21:22:00       62.102       40.661       12.860       13.737       10.895       17.317      188.699      118.697      299.879        0.314        0.030       74.229        4.242        0.003      334.439        4.413      843.681
02/28/2014  21:23:00       21.310       28.287        3.659       17.955       16.711       11.098      322.387      279.256      123.167        0.100        0.036       35.416        9.920        0.078      334.438        4.411      843.668
02/28/2014  21:24:00       17.333       40.494       -8.289       12.761       16.049        9.461      162.854      257.576       89.520        0.126        0.025       44.048        7.984        0.033      334.384        4.322      843.646
02/28/2014  21:25:00        5.196       58.397       -8.879        9.692       31.860       10.965       93.931     1015.048      120.239        0.237        0.061       58.627       15.996        0.074      334.494        4.503      843.628
02/28/2014  21:26:00       -7.634      105.895      -14.477       13.057       26.689       14.897      170.487      712.299      221.909        0.629        0.055      106.170       14.494        0.019      334.596        4.672      843.609
02/28/2014  21:27:00      -20.434      141.108      -18.168       21.032       25.880       16.846      442.348      669.774      283.797        1.103        0.070      142.580       12.406        0.008      334.717        4.873      843.586
02/28/2014  21:28:00      -54.267      102.392       -6.561       36.278       37.613       22.873     1316.115     1414.716      523.157        0.836        0.163      115.883       22.642        0.038      334.739        4.910      843.578
02/28/2014  21:29:00      -74.640       92.046      -16.390       28.978       32.764       15.528      839.736     1073.505      241.127        0.823        0.108      118.505       12.385        0.011      334.670        4.795      843.592
02/28/2014  21:30:00      -60.909       26.200       -7.340       18.862       33.884       22.506      355.782     1148.137      506.537        0.323        0.101       66.305       18.053        0.074      334.700        4.846      843.628
02/28/2014  21:31:00      -43.108       -6.420       -2.084       21.855       23.288       16.611      477.620      542.343      275.926        0.160        0.065       43.583       16.716        0.147      334.716        4.870      843.671
02/28/2014  21:32:00      -52.658      -15.196       -8.658       17.520       13.768       11.725      306.958      189.548      137.485        0.186        0.032       54.807        8.520        0.024      334.713        4.869      843.717
02/28/2014  21:33:00      -62.441      -24.589       -4.276       25.601       24.880        9.901      655.392      618.991       98.036        0.295        0.069       67.108        8.025        0.014      334.751        4.931      843.733
02/28/2014  21:34:00      -39.674      -33.350       -0.077       15.174       13.585       12.737      230.248      184.549      162.240        0.163        0.029       51.829        5.171        0.010      334.787        4.990      843.744
02/28/2014  21:35:00      -25.544      -20.981       -6.995       14.149        9.318        7.170      200.203       86.824       51.407        0.074        0.017       33.056        7.610        0.053      334.909        5.193      843.750
02/28/2014  21:36:00      -35.691      -13.390        5.832       10.278       10.093       10.554      105.641      101.863      111.396        0.090        0.016       38.120        6.902        0.033      334.896        5.172      843.745
02/28/2014  21:37:00      -28.062      -26.933        0.005       14.088       17.395       12.391      198.468      302.586      153.531        0.108        0.033       38.895       10.351        0.071      334.996        5.338      843.746
02/28/2014  21:38:00      -44.573      -13.441       -3.312       10.275       12.380        8.033      105.570      153.276       64.526        0.125        0.016       46.556        4.988        0.011      334.848        5.094      843.720
02/28/2014  21:39:00      -20.699      -10.835       -3.234       14.045        7.389        7.792      197.260       54.593       60.707        0.043        0.016       23.363        5.755        0.061      334.904        5.184      843.706
02/28/2014  21:40:00       -0.971        6.791       -1.966       14.543       11.331       11.234      211.506      128.382      126.196        0.026        0.023        6.860       13.366        3.797      334.822        5.051      843.694
02/28/2014  21:41:00       35.297       16.284       32.205       27.614       25.276       16.958      762.545      638.878      287.590        0.212        0.084       38.872       13.845        0.127      334.998        5.342      843.689
02/28/2014  21:42:00       29.156       17.895       16.655       35.437       17.745       19.405     1255.781      314.901      376.556        0.170        0.097       34.210       22.918        0.449      335.028        5.390      843.695
02/28/2014  21:43:00       -2.667        7.591       26.144        6.508       10.864        7.023       42.353      118.018       49.326        0.048        0.010        8.045        5.995        0.555      334.970        5.293      843.717
02/28/2014  21:44:00       -3.897        8.098       31.170        9.779       14.073       12.209       95.627      198.050      149.051        0.075        0.022        8.987       10.994        1.497      334.940        5.245      843.727
02/28/2014  21:45:00        8.936       27.296       30.795       12.280       12.698        9.709      150.795      161.234       94.271        0.109        0.020       28.722        6.106        0.045      334.929        5.225      843.730
02/28/2014  21:46:00       -6.297       17.516       30.174       10.201       16.156       10.321      104.069      261.008      106.520        0.086        0.024       18.613        8.232        0.196      334.935        5.236      843.738
02/28/2014  21:47:00        7.490       25.830       29.349       12.296       16.653        8.290      151.192      277.311       68.724        0.104        0.025       26.894        5.167        0.037      334.869        5.128      843.741
02/28/2014  21:48:00       50.710       37.716       17.553       23.506       15.656       18.025      552.525      245.101      324.895        0.271        0.056       63.198        9.668        0.023      334.898        5.173      843.746
02/28/2014  21:49:00       56.992       31.124        0.238       15.045       12.239       12.767      226.366      149.792      162.997        0.238        0.027       64.937        8.491        0.017      334.915        5.203      843.743
02/28/2014  21:50:00       45.156       19.210        2.109       14.777       14.237       11.845      218.362      202.680      140.297        0.149        0.028       49.072        7.031        0.021      334.866        5.122      843.761
02/28/2014  21:51:00       12.335       11.436        7.344       19.962       11.273       11.357      398.468      127.077      128.985        0.050        0.033       16.821        9.206        0.300      334.869        5.126      843.786
02/28/2014  21:52:00        4.705        8.282       -1.166       12.237        8.621        9.806      149.749       74.314       96.149        0.021        0.016        9.525        6.153        0.417      334.896        5.172      843.820
02/28/2014  21:53:00       25.537       11.367        3.810       13.887       10.083        9.532      192.847      101.672       90.850        0.059        0.019       27.952        4.450        0.025      334.890        5.162      843.847
02/28/2014  21:54:00       35.286       26.178       16.521       18.577       16.777       23.999      345.110      281.460      575.941        0.170        0.060       43.936       12.798        0.085      334.909        5.194      843.876
02/28/2014  21:55:00       49.631       30.623       29.779       26.393       23.909       25.958      696.610      571.650      673.804        0.311        0.097       58.319       16.046        0.076      334.911        5.197      843.903
02/28/2014  21:56:00       24.872       27.499       49.503       29.439       26.313       20.875      866.637      692.353      435.747        0.291        0.100       37.078       16.965        0.209      334.902        5.181      843.919
02/28/2014  21:57:00       -4.146       30.822       45.665       16.012       26.265       15.896      256.391      689.850      252.694        0.213        0.060       31.100       12.063        0.150      334.992        5.331      843.934
02/28/2014  21:58:00        0.177       38.489       59.617       20.580       25.431       16.852      423.535      646.714      283.991        0.319        0.068       38.490       14.576        0.143      334.953        5.266      843.948
02/28/2014  21:59:00       19.056      -65.877       -5.013       26.258       28.399       26.082      689.461      806.501      680.269        0.345        0.109       68.578       20.859        0.093      335.027        5.389      843.966
02/28/2014  22:00:00       10.062      -31.022       -7.364       25.110       34.357       22.301      630.525     1180.428      497.344        0.171        0.115       32.613       22.028        0.456      335.029        5.394      843.975
02/28/2014  22:01:00       11.983      -66.350       -6.582       26.369       43.091       25.805      695.312     1856.833      665.877        0.390        0.161       67.424       14.814        0.048      335.066        5.453      843.980
02/28/2014  22:02:00       -1.888       -8.126       24.008       27.894       24.682       15.504      778.081      609.194      240.381        0.114        0.081        8.342       13.118        2.473      335.019        5.377      843.978
02/28/2014  22:03:00        9.901       14.678       37.329       26.789       19.647       20.688      717.676      386.002      427.974        0.162        0.077       17.706       19.820        1.253      334.893        5.166      843.958
02/28/2014  22:04:00       40.090       41.817       42.804       42.159       31.017       24.942     1777.352      962.078      622.083        0.427        0.168       57.930       24.921        0.185      334.879        5.143      843.952
02/28/2014  22:05:00       87.348       44.094       14.000       38.538       34.303       26.119     1485.188     1176.693      682.192        0.656        0.167       97.846       18.053        0.034      334.904        5.185      843.933
02/28/2014  22:06:00      102.684       55.202       11.191       34.416       26.189       22.518     1184.476      685.875      507.083        0.805        0.119      116.582       18.956        0.026      334.907        5.190      843.913
02/28/2014  22:07:00      135.579       63.353        6.380       42.657       41.726       32.158     1819.630     1741.076     1034.144        1.351        0.230      149.650       25.477        0.029      334.893        5.166      843.897
02/28/2014  22:08:00      119.361       65.465        1.091       49.263       43.413       29.625     2426.858     1884.670      877.658        1.186        0.259      136.135       20.761        0.023      334.893        5.166      843.898
02/28/2014  22:09:00       72.931       42.429        8.322       46.833       35.427       34.531     2193.284     1255.060     1192.418        0.591        0.232       84.376       25.533        0.092      334.848        5.091      843.904
02/28/2014  22:10:00       24.109       25.854       38.485       36.686       28.311       24.110     1345.891      801.487      581.315        0.273        0.136       35.351       16.283        0.212      334.870        5.128      843.922
02/28/2014  22:11:00       35.841       30.510       39.901       31.836       25.210       24.032     1013.527      635.559      577.556        0.302        0.111       47.069       18.634        0.157      334.857        5.106      843.938
02/28/2014  22:12:00       50.711       58.577       40.332       45.609       33.513       31.866     2080.157     1123.100     1015.438        0.592        0.211       77.478       28.536        0.136      334.845        5.086      843.932
02/28/2014  22:13:00       85.547       58.671       26.012       38.801       27.944       24.717     1505.535      780.842      610.912        0.717        0.145      103.733       21.370        0.042      334.803        5.016      843.921
02/28/2014  22:14:00       99.356       59.668       20.548       42.262       29.783       30.218     1786.081      887.057      913.131        0.872        0.179      115.896       23.755        0.042      334.744        4.918      843.937
02/28/2014  22:15:00       64.054       28.253        5.801       43.363       30.427       23.910     1880.381      925.778      571.669        0.416        0.169       70.008       19.585        0.078      334.781        4.980      843.988
02/28/2014  22:16:00       74.388       40.174       12.660       20.123       14.951       18.627      404.953      223.524      346.970        0.414        0.049       84.543       13.960        0.027      334.764        4.951      844.039
02/28/2014  22:17:00       20.090       33.165       32.695       20.282       26.521       19.134      411.345      703.373      366.102        0.203        0.074       38.775       13.783        0.126      334.780        4.978      844.092
02/28/2014  22:18:00       47.869       51.995       37.143       29.930       18.614       26.325      895.794      346.467      692.992        0.415        0.097       70.675       20.222        0.082      334.837        5.074      844.110
02/28/2014  22:19:00       50.281       54.708       27.313       16.733       21.126       19.451      280.002      446.296      378.332        0.369        0.055       74.305        9.470        0.016      334.807        5.023      844.112
02/28/2014  22:20:00       84.738       49.620       17.798       31.744       24.041       20.306     1007.698      577.986      412.329        0.598        0.100       98.197       12.557        0.016      334.787        4.989      844.109
02/28/2014  22:21:00       89.415       52.712        3.431       29.747       26.998       22.165      884.880      728.894      491.283        0.644        0.105      103.796       14.906        0.021      334.785        4.986      844.117
02/28/2014  22:22:00       81.658       28.479        7.204       35.585       29.738       28.763     1266.311      884.353      827.325        0.525        0.149       86.482       12.608        0.021      334.783        4.985      844.145
02/28/2014  22:23:00       78.514       54.169       17.361       34.547       25.102       27.431     1193.510      630.112      752.461        0.599        0.129       95.388       23.170        0.059      334.707        4.857      844.199
02/28/2014  22:24:00       39.357       40.435       34.881       34.051       23.997       24.680     1159.480      575.837      609.107        0.337        0.117       56.426       21.057        0.139      334.770        4.963      844.259
02/28/2014  22:25:00       30.630       55.081       53.597       30.091       22.347       16.885      905.456      499.409      285.115        0.427        0.084       63.024        6.521        0.011      334.834        5.068      844.298
02/28/2014  22:26:00       95.290       28.448       27.342       39.614       30.989       32.734     1569.240      960.349     1071.502        0.712        0.180       99.445       20.834        0.044      334.851        5.096      844.311
02/28/2014  22:27:00      126.399       82.215       27.669       29.904       30.108       37.590      894.247      906.471     1412.971        1.336        0.161      150.785       23.355        0.024      334.798        5.008      844.323
02/28/2014  22:28:00      133.652       69.342       34.142       37.417       28.836       37.506     1400.031      831.537     1406.735        1.374        0.182      150.569       29.118        0.037      334.793        5.000      844.340
02/28/2014  22:29:00       95.089      115.180       86.704       53.542       53.570       48.174     2866.769     2869.766     2320.773        1.894        0.403      149.360       41.163        0.076      334.811        5.027      844.361
02/28/2014  22:30:00      114.471      140.003      104.042       68.865       52.840       54.941     4742.342     2792.045     3018.562        2.704        0.528      180.844       49.425        0.075      334.855        5.100      844.370
02/28/2014  22:31:00      187.418      129.851       82.052       81.755       57.437       67.498     6683.955     3298.983     4556.023        3.663        0.727      228.006       52.724        0.053      334.968        5.286      844.337
02/28/2014  22:32:00      195.560      106.170       78.087       95.836       68.049       77.092     9184.491     4630.637     5943.148        3.768        0.988      222.521       52.225        0.055      334.936        5.234      844.304
02/28/2014  22:33:00      109.479       70.513       51.417       78.425       47.000       53.662     6150.443     2209.013     2879.585        1.542        0.562      130.222       42.615        0.107      335.007        5.353      844.324
02/28/2014  22:34:00      118.440       90.276       53.005       80.768       41.893       48.356     6523.512     1755.013     2338.279        1.780        0.531      148.922       50.687        0.116      334.936        5.238      844.361
02/28/2014  22:35:00      168.565      132.607       53.035       59.039       44.733       54.855     3485.616     2001.075     3009.045        2.865        0.425      214.473       40.176        0.035      334.913        5.197      844.359
02/28/2014  22:36:00      125.320       83.544       57.102       67.458       50.282       53.495     4550.639     2528.284     2861.764        1.794        0.497      150.614       42.806        0.081      334.900        5.176      844.314
02/28/2014  22:37:00      153.992       81.970       27.166       75.008       60.569       52.079     5626.211     3668.599     2712.243        2.159        0.600      174.450       41.664        0.057      334.887        5.155      844.272
02/28/2014  22:38:00      180.280       72.474       11.074       59.905       53.762       32.446     3588.637     2890.403     1052.755        2.270        0.377      194.302       15.701        0.007      334.888        5.155      844.254
02/28/2014  22:39:00      109.387       42.327       33.341       63.782       51.941       37.467     4068.112     2697.897     1403.753        1.152        0.408      117.291       34.170        0.085      334.950        5.262      844.284
02/28/2014  22:40:00       78.717       16.204       35.194       39.193       35.134       35.481     1536.101     1234.420     1258.895        0.586        0.201       80.368       26.859        0.112      335.014        5.368      844.341
02/28/2014  22:41:00       53.313      -38.927        6.110       35.395       62.906       30.814     1252.773     3957.109      949.514        0.528        0.308       66.012       17.423        0.070      335.105        5.519      844.373
02/28/2014  22:42:00       20.186       37.661       28.163       25.938       19.850       20.449      672.754      394.009      418.156        0.205        0.074       42.730       19.016        0.198      335.164        5.617      844.355
02/28/2014  22:43:00       89.277       48.428       15.884       52.615       35.744       25.039     2768.347     1277.640      626.947        0.762        0.234      101.566       20.899        0.042      335.186        5.651      844.296
02/28/2014  22:44:00      139.092       79.964        4.510       63.258       46.668       36.459     4001.559     2177.924     1329.265        1.663        0.375      160.439       16.248        0.010      335.122        5.547      844.248
02/28/2014  22:45:00      126.891       77.646       12.596       53.030       45.788       32.553     2812.157     2096.519     1059.698        1.413        0.298      148.762       25.043        0.028      335.085        5.486      844.264
02/28/2014  22:46:00      134.808       60.743       12.736       49.458       49.032       36.728     2446.130     2404.168     1348.923        1.411        0.310      147.861       22.427        0.023      335.046        5.422      844.297
02/28/2014  22:47:00       73.752       13.283       13.049       54.096       47.764       29.606     2926.384     2281.447      876.494        0.593        0.304       74.939       20.837        0.077      335.117        5.539      844.336
02/28/2014  22:48:00      -17.057      -47.180       14.792       26.981       21.987       25.666      727.969      483.428      658.743        0.230        0.094       50.169       16.655        0.110      335.167        5.620      844.374
02/28/2014  22:49:00      -35.401       -3.350      -16.500       26.340       19.683       19.023      693.793      387.411      361.873        0.149        0.072       35.559       13.746        0.149      335.041        5.411      844.393
02/28/2014  22:50:00      -28.296       24.231        4.822       18.684       17.145       10.839      349.074      293.942      117.484        0.109        0.038       37.253        8.031        0.046      335.014        5.367      844.402
02/28/2014  22:51:00        0.780       20.403       -0.860       39.166       34.969       22.141     1533.964     1222.856      490.240        0.183        0.162       20.418       24.044        1.387      335.071        5.463      844.388
02/28/2014  22:52:00       45.467       42.256        5.800       31.402       24.499       19.909      986.098      600.182      396.350        0.293        0.099       62.071       14.654        0.056      335.060        5.443      844.388
02/28/2014  22:53:00       85.855       35.533       -4.829       26.063       21.138       22.611      679.257      446.795      511.266        0.515        0.082       92.918       13.171        0.020      335.064        5.449      844.409
02/28/2014  22:54:00       75.487       30.588        3.987       31.177       23.427       23.220      972.006      548.812      539.185        0.435        0.103       81.449        9.789        0.014      334.992        5.329      844.429
02/28/2014  22:55:00      103.594       39.608       14.705       41.685       20.646       26.455     1737.611      426.260      699.843        0.769        0.143      110.908       18.779        0.029      334.935        5.237      844.443
02/28/2014  22:56:00       64.625       44.174        6.333       36.088       20.685       23.849     1302.368      427.890      568.777        0.423        0.115       78.280       19.103        0.060      334.931        5.229      844.469
02/28/2014  22:57:00       46.072       24.152        9.805       23.522       19.176       16.380      553.288      367.717      268.311        0.200        0.059       52.019       11.261        0.047      334.994        5.333      844.490
02/28/2014  22:58:00       20.132       17.979        2.375       19.713       13.051       14.022      388.617      170.333      196.620        0.074        0.038       26.991       11.567        0.184      334.963        5.282      844.504
02/28/2014  22:59:00      -13.522       25.595       -8.725       13.262       18.983        8.783      175.873      360.336       77.133        0.076        0.031       28.947        5.948        0.042      334.930        5.230      844.512
02/28/2014  23:00:00      -18.094       -1.862       -5.264       13.949       15.730        7.750      194.584      247.419       60.063        0.043        0.025       18.189        6.177        0.115      334.974        5.301      844.538
02/28/2014  23:01:00      -39.755       11.252       -5.677       25.561       16.248       13.128      653.363      263.994      172.353        0.141        0.054       41.316       13.853        0.112      335.064        5.450      844.553
02/28/2014  23:02:00        3.053       47.768       -5.501       31.054       18.410       14.762      964.359      338.940      217.911        0.192        0.076       47.865        8.747        0.033      335.059        5.443      844.564
02/28/2014  23:03:00       16.096       35.030       -8.614        9.321       12.946       13.127       86.874      167.608      172.318        0.099        0.021       38.551        3.850        0.010      334.990        5.325      844.590
02/28/2014  23:04:00       19.855       26.161        1.132       11.613       14.260       14.436      134.864      203.352      208.408        0.081        0.027       32.843        7.403        0.051      335.000        5.343      844.623
02/28/2014  23:05:00       47.029       35.141       17.980       35.738       15.698       15.703     1277.217      246.426      246.573        0.277        0.089       58.708       16.931        0.083      335.049        5.425      844.637
02/28/2014  23:06:00       94.416       54.409       10.631       30.768       23.713       20.528      946.660      562.311      421.408        0.696        0.097      108.971       17.817        0.027      335.003        5.349      844.627
02/28/2014  23:07:00      129.967       89.690        5.588       31.089       28.918       27.794      966.541      836.225      772.495        1.377        0.129      157.910       19.721        0.016      334.954        5.267      844.613
02/28/2014  23:08:00      128.908       78.918       -7.397       36.891       36.914       24.077     1360.934     1362.657      579.690        1.310        0.165      151.147       20.852        0.019      334.948        5.259      844.597
02/28/2014  23:09:00      134.670       67.501        5.112       45.814       38.196       27.932     2098.960     1458.934      780.169        1.353        0.217      150.640       21.116        0.020      334.988        5.324      844.570
02/28/2014  23:10:00      114.852       64.448       -1.721       51.159       42.042       35.596     2617.247     1767.564     1267.072        1.150        0.283      131.699       15.689        0.014      335.063        5.449      844.551
02/28/2014  23:11:00      105.678       58.742       12.633       49.504       40.236       29.163     2450.627     1618.902      850.501        0.985        0.246      120.907       25.291        0.044      334.974        5.301      844.559
02/28/2014  23:12:00       92.004       35.745        8.439       28.850       24.726       17.866      832.311      611.363      319.211        0.579        0.088       98.703       14.776        0.022      334.983        5.316      844.609
02/28/2014  23:13:00       35.256        7.751        7.249       36.581       22.661       18.552     1338.138      513.542      344.170        0.178        0.110       36.098        9.214        0.065      335.007        5.356      844.666
02/28/2014  23:14:00      -42.320      -16.087      -10.391       16.676       17.916       15.188      278.094      321.000      230.676        0.149        0.041       45.275        9.916        0.048      335.178        5.639      844.706
02/28/2014  23:15:00      -67.122      -27.792        1.856       29.234       28.671       18.502      854.644      822.007      342.334        0.365        0.101       72.648       16.201        0.050      335.162        5.612      844.733
02/28/2014  23:16:00      -59.791      -10.657       -2.245       37.028       19.680       17.080     1371.097      387.310      291.742        0.287        0.103       60.733       15.952        0.069      335.135        5.570      844.733
02/28/2014  23:17:00      -50.418      -67.510       -1.156       29.495       22.938       13.447      869.979      526.168      180.823        0.434        0.079       84.259        7.867        0.009      335.148        5.589      844.714
02/28/2014  23:18:00      -40.116      -39.852        2.239       24.432       24.989       20.140      596.907      624.445      405.601        0.241        0.081       56.546       14.334        0.064      335.177        5.638      844.692
02/28/2014  23:19:00       -2.059      -18.783       -5.407       12.519       21.395        8.822      156.716      457.730       77.833        0.054        0.035       18.896        7.745        0.168      335.172        5.630      844.672
02/28/2014  23:20:00       36.977       37.823       29.746       20.834       14.209       14.087      434.073      201.903      198.452        0.226        0.042       52.895        5.640        0.011      335.201        5.676      844.641
02/28/2014  23:21:00       24.312       51.995       -1.333       13.354       10.321       18.106      178.337      106.517      327.811        0.195        0.031       57.398        9.676        0.028      335.227        5.719      844.609
02/28/2014  23:22:00       29.904       48.123       -2.846       16.563       14.617       18.484      274.334      213.670      341.661        0.202        0.041       56.658       13.534        0.057      335.194        5.665      844.584
02/28/2014  23:23:00       38.939       46.250       -6.328       12.498       16.254       11.855      156.195      264.184      140.534        0.213        0.028       60.459        4.501        0.006      335.179        5.639      844.585
02/28/2014  23:24:00       41.086       29.608       -2.959       17.721       14.273        9.869      314.031      203.725       97.392        0.159        0.031       50.642        3.732        0.005      335.204        5.682      844.605
02/28/2014  23:25:00       53.799       23.180        5.093       20.141       24.980       17.809      405.679      624.022      317.144        0.240        0.067       58.581       17.803        0.092      335.265        5.783      844.641
02/28/2014  23:26:00        2.176       18.080       39.786       15.422       24.838       17.374      237.838      616.951      301.840        0.154        0.058       18.211       15.097        0.687      335.252        5.760      844.671
02/28/2014  23:27:00      -14.184      -18.251       18.857       26.721       16.291       16.398      714.026      265.387      268.900        0.107        0.062       23.114       12.893        0.311      335.348        5.921      844.726
02/28/2014  23:28:00      -28.129      -25.628        9.706       30.524       22.357       17.023      931.715      499.833      289.787        0.163        0.086       38.053       17.365        0.208      335.345        5.916      844.792
02/28/2014  23:29:00      -11.869      -25.549        5.203       24.575       22.488       15.275      603.921      505.692      233.334        0.108        0.067       28.171       17.636        0.392      335.214        5.698      844.838
02/28/2014  23:30:00       -6.184       18.881       10.766       12.673       11.322       11.919      160.608      128.194      142.059        0.047        0.022       19.868        3.612        0.033      335.238        5.740      844.849
02/28/2014  23:31:00      -32.611        0.696       18.404       11.840       18.109       15.478      140.183      327.922      239.573        0.106        0.035       32.619       13.592        0.174      335.248        5.753      844.865
02/28/2014  23:32:00      -54.242      -17.045        2.976       21.764       22.850       12.510      473.663      522.114      156.503        0.220        0.058       56.857        3.732        0.004      335.334        5.898      844.892
02/28/2014  23:33:00      -78.929      -46.222       -8.400       46.888       33.903       20.339     2198.478     1149.386      413.669        0.610        0.188       91.467       21.399        0.055      335.280        5.806      844.893
02/28/2014  23:34:00      -92.076      -82.062       -3.230       39.309       27.088       20.961     1545.172      733.741      439.343        0.897        0.136      123.338       18.980        0.024      335.225        5.715      844.863
02/28/2014  23:35:00      -50.681      -38.453        4.476       46.671       43.379       20.878     2178.210     1881.705      435.906        0.428        0.225       63.617       22.470        0.125      335.217        5.703      844.829
02/28/2014  23:36:00     -105.039       -5.886       -5.287       28.838       25.627       16.845      831.602      656.744      283.744        0.643        0.089      105.204       17.055        0.026      335.143        5.583      844.821
02/28/2014  23:37:00      -86.269      -23.251       -6.263       17.344       14.146       13.524      300.826      200.103      182.889        0.435        0.034       89.348        6.914        0.006      335.157        5.603      844.831
02/28/2014  23:38:00      -48.409      -12.007       -4.677       21.764       14.601        8.706      473.661      213.188       75.801        0.164        0.038       49.876       10.863        0.047      335.181        5.644      844.828
02/28/2014  23:39:00      -39.990       31.345       -7.008       18.056       13.820       10.852      326.036      190.981      117.764        0.163        0.032       50.810       13.139        0.067      335.103        5.516      844.815
02/28/2014  23:40:00      -44.644       38.244      -10.400       13.140       11.704        9.142      172.649      136.987       83.573        0.198        0.020       58.786        7.316        0.015      335.146        5.584      844.795
02/28/2014  23:41:00      -55.648       36.812       -6.071       24.813       24.224       15.872      615.670      586.817      251.925        0.297        0.073       66.722       16.116        0.058      335.199        5.675      844.782
02/28/2014  23:42:00      -78.886       30.724      -14.260       21.668       20.416       12.321      469.508      416.820      151.796        0.420        0.052       84.658        9.489        0.013      335.201        5.678      844.818
02/28/2014  23:43:00      -55.643       60.406      -12.695       21.394       33.804       11.483      457.682     1142.689      131.849        0.432        0.087       82.128        6.091        0.006      335.286        5.818      844.838
02/28/2014  23:44:00       20.087       98.115      -10.461       33.434       17.800       15.830     1117.849      316.833      250.584        0.591        0.084      100.150       15.344        0.023      335.494        6.166      844.805
02/28/2014  23:45:00       57.943      102.575       -7.769       23.939       35.278       25.561      573.094     1244.568      653.388        0.820        0.124      117.809       24.089        0.042      335.309        5.857      844.762
02/28/2014  23:46:00       64.633       69.096       -8.415       21.268       26.368       20.279      452.323      695.286      411.251        0.529        0.078       94.613       15.113        0.026      335.288        5.821      844.757
02/28/2014  23:47:00       76.809       47.222        8.813       28.663       19.616       27.020      821.567      384.772      730.102        0.507        0.097       90.164       19.567        0.047      335.187        5.656      844.801
02/28/2014  23:48:00       27.131       36.256       33.866       20.972       27.653       18.066      439.810      764.667      326.372        0.236        0.077       45.284       12.451        0.076      335.141        5.578      844.826
02/28/2014  23:49:00        7.619       21.873       34.871       17.280       24.822       17.477      298.612      616.117      305.435        0.149        0.061       23.162       16.980        0.537      335.157        5.604      844.835
02/28/2014  23:50:00        3.150       25.142       35.289       18.322       16.982       12.147      335.694      288.383      147.553        0.133        0.039       25.338        8.647        0.116      335.228        5.722      844.850
02/28/2014  23:51:00        7.519       15.779       24.281       16.691       19.744       10.801      278.602      389.835      116.664        0.084        0.039       17.479       11.491        0.432      335.272        5.794      844.864
02/28/2014  23:52:00       58.262       33.389       20.432       14.296       12.551       18.274      204.386      157.525      333.942        0.281        0.035       67.152       10.743        0.026      335.260        5.775      844.874
02/28/2014  23:53:00       48.530       16.479       18.691       28.039       23.641       20.499      786.198      558.900      420.229        0.237        0.088       51.251       15.149        0.087      335.301        5.842      844.865
02/28/2014  23:54:00        4.403       44.761       56.848       16.861       24.372       14.853      284.293      594.018      220.609        0.318        0.055       44.977       11.292        0.063      335.266        5.784      844.888
02/28/2014  23:55:00       25.952        9.965       51.278       33.742       44.919       30.920     1138.518     2017.694      956.050        0.376        0.206       27.799       28.151        1.025      335.232        5.728      844.911
02/28/2014  23:56:00       55.221      -12.721       35.243       63.787       66.252       47.138     4068.835     4389.340     2221.944        0.756        0.534       56.667       59.114        1.088      335.083        5.483      844.913
02/28/2014  23:57:00        0.680       43.968       60.815       23.008       31.498       24.426      529.354      992.148      596.611        0.387        0.106       43.973       19.951        0.206      335.108        5.523      844.927
02/28/2014  23:58:00       10.705      -21.524        9.699       11.231       15.453       13.547      126.144      238.800      183.527        0.061        0.027       24.039        8.873        0.136      335.167        5.620      844.947
02/28/2014  23:59:00        2.080       12.279        0.230       18.574       17.599       10.966      344.985      309.739      120.258        0.046        0.039       12.454        7.751        0.387      335.166        5.620      844.959
